[[{"header":{"parameterUnit":"m.s-1","parameterCategory":1,"la1":30.6,"la2":29.2853,"lo1":-89.7004,"lo2":-87.6739,"dy":0.0162,"dx":0.0183,"nx":112,"ny":82,"refTime":"2023-06-10T18:00:00:Z","depth":0,"parameterNumber":2,"parameterNumberName":"U-component_of_WINDS"},"data":[0.0,0.0,0.0,0.0,0.0,0.0,0.0,0.0,0.0,0.0,0.0,0.0,0.0,0.0,0.0,0.0,0.0,0.0,0.0,0.0,0.0,0.0,0.0,0.0,0.0,0.0,0.0,0.0,0.0,0.0,0.0,0.0,0.0,0.0,0.0,0.0,0.0,0.0,0.0,0.0,0.0,0.0,0.0,0.0,0.0,0.0,0.0,0.0,0.0,0.0,0.0,0.0,0.0,0.0,0.0,0.0,0.0,0.0,0.0,0.0,0.0,0.0,0.0,0.0,0.0,0.0,0.0,0.0,0.0,0.0,0.0,0.0,0.0,0.0,0.0,0.0,0.0,0.0,0.0,0.0,0.0,0.0,0.0,0.0,0.0,0.0,0.0,0.0,0.0,0.0,-0.6036,-0.6578,-0.7553,-0.824,-0.8285,-0.8208,-0.7714,-0.6769,0.0,0.0,0.0,0.0,0.0,0.0,0.0,0.0,0.0,0.0,0.0,0.0,0.0,0.0,0.0,0.0,0.0,0.0,0.0,0.0,0.0,0.0,0.0,0.0,0.0,0.0,0.0,0.0,0.0,0.0,0.0,0.0,0.0,0.0,0.0,0.0,0.0,0.0,0.0,0.0,0.0,0.0,0.0,0.0,0.0,0.0,0.0,0.0,0.0,0.0,0.0,0.0,0.0,0.0,0.0,0.0,0.0,0.0,0.0,0.0,0.0,0.0,0.0,0.0,0.0,0.0,0.0,0.0,0.0,0.0,0.0,0.0,0.0,0.0,0.0,0.0,0.0,0.0,0.0,0.0,0.0,0.0,0.0,0.0,0.0,0.0,0.0,0.0,0.0,0.0,0.0,0.0,0.0,0.0,0.0,0.0,0.0,0.0,0.0,0.0,0.0,0.0,0.0,0.0,-0.6411,-0.7624,-0.8001,-0.8361,-0.8662,-0.8394,-0.817,-0.8176,0.0,0.0,0.0,0.0,0.0,0.0,0.0,0.0,0.0,0.0,0.0,0.0,0.0,0.0,0.0,0.0,0.0,0.0,0.0,0.0,0.0,0.0,0.0,0.0,0.0,0.0,0.0,0.0,0.0,0.0,0.0,0.0,0.0,0.0,0.0,0.0,0.0,0.0,0.0,0.0,0.0,0.0,0.0,0.0,0.0,0.0,0.0,0.0,0.0,0.0,0.0,0.0,0.0,0.0,0.0,0.0,0.0,0.0,0.0,0.0,0.0,0.0,0.0,0.0,0.0,0.0,0.0,0.0,0.0,0.0,0.0,0.0,0.0,0.0,0.0,0.0,0.0,0.0,0.0,0.0,0.0,0.0,0.0,0.0,0.0,0.0,0.0,0.0,0.0,0.0,0.0,0.0,0.0,0.0,0.0,0.0,0.0,0.0,0.0,0.0,0.0,0.0,0.0,-0.6374,-0.7156,-0.8388,-0.8826,-0.9162,-0.9415,-0.928,-0.9009,-0.8707,-0.8404,0.0,0.0,0.0,0.0,0.0,0.0,0.0,0.0,0.0,0.0,0.0,0.0,0.0,0.0,0.0,0.0,0.0,0.0,0.0,0.0,0.0,0.0,0.0,0.0,0.0,0.0,0.0,0.0,0.0,0.0,0.0,0.0,0.0,0.0,0.0,0.0,0.0,0.0,0.0,0.0,0.0,0.0,0.0,0.0,0.0,0.0,0.0,0.0,0.0,0.0,0.0,0.0,0.0,0.0,0.0,0.0,0.0,0.0,0.0,0.0,0.0,0.0,0.0,0.0,0.0,0.0,0.0,0.0,0.0,0.0,0.0,0.0,0.0,0.0,0.0,0.0,0.0,0.0,0.0,0.0,0.0,0.0,0.0,0.0,0.0,0.0,0.0,0.0,0.0,0.0,0.0,0.0,0.0,0.0,0.0,0.0,0.0,0.0,0.0,0.0,0.0,0.0,-0.715,-0.7947,-0.9094,-0.955,-0.9868,-1.0047,-1.0043,-0.9703,-0.9076,-0.9178,0.0,0.0,0.0,0.0,0.0,0.0,0.0,0.0,0.0,0.0,0.0,0.0,0.0,0.0,0.0,0.0,0.0,0.0,0.0,0.0,0.0,0.0,0.0,0.0,0.0,0.0,0.0,0.0,0.0,0.0,0.0,0.0,0.0,0.0,0.0,0.0,0.0,0.0,0.0,0.0,0.0,0.0,0.0,0.0,0.0,0.0,0.0,0.0,0.0,0.0,0.0,0.0,0.0,0.0,0.0,0.0,0.0,0.0,0.0,0.0,0.0,0.0,0.0,0.0,0.0,0.0,0.0,0.0,0.0,0.0,0.0,0.0,0.0,0.0,0.0,0.0,0.0,0.0,0.0,0.0,0.0,0.0,0.0,0.0,0.0,0.0,0.0,0.0,0.0,0.0,0.0,0.0,0.0,0.0,0.0,0.0,0.0,0.0,0.0,0.0,0.0,0.0,-0.7935,-0.8867,-0.9693,-0.9779,-0.9932,-1.0244,-1.0288,-1.0101,-0.9659,-0.9627,0.0,0.0,0.0,0.0,0.0,0.0,0.0,0.0,0.0,0.0,0.0,0.0,0.0,0.0,0.0,0.0,0.0,0.0,0.0,0.0,0.0,0.0,0.0,0.0,0.0,0.0,0.0,0.0,0.0,0.0,0.0,0.0,0.0,0.0,0.0,0.0,0.0,0.0,0.0,0.0,0.0,0.0,0.0,0.0,0.0,0.0,0.0,0.0,0.0,0.0,0.0,0.0,0.0,0.0,0.0,0.0,0.0,0.0,0.0,0.0,0.0,0.0,0.0,0.0,0.0,0.0,0.0,0.0,0.0,0.0,0.0,0.0,0.0,0.0,0.0,0.0,0.0,0.0,0.0,0.0,0.0,0.0,0.0,0.0,0.0,0.0,0.0,0.0,0.0,0.0,0.0,0.0,0.0,0.0,0.0,0.0,0.0,0.0,0.0,0.0,0.0,0.0,-0.8094,-0.876,-0.9451,-0.9756,-1.0053,-1.0308,-1.0428,-1.0325,-0.9907,0.0,0.0,0.0,0.0,0.0,0.0,0.0,0.0,0.0,0.0,0.0,0.0,0.0,0.0,0.0,0.0,0.0,0.0,0.0,0.0,0.0,0.0,0.0,0.0,0.0,0.0,0.0,0.0,0.0,0.0,0.0,0.0,0.0,0.0,0.0,0.0,0.0,0.0,0.0,0.0,0.0,0.0,0.0,0.0,0.0,0.0,0.0,0.0,0.0,0.0,0.0,0.0,0.0,0.0,0.0,0.0,0.0,0.0,0.0,0.0,0.0,0.0,0.0,0.0,0.0,0.0,0.0,0.0,0.0,0.0,0.0,0.0,0.0,0.0,0.0,0.0,0.0,0.0,0.0,0.0,0.0,0.0,0.0,0.0,0.0,0.0,0.0,0.0,0.0,0.0,0.0,0.0,0.0,0.0,0.0,0.0,0.0,0.0,0.0,0.0,0.0,0.0,-0.756,-0.8165,-0.8798,-0.9501,-0.9869,-1.011,-1.0371,-1.0498,-1.0434,-1.0047,0.0,0.0,0.0,0.0,0.0,0.0,0.0,0.0,0.0,0.0,0.0,0.0,0.0,0.0,0.0,0.0,0.0,0.0,0.0,0.0,0.0,0.0,0.0,0.0,0.0,0.0,0.0,0.0,0.0,0.0,0.0,0.0,0.0,0.0,0.0,0.0,0.0,0.0,0.0,0.0,0.0,0.0,0.0,0.0,0.0,0.0,0.0,0.0,0.0,0.0,0.0,0.0,0.0,0.0,0.0,0.0,0.0,0.0,0.0,0.0,0.0,0.0,0.0,0.0,0.0,0.0,0.0,0.0,0.0,0.0,0.0,0.0,0.0,0.0,0.0,0.0,0.0,0.0,0.0,0.0,0.0,0.0,0.0,0.0,0.0,0.0,0.0,0.0,0.0,0.0,0.0,0.0,0.0,0.0,0.0,0.0,0.0,0.0,0.0,0.0,0.0,0.0,-0.7173,-0.832,-0.9358,-0.9952,-0.9983,-1.0174,-1.0561,-1.0624,-1.0434,0.0,0.0,0.0,0.0,0.0,0.0,0.0,0.0,0.0,0.0,0.0,0.0,0.0,0.0,0.0,0.0,0.0,0.0,0.0,0.0,0.0,0.0,0.0,0.0,0.0,0.0,0.0,0.0,0.0,0.0,0.0,0.0,0.0,0.0,0.0,0.0,0.0,0.0,0.0,0.0,0.0,0.0,0.0,0.0,0.0,0.0,0.0,0.0,0.0,0.0,0.0,0.0,0.0,0.0,0.0,0.0,0.0,0.0,0.0,0.0,0.0,0.0,0.0,0.0,0.0,0.0,0.0,0.0,0.0,0.0,0.0,0.0,0.0,0.0,0.0,0.0,0.0,0.0,0.0,0.0,0.0,0.0,0.0,0.0,0.0,0.0,0.0,0.0,0.0,0.0,0.0,0.0,0.0,0.0,0.0,0.0,0.0,0.0,0.0,0.0,0.0,0.0,0.0,-0.8868,-0.9415,-0.9825,-1.0168,-1.0238,-1.0301,-1.0561,-1.0624,-1.0498,-1.0238,0.0,0.0,0.0,0.0,0.0,0.0,0.0,0.0,0.0,0.0,0.0,0.0,0.0,0.0,0.0,0.0,0.0,0.0,0.0,0.0,0.0,0.0,0.0,0.0,0.0,0.0,0.0,0.0,0.0,0.0,0.0,0.0,0.0,0.0,0.0,0.0,0.0,0.0,0.0,0.0,0.0,0.0,0.0,0.0,0.0,0.0,0.0,0.0,0.0,0.0,0.0,0.0,0.0,0.0,0.0,0.0,0.0,0.0,0.0,0.0,0.0,0.0,0.0,0.0,0.0,0.0,0.0,0.0,0.0,0.0,0.0,0.0,0.0,0.0,0.0,0.0,0.0,0.0,0.0,0.0,0.0,0.0,0.0,0.0,0.0,0.0,0.0,0.0,0.0,0.0,0.0,0.0,0.0,0.0,0.0,0.0,0.0,0.0,0.0,0.0,0.0,0.0,-0.925,-0.9885,-1.0283,-1.0413,-1.0471,-1.0581,-1.0895,-1.0795,-1.0717,-1.064,0.0,0.0,0.0,0.0,0.0,0.0,0.0,0.0,0.0,0.0,0.0,0.0,0.0,0.0,0.0,0.0,0.0,0.0,0.0,0.0,0.0,0.0,0.0,0.0,0.0,0.0,0.0,0.0,0.0,0.0,0.0,0.0,0.0,0.0,0.0,0.0,0.0,0.0,0.0,0.0,0.0,0.0,0.0,0.0,0.0,0.0,0.0,0.0,0.0,0.0,0.0,0.0,0.0,0.0,0.0,0.0,0.0,0.0,0.0,0.0,0.0,0.0,0.0,0.0,0.0,0.0,0.0,0.0,0.0,0.0,0.0,0.0,0.0,0.0,0.0,0.0,0.0,0.0,0.0,0.0,0.0,0.0,0.0,0.0,0.0,0.0,0.0,0.0,0.0,0.0,0.0,0.0,0.0,0.0,0.0,0.0,0.0,0.0,0.0,0.0,0.0,0.0,-0.8765,-0.9837,-1.0612,-1.0764,-1.0764,-1.0935,-1.1334,-1.1182,-1.1082,-1.1211,0.0,0.0,0.0,0.0,0.0,0.0,0.0,0.0,0.0,0.0,0.0,0.0,0.0,0.0,0.0,0.0,0.0,0.0,0.0,0.0,0.0,0.0,0.0,0.0,0.0,0.0,0.0,0.0,0.0,0.0,0.0,0.0,0.0,0.0,0.0,0.0,0.0,0.0,0.0,0.0,0.0,0.0,0.0,0.0,0.0,0.0,0.0,0.0,0.0,0.0,0.0,0.0,0.0,0.0,0.0,0.0,0.0,0.0,0.0,0.0,-0.5176,-0.502,0.0,0.0,0.0,0.0,0.0,0.0,0.0,0.0,0.0,0.0,0.0,0.0,0.0,0.0,0.0,0.0,0.0,0.0,0.0,0.0,0.0,0.0,0.0,0.0,0.0,0.0,0.0,0.0,0.0,0.0,0.0,0.0,0.0,0.0,0.0,0.0,0.0,0.0,0.0,0.0,-0.919,-1.0211,-1.1016,-1.1242,-1.1268,-1.1288,-1.1423,-1.1369,-1.1356,-1.1354,-1.1375,0.0,0.0,0.0,0.0,0.0,0.0,0.0,0.0,0.0,0.0,0.0,0.0,0.0,0.0,0.0,0.0,0.0,0.0,0.0,0.0,0.0,0.0,0.0,0.0,0.0,0.0,0.0,0.0,0.0,0.0,0.0,0.0,0.0,0.0,0.0,0.0,0.0,0.0,0.0,0.0,0.0,0.0,0.0,0.0,0.0,0.0,0.0,0.0,0.0,0.0,0.0,0.0,0.0,0.0,0.0,0.0,0.0,0.0,0.0,-0.592,-0.5308,0.0,0.0,0.0,0.0,0.0,0.0,0.0,0.0,0.0,0.0,0.0,0.0,0.0,0.0,0.0,0.0,0.0,0.0,0.0,0.0,0.0,0.0,0.0,0.0,0.0,0.0,0.0,0.0,0.0,0.0,0.0,0.0,0.0,0.0,0.0,0.0,0.0,0.0,0.0,0.0,-1.0067,-1.0908,-1.147,-1.1623,-1.1637,-1.1697,-1.1837,-1.1717,-1.1697,-1.1837,-1.1793,0.0,0.0,0.0,0.0,0.0,0.0,0.0,0.0,0.0,0.0,0.0,0.0,0.0,0.0,0.0,0.0,0.0,0.0,0.0,0.0,0.0,0.0,0.0,0.0,0.0,0.0,0.0,0.0,0.0,0.0,0.0,0.0,0.0,0.0,0.0,0.0,0.0,0.0,0.0,0.0,0.0,0.0,0.0,0.0,0.0,0.0,0.0,0.0,0.0,0.0,0.0,0.0,0.0,-0.85,-0.8778,-0.8486,-0.8932,-0.911,-0.9005,-0.707,-0.6135,-0.5863,-0.5569,0.0,0.0,0.0,0.0,0.0,0.0,0.0,0.0,0.0,0.0,0.0,0.0,0.0,0.0,0.0,0.0,0.0,0.0,0.0,0.0,0.0,0.0,-0.7563,-0.8357,-0.8851,-0.8895,-0.7848,0.0,0.0,0.0,0.0,0.0,0.0,0.0,0.0,0.0,0.0,0.0,-1.0779,-1.1435,-1.1891,-1.1937,-1.1944,-1.2044,-1.2278,-1.2084,-1.2044,-1.2285,-1.2078,-1.1979,0.0,0.0,0.0,0.0,0.0,0.0,0.0,0.0,0.0,0.0,0.0,0.0,0.0,0.0,0.0,0.0,0.0,0.0,0.0,0.0,0.0,0.0,0.0,0.0,0.0,0.0,0.0,0.0,0.0,0.0,0.0,0.0,-0.9064,-0.9346,0.0,0.0,0.0,0.0,0.0,0.0,0.0,0.0,0.0,0.0,0.0,0.0,0.0,-0.8778,-0.8997,-0.933,-0.8737,-0.7285,-0.918,-0.9311,-0.799,-0.8978,-0.9475,-0.9375,-0.9027,0.0,-0.7057,-0.6165,0.0,0.0,0.0,0.0,0.0,0.0,0.0,0.0,0.0,0.0,0.0,0.0,0.0,0.0,0.0,0.0,0.0,0.0,0.0,0.0,0.0,0.0,-0.8442,-0.8694,-0.9163,-0.9611,-0.9947,-0.9499,-0.9006,-0.8885,-0.8783,-0.8793,0.0,0.0,0.0,0.0,0.0,0.0,-1.0557,-1.141,-1.1964,-1.2218,-1.2245,-1.2258,-1.2298,-1.2265,-1.2265,-1.2298,-1.2265,-1.2258,-1.2224,-1.2265,0.0,0.0,0.0,0.0,0.0,0.0,0.0,0.0,0.0,0.0,0.0,0.0,0.0,0.0,0.0,0.0,0.0,0.0,0.0,0.0,0.0,0.0,0.0,0.0,0.0,0.0,0.0,0.0,0.0,-0.8831,-0.9228,-0.9454,-0.918,-0.9046,0.0,0.0,0.0,0.0,0.0,0.0,0.0,0.0,0.0,-0.981,-1.0013,-1.0286,-1.0553,-1.0808,-1.0612,-1.0111,-1.1249,-1.1489,-1.0816,-1.1483,-1.1766,-1.1749,-1.1075,-1.0439,-0.9784,-0.8116,-0.7368,-0.736,0.0,0.0,0.0,0.0,-0.6212,-0.5942,-0.603,-0.6112,-0.6179,-0.6179,0.0,0.0,0.0,0.0,0.0,0.0,0.0,-0.7794,-0.8649,-0.9319,-0.9958,-1.0778,-1.12,-1.1474,-1.1702,-1.1352,-1.0765,-1.0211,-0.9974,-0.9756,-0.9631,-0.9494,0.0,0.0,0.0,-1.092,-1.1338,-1.182,-1.2164,-1.2285,-1.2305,-1.2305,-1.2305,-1.2305,-1.2305,-1.2305,-1.2305,-1.2378,-1.2545,-1.2552,-1.2692,0.0,0.0,0.0,0.0,0.0,0.0,0.0,0.0,0.0,0.0,0.0,0.0,0.0,0.0,0.0,0.0,0.0,0.0,0.0,0.0,0.0,0.0,0.0,0.0,0.0,0.0,0.0,0.0,-0.9004,-0.925,-0.946,-0.9484,-0.9484,0.0,0.0,0.0,0.0,0.0,0.0,-0.9349,-1.0166,-1.0466,-1.0273,-1.0977,-1.1552,-1.183,-1.2095,-1.2159,-1.2181,-1.282,-1.304,-1.2862,-1.3333,-1.3513,-1.3501,-1.267,-1.2316,-1.2126,-0.9861,-0.8917,-0.8893,-0.8611,-0.8162,-0.7647,-0.7647,-0.7293,-0.6908,-0.7156,-0.7263,-0.7254,-0.7377,-0.7282,-0.7152,-0.7383,0.0,0.0,0.0,0.0,-0.8788,-1.0062,-1.0612,-1.1177,-1.2305,-1.272,-1.2866,-1.2866,-1.2692,-1.226,-1.1366,-1.1025,-1.072,-1.0271,-1.0415,0.0,-1.0935,-1.1489,-1.1985,-1.2267,-1.2457,-1.2532,-1.2532,-1.2532,-1.2532,-1.2532,-1.2532,-1.2532,-1.2532,-1.2532,-1.2632,-1.2859,-1.2866,-1.3006,-1.3313,0.0,0.0,0.0,0.0,0.0,0.0,0.0,0.0,0.0,0.0,0.0,0.0,0.0,0.0,0.0,0.0,0.0,0.0,0.0,0.0,0.0,0.0,0.0,0.0,0.0,0.0,0.0,0.0,0.0,-0.9478,-0.9484,0.0,0.0,0.0,0.0,-0.9832,-1.0152,-1.0335,-1.0593,-1.1109,-1.1516,-1.1774,-1.2113,-1.2379,-1.2644,-1.2922,-1.2616,-1.1728,-1.2901,-1.303,-1.2188,-1.3132,-1.3513,-1.3513,-1.3411,-1.3405,-1.3243,-1.0857,-0.9805,-0.9785,-0.9572,-0.9409,-0.9409,-0.9409,-0.9337,-0.9375,-0.9668,-0.9533,-0.9409,-0.9604,-0.9533,-0.9442,-1.0256,-1.0004,0.0,0.0,-0.9418,-0.9661,-1.0428,-1.0992,-1.1467,-1.2399,-1.2876,-1.3186,-1.3186,-1.3173,-1.2993,-1.2337,-1.2077,-1.1929,-1.1855,0.0,-1.1789,-1.2317,-1.2433,-1.2601,-1.3048,-1.3166,-1.316,-1.316,-1.316,-1.316,-1.316,-1.316,-1.316,-1.316,-1.316,-1.3173,-1.3186,-1.3186,-1.332,-1.3532,-1.3353,0.0,0.0,0.0,0.0,0.0,0.0,0.0,0.0,0.0,0.0,0.0,0.0,0.0,0.0,0.0,0.0,0.0,0.0,0.0,0.0,0.0,0.0,0.0,0.0,0.0,0.0,0.0,0.0,-0.9964,-1.0351,0.0,-1.0556,-1.0556,-1.0665,-1.0942,-1.1051,-1.1292,-1.1721,-1.2089,-1.2415,-1.2687,-1.2952,-1.3212,-1.3471,-1.358,-1.3522,-1.3397,-1.3778,-1.3826,-1.3531,-1.3826,-1.4014,-1.4014,-1.4014,-1.4014,-1.389,-1.2877,-1.2243,-1.1927,-1.1674,-1.1231,-1.081,-1.081,-1.0474,-1.0178,-1.0256,-1.0323,-1.026,-1.0058,-0.9942,-1.0025,-1.072,-1.0653,-1.04,-1.1128,-1.1305,-1.1387,-1.1881,-1.2465,-1.301,-1.3265,-1.352,-1.3721,-1.3527,-1.3347,-1.3146,-1.2926,-1.2809,-1.2809,-1.2809,-1.2731,-1.2693,-1.2961,-1.2975,-1.3014,-1.32,-1.3213,-1.3213,-1.3213,-1.3213,-1.3213,-1.3213,-1.3213,-1.3213,-1.3213,-1.3213,-1.3293,-1.348,-1.3487,-1.3627,-1.3928,-1.3828,-1.3734,0.0,0.0,0.0,0.0,0.0,0.0,0.0,0.0,0.0,0.0,0.0,0.0,0.0,0.0,0.0,0.0,0.0,0.0,0.0,0.0,0.0,0.0,0.0,0.0,0.0,0.0,-1.0402,-1.0767,-1.1123,-1.1383,-1.1383,-1.1383,-1.1498,-1.1775,-1.1878,-1.2119,-1.2566,-1.2916,-1.3194,-1.3381,-1.364,-1.3863,-1.4039,-1.4039,-1.4123,-1.4298,-1.4298,-1.4298,-1.4298,-1.4298,-1.4298,-1.4298,-1.4298,-1.4298,-1.4286,-1.4111,-1.3833,-1.3483,-1.3121,-1.2621,-1.2178,-1.2178,-1.1927,-1.1521,-1.1521,-1.1582,-1.1713,-1.1332,-1.1154,-1.1239,-1.1605,-1.1612,-1.1683,-1.2445,-1.2776,-1.2931,-1.3184,-1.363,-1.403,-1.4024,-1.413,-1.4182,-1.3981,-1.3714,-1.3507,-1.3507,-1.3347,-1.3213,-1.3213,-1.3213,-1.324,-1.334,-1.3353,-1.3394,-1.3494,-1.3507,-1.3507,-1.3507,-1.3507,-1.3507,-1.3507,-1.3507,-1.3507,-1.3507,-1.3507,-1.3594,-1.3781,-1.3794,-1.3888,-1.4082,-1.4419,-1.4559,-1.4671,0.0,0.0,0.0,0.0,0.0,0.0,0.0,0.0,0.0,0.0,0.0,0.0,0.0,0.0,0.0,0.0,0.0,0.0,0.0,0.0,0.0,0.0,0.0,-1.0943,-1.1018,-1.1267,-1.1902,-1.197,-1.1974,-1.1968,-1.1968,-1.2083,-1.2343,-1.2602,-1.2868,-1.3145,-1.364,-1.3918,-1.3918,-1.4165,-1.4298,-1.4298,-1.4298,-1.4298,-1.4298,-1.4298,-1.4298,-1.4298,-1.4298,-1.4298,-1.4298,-1.4298,-1.4298,-1.4298,-1.4298,-1.4298,-1.425,-1.3737,-1.3538,-1.3538,-1.3538,-1.3538,-1.3538,-1.3538,-1.3707,-1.3876,-1.361,-1.3357,-1.3145,-1.3145,-1.3145,-1.3221,-1.3485,-1.3678,-1.3973,-1.4231,-1.4508,-1.4604,-1.4591,-1.4566,-1.4543,-1.4522,-1.4302,-1.4095,-1.4088,-1.3627,-1.324,-1.324,-1.324,-1.3333,-1.3614,-1.3661,0.0,-1.4048,-1.4095,-1.4102,-1.4102,-1.4108,-1.4108,-1.4102,-1.4102,-1.4095,-1.4088,-1.4088,-1.4088,-1.4088,-1.4173,-1.4173,-1.4186,-1.4999,-1.5906,-1.673,0.0,0.0,0.0,0.0,0.0,0.0,0.0,0.0,0.0,0.0,0.0,0.0,0.0,0.0,0.0,0.0,0.0,0.0,0.0,0.0,0.0,0.0,-1.1799,-1.1569,-1.2082,-1.2493,-1.2762,-1.3145,-1.3254,-1.3079,-1.3079,-1.3188,-1.3447,-1.3538,-1.3694,-1.396,-1.4111,-1.4189,-1.4189,-1.4256,-1.4298,-1.4298,-1.4298,-1.4298,-1.4298,-1.4298,-1.4298,-1.4298,-1.4298,-1.4298,-1.4298,-1.4298,-1.4298,-1.4298,-1.4298,-1.4298,-1.4286,-1.4135,-1.4081,-1.4081,-1.4081,-1.4081,-1.4081,-1.4081,-1.4129,-1.4147,-1.3882,-1.3749,-1.3688,-1.3688,-1.3653,-1.3724,-1.4006,-1.4242,-1.4411,-1.4501,-1.4838,-1.5126,-1.492,-1.5057,-1.5037,-1.4609,-1.4456,-1.4342,-1.4128,-1.3955,-1.3848,-1.3848,-1.3848,-1.3874,-1.3955,-1.3968,-1.3995,-1.4075,-1.4269,-1.4402,-1.4402,-1.4596,-1.4636,-1.4422,-1.4402,-1.4309,-1.4102,-1.4088,-1.4088,-1.4088,-1.4741,-1.5504,-1.6392,-1.6653,-1.703,0.0,0.0,0.0,0.0,0.0,0.0,0.0,0.0,0.0,0.0,0.0,0.0,0.0,0.0,0.0,0.0,0.0,0.0,0.0,0.0,0.0,0.0,-1.2736,-1.2982,-1.3146,-1.3341,-1.356,-1.3868,-1.4229,-1.4322,-1.4223,-1.413,-1.4192,-1.4251,-1.4264,-1.4236,-1.4286,-1.4298,-1.4298,-1.4298,-1.4298,-1.4298,-1.4298,-1.4298,-1.4298,-1.4298,-1.4298,-1.4298,-1.4298,-1.4298,-1.4298,-1.4298,-1.4298,-1.4298,-1.4298,-1.4298,-1.4298,-1.4298,0.0,0.0,0.0,0.0,-1.4298,-1.4298,-1.4298,-1.4298,-1.4268,-1.4117,-1.409,-1.4098,-1.4098,-1.4173,-1.4264,-1.452,-1.4804,-1.5042,-1.5042,-1.5352,-1.5531,-1.5364,-1.5364,-1.5304,-1.4963,-1.479,-1.4656,-1.4489,-1.4355,0.0,-1.4436,-1.4249,-1.4088,-1.4088,-1.4195,-1.4269,-1.4269,-1.4529,-1.4703,-1.4703,-1.4863,-1.4897,-1.4723,-1.5041,0.0,0.0,0.0,-1.5718,-1.5718,-1.6222,0.0,0.0,0.0,-1.8396,-1.8965,-1.9204,0.0,0.0,-1.8658,-1.8675,0.0,0.0,0.0,0.0,0.0,0.0,0.0,0.0,0.0,0.0,0.0,0.0,0.0,0.0,0.0,0.0,-1.3647,-1.4442,-1.503,-1.4724,-1.4565,-1.5008,-1.5113,-1.5178,-1.5083,-1.5083,-1.4981,-1.4783,-1.479,-1.4592,-1.4394,-1.4394,0.0,0.0,0.0,-1.4328,-1.4389,-1.4328,-1.4316,-1.4346,-1.431,-1.4298,-1.4298,-1.4298,-1.4298,-1.4298,-1.4298,-1.4298,-1.4298,-1.4298,-1.4298,-1.4298,-1.4298,-1.4298,-1.4298,-1.4298,-1.4298,-1.4298,-1.4298,0.0,0.0,-1.4394,-1.4337,-1.4428,-1.4428,-1.4608,-1.4875,-1.5067,-1.5343,-1.554,-1.5737,-1.5832,-1.5832,-1.5832,-1.5631,-1.5438,-1.5404,-1.5197,-1.5003,-1.497,-1.475,-1.4656,-1.4917,-1.4502,-1.4148,-1.4182,-1.4402,-1.4569,-1.4569,-1.483,-1.5017,-1.5017,-1.5044,0.0,-1.5017,-1.5878,-1.6463,-1.6426,-1.7303,-1.7921,-1.8008,-1.8008,-1.8465,-1.9367,-1.9367,-1.983,-2.0659,-2.1007,-2.1181,-2.1085,-1.9245,-1.9178,0.0,0.0,0.0,0.0,0.0,0.0,0.0,0.0,0.0,0.0,0.0,0.0,0.0,0.0,0.0,-1.3694,-1.4569,-1.5351,-1.5939,-1.6172,-1.6049,-1.5501,-1.5412,-1.5356,-1.5083,-1.5083,-1.5083,-1.4987,-1.4987,-1.4885,-1.4592,-1.4592,-1.46,-1.463,-1.4419,-1.4509,-1.4944,-1.4515,-1.4413,-1.463,-1.4407,0.0,-1.4298,-1.4298,-1.4298,-1.4298,-1.4298,-1.4298,-1.4298,-1.4298,-1.4298,-1.4298,-1.4298,-1.4298,-1.4298,-1.4298,-1.4298,-1.4298,-1.4298,-1.4394,-1.4592,-1.4592,-1.4752,-1.4905,-1.4905,-1.5089,0.0,-1.5367,-1.5596,-1.5737,-1.5825,-1.5832,-1.5832,-1.5832,-1.5785,-1.5678,-1.5444,-1.5351,-1.5244,-1.501,-1.4917,-1.4897,-1.495,-1.4669,-1.4516,-1.4756,-1.4843,-1.4877,-1.4877,-1.513,-1.5311,-1.5311,-1.5524,-1.5565,-1.5331,-1.6196,-1.6705,-1.6441,-1.7303,-1.8181,-1.8965,-1.8965,-1.954,-2.0721,-2.073,-2.098,-2.1502,-2.1575,-2.1612,-2.1612,-2.1175,-2.1139,0.0,0.0,0.0,0.0,0.0,0.0,0.0,0.0,0.0,0.0,0.0,-1.4678,0.0,0.0,-1.4441,-1.4704,-1.5357,-1.5985,-1.6426,-1.6613,-1.6593,-1.6104,-1.5945,-1.586,-1.5673,-1.5543,-1.5458,-1.5267,-1.5267,-1.5172,-1.4885,-1.5017,-1.5058,-1.5103,-1.5103,-1.5227,-1.5297,-1.5028,-1.4862,-1.4908,-1.4636,-1.4509,-1.4503,-1.4358,-1.4298,-1.4298,-1.4298,-1.4298,-1.4298,-1.4298,-1.4298,-1.4298,-1.4298,-1.4298,-1.4298,-1.4298,-1.4394,-1.4496,-1.4496,-1.4694,-1.4885,-1.4885,-1.5077,-1.5267,-1.5267,-1.5452,-1.5635,-1.5635,-1.5737,-1.5832,-1.5832,-1.5832,-1.5832,-1.5832,-1.5832,-1.5792,-1.5645,-1.5611,-1.5571,-1.5424,-1.5284,-1.5224,-1.5371,-1.515,-1.4957,-1.4963,-1.5084,-1.5177,-1.5177,-1.5431,-1.5611,-1.5611,-1.6209,-1.6518,-1.6364,-1.7705,-1.8709,-1.9074,-1.9516,-1.9974,-2.0412,-2.0412,-2.0772,-2.142,-2.142,-2.153,-2.1741,-2.1741,-2.1741,-2.1741,-2.1741,-2.1741,0.0,0.0,0.0,0.0,0.0,0.0,0.0,0.0,-1.595,-1.5221,-1.6066,-1.6345,-1.4438,-1.5295,-1.6183,-1.5737,-1.6099,-1.6547,-1.6834,-1.6827,-1.6794,-1.6794,-1.648,-1.6253,-1.6192,-1.5972,-1.573,-1.554,-1.5599,-1.551,-1.5178,-1.5492,-1.5678,-1.5573,-1.5895,-1.5859,-1.575,-1.565,-1.5531,-1.5281,-1.4965,-1.4813,-1.4801,-1.4522,-1.4394,-1.449,-1.449,-1.449,-1.449,-1.449,-1.449,-1.449,-1.449,-1.449,-1.449,-1.4394,-1.4496,-1.4694,-1.479,-1.4981,-1.5172,-1.5172,-1.5356,-1.554,-1.554,-1.5635,-1.5832,-1.5832,-1.5832,-1.5832,-1.5832,-1.5832,-1.5832,-1.5832,-1.5832,-1.5832,-1.5832,-1.5832,-1.5832,-1.5832,-1.5645,-1.5558,-1.5792,-1.5631,-1.5398,-1.5164,-1.5331,-1.5478,-1.5478,-1.5685,-1.5825,-1.6109,-1.6669,-1.7138,-1.7606,-1.9247,-2.0718,-2.1642,-2.1741,-2.1741,-2.1741,-2.1741,-2.1741,-2.1741,-2.1741,-2.1741,-2.1741,-2.1741,-2.1741,-2.1741,-2.1741,-2.1741,-1.6332,-1.543,-1.4648,-1.4946,-1.5294,-1.5854,0.0,0.0,-1.7989,-1.8574,-1.8603,-1.8277,-1.7274,-1.7228,-1.7182,-1.6657,-1.6834,-1.7154,-1.7442,-1.7261,-1.7101,-1.7101,-1.6607,-1.6166,-1.5905,-1.5845,-1.5825,-1.5737,-1.6072,-1.6009,-1.5465,-1.5973,-1.6066,-1.5859,-1.5998,-1.6151,-1.6529,-1.6158,-1.5941,-1.5768,-1.5345,-1.5091,-1.5084,-1.4812,-1.479,-1.4987,-1.4987,-1.4987,-1.4987,-1.4987,-1.4987,-1.4987,-1.4987,-1.4987,-1.4987,-1.479,-1.4688,-1.4688,-1.4981,-1.5267,-1.5445,-1.5445,-1.5635,-1.5737,-1.5737,-1.5737,-1.5832,-1.5832,-1.5832,-1.5832,-1.5832,-1.5832,-1.5832,-1.5832,-1.5832,-1.5832,-1.5832,-1.5832,-1.5832,-1.5832,-1.5805,-1.5792,-1.5818,-1.5805,-1.5772,-1.5738,-1.5758,-1.5785,-1.5785,-1.5805,-1.6109,-1.7052,-1.6393,-1.6662,-1.8511,-1.9704,-2.0718,-2.1642,-2.1741,-2.1741,-2.1741,-2.1741,-2.1741,-2.1741,-2.1741,-2.1741,-2.1741,-2.1741,-2.1741,-2.1741,-2.1741,-2.1741,-1.6218,-1.5781,-1.567,0.0,-1.6285,-1.7055,-1.8265,-1.8871,-1.9234,-1.9507,-2.025,-2.0385,-1.9001,-1.8949,-1.8822,0.0,-1.7613,-1.7382,-1.7335,-1.7228,-1.6961,-1.644,-1.6313,-1.6226,-1.6099,-1.5925,-1.5832,-1.5832,-1.5945,-1.6032,-1.5989,-1.6228,-1.6335,-1.64,-1.6577,-1.6677,-1.6703,-1.6749,-1.6567,-1.6354,-1.5959,-1.5771,-1.5758,-1.5588,-1.5566,-1.5671,-1.5671,-1.5477,-1.5325,-1.5325,-1.5229,-1.5083,-1.5083,-1.5083,-1.5083,-1.4981,-1.507,-1.5166,-1.5261,-1.5452,-1.5635,-1.5635,-1.573,-1.5832,-1.5832,-1.5832,-1.5832,-1.5832,-1.5832,-1.5832,-1.5832,-1.5832,-1.5832,-1.5832,-1.5832,-1.5832,-1.5832,-1.5832,-1.5832,-1.5832,-1.5832,-1.5832,-1.5832,-1.5832,-1.5832,-1.5832,-1.5832,-1.5832,-1.5832,-1.6298,-1.7318,-1.888,-1.8696,-1.8964,-2.0357,-2.0898,-2.1275,-2.1651,-2.1741,-2.1741,-2.1741,-2.1741,-2.1741,-2.1741,-2.1741,-2.1741,-2.1741,-2.1741,-2.1741,-2.1741,-2.1741,-2.1741,-1.6458,0.0,0.0,-1.6858,-1.7578,-1.8485,-1.9696,-2.0292,-2.058,-2.0519,-2.1545,-2.1901,-2.0193,-2.0087,-1.9904,-1.9215,-1.8316,-1.7778,-1.7855,-1.7486,-1.6936,-1.6279,-1.6252,-1.6218,-1.6025,-1.5905,-1.5832,-1.5832,-1.5979,-1.6132,-1.6266,-1.65,-1.6693,-1.682,-1.7114,-1.7164,-1.6964,-1.7174,-1.7166,-1.6836,-1.6561,-1.6426,-1.6413,-1.624,-1.6218,-1.6218,-1.6218,-1.6095,-1.5802,-1.5725,-1.5765,-1.5856,-1.577,-1.5737,-1.5737,-1.5737,-1.5642,-1.554,-1.554,-1.5635,-1.5832,-1.5832,-1.5885,-1.5939,-1.5852,-1.5885,-1.5932,-1.5852,-1.5832,-1.5832,-1.5832,-1.5832,-1.5832,-1.5832,-1.5832,-1.5832,-1.5832,-1.5832,-1.5832,-1.5832,-1.5832,-1.592,-1.6204,-1.6204,-1.6298,-1.6567,-1.6662,-1.6574,-1.6204,-1.7318,-1.8603,-1.9795,-2.0348,-2.0898,-2.1275,-2.1553,-2.1741,-2.1741,-2.1741,-2.1741,-2.1741,-2.1731,-2.183,-2.183,-2.182,-2.1909,-2.1909,-2.1909,-2.1909,-2.1909,-2.1909,-2.1909,0.0,0.0,-1.6679,-1.8247,-1.9256,-2.0173,-2.1383,-2.197,-2.2263,-2.219,-2.2537,-2.242,-2.0967,-2.0156,-1.9731,-1.965,-1.8792,-1.8503,-1.9462,-1.8323,-1.7268,-1.7239,-1.6686,-1.6081,0.0,-1.5671,-1.5832,-1.5832,-1.6359,-1.656,-1.6286,-1.7081,-1.7415,-1.7148,-1.7415,-1.7569,-1.7569,-1.7575,-1.7483,-1.7173,-1.6892,-1.6749,-1.6736,-1.6645,-1.6707,-1.6707,-1.6707,-1.67,-1.6667,-1.6386,-1.6843,-1.7676,-1.7356,-1.7232,-1.7232,-1.7232,-1.648,-1.554,-1.5737,-1.5825,-1.5832,-1.5832,-1.6025,-1.6206,-1.5919,-1.6032,-1.6199,-1.5912,-1.5832,-1.5832,-1.5832,-1.5832,-1.5832,-1.5832,-1.5832,-1.5832,-1.5832,-1.5832,-1.5832,-1.5832,-1.5832,-1.6109,-1.7052,-1.7232,-1.7598,-1.8519,-1.8696,-1.8334,-1.7419,-1.8972,-1.9886,-1.8972,-2.0538,-2.1275,-2.0439,-2.1177,-2.1741,-2.1741,-2.1741,-2.1741,-2.1741,-2.1919,-2.2097,-2.2097,-2.2264,-2.2353,-2.2353,-2.2353,-2.2353,-2.2353,-2.2353,-2.2353,-1.809,0.0,-1.8907,-1.9714,-2.0723,-2.1768,-2.2722,-2.2832,-2.2729,-2.3079,-2.2612,-2.1917,-2.1491,-2.0434,-1.9696,-1.9944,-1.9336,-1.892,-1.9288,-1.8902,-1.8403,-1.8047,-1.7985,0.0,0.0,0.0,0.0,-1.5812,-1.6856,-1.7232,-1.6553,-1.7538,-1.7848,-1.725,-1.7241,-1.7295,-1.7295,-1.7482,-1.7582,-1.7477,-1.7384,-1.7337,-1.733,-1.7335,-1.7695,-1.8401,-1.8401,-1.8687,-1.9077,-1.8282,-1.8016,-1.8116,-1.7225,-1.6897,-1.6876,-1.667,-1.6409,-1.5996,-1.5899,-1.5832,-1.5865,-1.6059,-1.6192,-1.6293,-1.638,-1.6828,-1.7312,-1.7206,-1.7486,-1.7684,-1.6951,-1.6763,-1.6676,-1.592,-1.5832,-1.5832,-1.5832,-1.6298,-1.6763,-1.6763,-1.7318,-1.7863,-1.8241,-1.8334,-1.8611,-1.9613,-1.9247,-1.888,-1.9247,-1.9886,-2.0439,-2.0718,-2.1275,-2.1553,-2.1275,-2.1553,-2.1741,-2.1741,-2.183,-2.2008,-2.2008,-2.2176,-2.2264,-2.2264,-2.2353,-2.2441,-2.2441,-2.2441,-2.2441,-2.2441,-2.2441,-2.2441,-1.9064,-1.9678,-2.0338,-2.1181,-2.208,-2.2896,-2.3419,-2.314,-2.2811,-2.2712,-2.1942,-2.1209,-2.0924,-1.978,-1.9135,-1.9861,-1.941,-1.9109,-1.9812,-1.9463,-1.9076,-1.8831,-1.8889,-1.8555,0.0,0.0,0.0,-1.6365,-1.7713,-1.8334,-1.7867,-1.8788,-1.9018,-1.8518,-1.8525,-1.8525,-1.8525,-1.8719,-1.861,-1.8199,-1.8199,-1.8199,-1.8199,-1.8617,-1.9066,-1.9558,-1.9558,-1.9852,-2.0329,-1.9292,-1.8943,-1.8837,-1.8208,-1.7894,-1.7681,-1.7867,-1.7778,-1.7545,-1.6847,-1.6552,-1.6696,-1.7383,-1.7659,-1.7767,-1.786,-1.8316,-1.8709,-1.8588,-1.8583,-1.8573,-1.8176,-1.7777,-1.7377,-1.6972,-1.685,-1.685,-1.685,-1.7412,-1.7878,-1.7878,-1.8334,-1.888,-1.9247,-1.9613,-2.0076,-2.0718,-2.0348,-2.0167,-2.0718,-2.0808,-2.0997,-2.1642,-2.183,-2.183,-2.183,-2.1909,-2.1909,-2.1909,-2.2097,-2.2185,-2.2185,-2.2441,-2.253,-2.253,-2.2608,-2.2618,-2.2618,-2.2618,-2.2618,-2.2618,-2.2618,-2.2618,-2.0119,-2.0508,-2.1044,-2.251,-2.3263,-2.3538,-2.3519,-2.3171,-2.252,-2.1319,-2.0714,-2.0154,0.0,0.0,-1.8244,-1.9661,-1.9076,-1.9097,-2.0853,-2.011,-1.9506,0.0,0.0,0.0,0.0,0.0,0.0,-1.7628,-1.8969,-1.9917,-1.9836,-2.0604,-2.0987,-2.0885,-2.0885,-2.0885,-2.0885,-2.0885,-2.0364,-1.9332,-1.9332,-1.9332,-1.9332,-2.0364,-2.0694,-2.0369,-2.0369,-2.0468,-2.0412,-1.9654,-1.9566,-1.9966,-2.0264,-2.0012,-1.9541,-2.0508,-2.0545,-1.982,-1.8527,-1.8023,-1.8252,-1.9539,-2.0173,-2.0396,-2.0085,-2.0213,-2.0388,-2.0159,-1.9365,-1.8792,-1.932,-1.8773,-1.814,-1.8737,-1.8835,-1.8819,-1.8819,-1.8912,-1.8912,-1.8912,-1.8912,-1.9271,-2.0283,-2.1105,-2.1741,-2.1741,-2.1919,-2.2008,-2.1731,-2.1731,-2.1741,-2.1741,-2.1919,-2.2097,-2.2097,-2.2264,-2.2441,-2.2441,-2.2432,-2.2441,-2.2441,-2.2706,-2.2803,-2.2803,-2.2969,-2.3135,-2.3135,-2.3135,-2.3135,-2.3135,-2.3164,-2.3164,-2.1699,-2.2306,-2.2868,-2.329,-2.3464,-2.3464,-2.3076,-2.2309,-2.141,-2.0796,-1.9641,-1.8669,0.0,0.0,0.0,-1.9268,-1.9716,0.0,-2.1368,-2.1307,0.0,-2.1599,0.0,-2.1281,-2.0729,-2.1529,0.0,0.0,-2.0791,-2.0823,-2.0301,-2.1453,-2.1709,-2.0885,-2.0885,-2.0885,-2.0885,-2.0885,-2.0783,-2.0467,-2.0467,-2.0467,-2.0467,-2.0783,-2.1245,-2.1971,-2.1971,-2.2372,-2.3161,-2.2068,-2.1568,-2.131,-2.0908,-2.0432,-2.0075,-2.0385,-2.0442,-2.0408,-2.09,-2.0305,-1.9532,-1.9797,-2.0059,-2.0384,-2.0668,-2.1096,-2.1526,-2.1433,-2.1602,-2.1666,-2.1077,-2.0757,-2.0454,-1.979,-1.9462,-1.9263,-1.9263,-1.9832,-2.0315,-2.0315,-2.0963,-2.1514,-2.1798,-2.1744,-2.1741,-2.2008,-2.2097,-2.2097,-2.2008,-2.2087,-2.2264,-2.2264,-2.2264,-2.2353,-2.2353,-2.2353,-2.2441,-2.2441,-2.2618,-2.2706,-2.2706,-2.2882,-2.3057,-2.3057,-2.3057,-2.3135,-2.3135,-2.3135,-2.3135,-2.3144,-2.3467,-2.3447,-2.2698,-2.327,-2.3643,-2.3547,-2.3419,-2.3088,-2.2318,-2.1337,-2.0374,-1.9622,-1.8467,0.0,-1.7587,-1.7587,0.0,0.0,0.0,0.0,-2.1319,-2.1621,-2.1878,0.0,-2.2492,0.0,-2.215,-2.2564,-2.2731,0.0,-2.2416,-2.2215,-2.1739,-2.2719,-2.2929,-2.2417,-2.2316,-2.2316,-2.2316,-2.181,-2.1599,-2.1599,-2.1599,-2.1599,-2.1599,-2.2114,-2.2533,-2.2982,-2.2982,-2.3287,-2.3868,-2.3001,-2.2397,-2.1944,-2.1807,-2.1494,-2.1139,-2.1542,-2.1849,-2.2175,-2.2593,-2.2319,-2.1786,-2.1769,-2.1914,-2.2136,-2.2248,-2.2564,-2.2902,-2.2902,-2.285,-2.2646,-2.2469,-2.2022,-2.1593,-2.1335,-2.113,-2.0977,-2.0977,-2.1362,-2.1755,-2.1755,-2.2231,-2.2602,-2.2602,-2.2502,-2.2436,-2.2628,-2.265,-2.2626,-2.2626,-2.2555,-2.2441,-2.2441,-2.253,-2.2618,-2.2618,-2.2618,-2.2696,-2.2696,-2.2882,-2.3057,-2.3241,-2.3339,-2.3506,-2.3701,-2.3701,-2.3701,-2.3701,-2.3701,-2.3701,-2.3711,-2.3955,-2.3935,-2.3455,-2.3727,-2.3975,-2.3662,-2.3162,-2.2483,-2.1291,-2.0338,-1.9375,-1.8265,0.0,-1.6908,-1.6908,-1.6945,-1.7367,-1.8522,0.0,-1.9787,-2.0943,-2.1475,-2.1906,-2.2355,-2.2731,-2.2902,-2.3098,-2.3116,-2.3253,-2.3602,-2.362,-2.362,-2.362,-2.396,-2.4152,-2.4152,-2.4207,-2.4207,-2.4152,-2.3238,-2.2728,-2.2728,-2.2728,-2.2728,-2.2728,-2.3746,-2.396,-2.362,-2.362,-2.362,-2.3602,-2.3253,-2.2784,-2.231,-2.2835,-2.2793,-2.2345,-2.3302,-2.3849,-2.4106,-2.3749,-2.3859,-2.4143,-2.4088,-2.4106,-2.4152,-2.4152,-2.4152,-2.4152,-2.4152,-2.3447,-2.2859,-2.342,-2.2921,-2.2336,-2.2903,-2.2975,-2.2939,-2.2939,-2.2939,-2.3043,-2.3098,-2.307,-2.3033,-2.3033,-2.3251,-2.3392,-2.3392,-2.3461,-2.3505,-2.3496,-2.2904,-2.253,-2.253,-2.2706,-2.2794,-2.2794,-2.2969,-2.3135,-2.3135,-2.3193,-2.3398,-2.3769,-2.3838,-2.4043,-2.4414,-2.4414,-2.4414,-2.4414,-2.4414,-2.4414,-2.4414,-2.4473,-2.4473,-2.4629,-2.4664,-2.4781,-2.4003,-2.2833,-2.1713,-2.0824,-1.9485,0.0,0.0,-1.7229,-1.6908,-1.6908,-1.7174,-1.7688,-1.8568,0.0,0.0,0.0,0.0,-2.2016,0.0,0.0,-2.3217,-2.3877,-2.3941,0.0,0.0,-2.4051,-2.4051,-2.4051,-2.4115,-2.4152,-2.4152,-2.4491,-2.451,-2.4161,-2.4044,-2.3945,-2.3945,-2.3945,-2.3945,-2.3945,-2.4152,-2.4115,-2.4051,-2.4051,-2.4051,-2.4042,-2.3969,-2.3688,-2.3266,-2.384,-2.3678,-2.3284,-2.3923,-2.4088,-2.4143,-2.407,-2.4088,-2.4097,-2.3758,-2.3877,-2.4152,-2.4152,-2.4152,-2.4152,-2.4152,-2.4053,-2.3935,-2.407,-2.3943,-2.3826,-2.396,-2.3684,-2.3446,-2.3446,-2.3446,-2.3538,-2.3877,-2.3869,-2.3734,-2.3734,-2.3626,-2.3682,-2.3961,-2.3996,-2.404,-2.4215,-2.3534,-2.296,-2.296,-2.3057,-2.3047,-2.3047,-2.3047,-2.3135,-2.3135,-2.3477,-2.3711,-2.3789,-2.4121,-2.4346,-2.4414,-2.4414,-2.4414,-2.4414,-2.4414,-2.4414,-2.4424,-2.4785,-2.4756,-2.5256,-2.5299,-2.531,-2.3954,-2.2583,-2.1318,-2.0118,0.0,0.0,0.0,-1.6872,-1.6661,-1.6872,0.0,0.0,0.0,0.0,0.0,0.0,0.0,0.0,0.0,0.0,-2.3492,0.0,-2.4152,-2.4152,-2.4152,-2.4152,-2.4152,-2.4152,-2.4152,-2.4345,-2.4776,-2.4574,-2.4464,-2.4482,-2.4262,-2.4152,-2.4152,-2.4152,-2.4152,-2.4152,-2.4152,-2.4152,-2.4152,-2.4152,-2.4152,-2.4152,-2.4152,-2.4033,-2.3877,-2.4079,-2.4033,-2.3886,-2.4079,-2.4152,-2.4152,-2.4152,-2.4152,-2.4115,-2.3923,-2.3996,-2.4152,-2.4152,-2.4152,-2.4152,-2.4152,-2.4152,-2.4152,-2.4152,-2.4152,-2.4152,-2.4152,-2.4005,-2.3859,-2.3859,-2.3956,-2.411,-2.4304,-2.438,-2.4444,-2.4444,-2.4468,-2.4622,-2.4727,-2.4629,-2.4672,-2.4756,-2.4199,-2.3799,-2.3799,-2.3799,-2.3799,-2.3799,-2.3799,-2.3799,-2.3799,-2.4004,-2.4219,-2.4443,-2.4648,-2.4863,-2.5098,-2.5107,-2.5107,-2.5107,-2.5107,-2.5107,-2.5107,-2.5322,-2.5303,-2.5777,-2.577,-2.566,-2.4164,-2.257,-2.1119,-1.9719,-1.8452,0.0,0.0,-1.6729,-1.66,-1.6913,0.0,-1.7147,0.0,0.0,0.0,0.0,0.0,0.0,0.0,0.0,0.0,-2.4115,-2.4152,0.0,-2.4152,-2.4152,-2.4198,-2.428,-2.429,-2.4583,-2.5225,-2.462,-2.4409,-2.4647,-2.4317,-2.4152,-2.4152,-2.4152,-2.4152,-2.4152,-2.4152,-2.4152,-2.4152,-2.4152,-2.4152,-2.4152,-2.4152,-2.4152,-2.4152,-2.4152,-2.4152,-2.4152,-2.4152,-2.4152,-2.4152,-2.4152,-2.4152,-2.4152,-2.4152,-2.4152,-2.4152,-2.4152,-2.4152,-2.4152,-2.4152,-2.4152,-2.4152,-2.4152,-2.4152,-2.4251,-2.4242,-2.435,-2.435,-2.435,-2.444,-2.4637,-2.4637,-2.4833,-2.5039,-2.5039,-2.5235,-2.544,-2.544,-2.5333,-2.5215,-2.5215,-2.4912,-2.4697,-2.4697,-2.4531,-2.4414,-2.4414,-2.4414,-2.4414,-2.4414,-2.4502,-2.4717,-2.5059,-2.5166,-2.5371,-2.5732,-2.5742,-2.5742,-2.5742,-2.5742,-2.5742,-2.5742,-2.5742,-2.5742,-2.6775,-2.6294,-2.5857,-2.545,-2.3299,-2.1012,-2.0159,0.0,0.0,-1.748,-1.7285,-1.7129,-1.7166,-1.7038,-1.7046,0.0,0.0,-1.8467,0.0,0.0,0.0,0.0,0.0,0.0,-2.4115,-2.4152,-2.4152,-2.4152,-2.4152,-2.4317,-2.4702,-2.4721,-2.4757,-2.4831,-2.4757,-2.4556,-2.4216,-2.417,-2.4152,-2.4152,-2.4152,-2.4152,-2.4152,-2.4152,-2.4152,-2.4152,-2.4152,-2.4152,-2.4152,-2.4152,-2.4152,-2.4152,-2.4152,-2.4152,-2.4152,-2.4152,-2.4152,-2.4152,-2.4152,-2.4152,-2.4152,-2.4152,-2.4152,-2.4152,-2.4152,-2.4152,-2.4152,-2.4152,-2.4152,-2.4152,-2.4152,-2.4152,-2.4251,-2.444,-2.4637,-2.4843,-2.4843,-2.4833,-2.4833,-2.4833,-2.5039,-2.5235,-2.5235,-2.5538,-2.5635,-2.5635,-2.5606,-2.5674,-2.5674,-2.5644,-2.5615,-2.5615,-2.4902,-2.4414,-2.4414,-2.4414,-2.4414,-2.4414,-2.4785,-2.5029,-2.5068,-2.5459,-2.5693,-2.5742,-2.5742,-2.5742,-2.5742,-2.5742,-2.5742,-2.5742,-2.5742,-2.5742,-2.75,-2.7076,-2.6481,-2.5411,-2.3047,-2.0757,-1.9771,0.0,-1.747,-1.747,-1.7461,-1.7307,-1.6994,-1.6812,-1.6791,0.0,0.0,0.0,0.0,0.0,0.0,0.0,0.0,0.0,0.0,0.0,-2.4152,-2.4152,-2.439,-2.4711,-2.5115,-2.4913,-2.4886,-2.5133,-2.4904,-2.4702,-2.4537,-2.428,-2.4152,-2.4152,-2.4152,-2.4152,-2.4152,-2.4152,-2.4152,-2.4152,-2.4152,-2.4152,-2.4152,-2.4152,-2.4152,-2.4152,-2.4152,-2.4152,-2.4152,-2.4152,-2.4152,-2.4152,-2.4152,-2.4152,-2.4152,-2.4152,-2.4152,-2.4152,-2.4152,-2.4152,-2.4152,-2.4152,-2.4152,-2.4251,-2.4341,-2.4725,-2.4955,-2.4792,-2.5032,-2.531,-2.531,-2.522,-2.5214,-2.5471,-2.5516,-2.5538,-2.5538,-2.5635,-2.5742,-2.5742,-2.5742,-2.5742,-2.5742,-2.5742,-2.5742,-2.5742,-2.542,-2.5205,-2.5205,-2.5205,-2.5205,-2.5205,-2.5371,-2.5469,-2.5469,-2.5644,-2.5742,-2.5742,-2.5742,-2.5742,-2.5742,-2.5742,-2.5742,-2.5742,-2.5742,-2.5742,-2.73,-2.704,-2.633,-2.5487,-2.3119,-2.0748,0.0,0.0,-1.7676,-1.7676,-1.7598,-1.7434,-1.714,-1.6958,-1.6824,0.0,0.0,-1.7033,0.0,0.0,0.0,0.0,0.0,-2.2896,0.0,-2.4198,-2.4335,-2.4335,-2.4721,-2.5078,-2.5353,-2.5216,-2.5262,-2.5537,-2.5051,-2.4785,-2.4785,-2.4363,-2.4152,-2.4152,-2.4152,-2.4152,-2.4152,-2.4152,-2.4152,-2.4152,-2.4152,-2.4152,-2.4152,-2.4152,-2.4152,-2.4152,-2.4152,-2.4152,-2.4152,-2.4152,-2.4152,-2.4152,-2.4152,-2.4152,-2.4152,-2.4152,-2.4251,-2.4251,-2.4251,-2.4433,-2.4535,-2.4535,-2.4609,-2.4802,-2.5002,-2.5418,-2.5771,-2.5477,-2.5738,-2.6049,-2.6049,-2.5823,-2.572,-2.6019,-2.5937,-2.5742,-2.5742,-2.5742,-2.5742,-2.5742,-2.5742,-2.5781,-2.5918,-2.582,-2.5781,-2.5918,-2.581,-2.5742,-2.5742,-2.5742,-2.5742,-2.5742,-2.5742,-2.5742,-2.5742,-2.5742,-2.5742,-2.5742,-2.5742,-2.5742,-2.5742,-2.5742,-2.5742,-2.5742,-2.5742,-2.5742,-2.6096,-2.5768,-2.5165,-2.5804,-2.3556,-2.1006,0.0,0.0,-1.8008,-1.8008,-1.7862,-1.7706,-1.7696,-1.7588,-1.7461,-1.7461,0.0,0.0,-1.8294,0.0,0.0,0.0,0.0,-2.3107,-2.351,-2.429,-2.4776,-2.4776,-2.5142,-2.5362,-2.5372,-2.5738,-2.5949,-2.5949,-2.5197,-2.4785,-2.4785,-2.4363,-2.4152,-2.4152,-2.4152,-2.4152,-2.4152,-2.4152,-2.4152,-2.4152,-2.4152,-2.4152,-2.4152,-2.4152,-2.4152,-2.4152,-2.4152,-2.4152,-2.4152,-2.4152,-2.4152,-2.4152,-2.4152,-2.4152,-2.4152,-2.4152,-2.4341,-2.4529,-2.4529,-2.4818,-2.5144,-2.5144,-2.5637,-2.6163,-2.6163,-2.6378,-2.6583,-2.6583,-2.6798,-2.7012,-2.7012,-2.668,-2.6387,-2.6387,-2.6035,-2.5742,-2.5742,-2.5742,-2.5742,-2.5742,-2.5742,-2.5889,-2.6328,-2.6006,-2.5908,-2.6338,-2.5996,-2.5742,-2.5742,-2.5742,-2.5742,-2.5742,-2.5742,-2.5742,-2.5742,-2.5742,-2.5742,-2.5742,-2.5742,-2.5742,-2.5742,-2.5742,-2.5742,-2.5742,-2.5742,-2.5742,-2.5335,-2.5261,-2.4848,-2.4743,-2.3023,-2.1042,-2.0012,-1.918,-1.8519,-1.8066,-1.794,-1.7755,-1.7106,-1.71,-1.714,-1.6777,-1.7149,0.0,0.0,0.0,0.0,-2.1627,-2.2953,-2.3932,0.0,0.0,-2.4473,-2.4757,-2.5142,-2.5372,-2.5372,-2.6013,-2.6133,-2.5573,-2.5317,-2.5188,-2.5188,-2.45,-2.4299,-2.4583,-2.429,-2.4152,-2.4152,-2.4152,-2.4152,-2.4152,-2.4152,-2.4152,-2.4152,-2.4152,-2.4152,-2.4152,-2.4152,-2.4152,-2.4152,-2.4152,-2.4152,-2.4152,-2.4152,-2.4152,-2.4251,-2.4341,-2.443,-2.4529,-2.4735,-2.4928,-2.5088,-2.5381,-2.5961,-2.6481,-2.6481,-2.6917,-2.7279,-2.6978,-2.7143,-2.7461,-2.7461,-2.7119,-2.6904,-2.7207,-2.6914,-2.6611,-2.6611,-2.6611,-2.6611,-2.6611,-2.6611,-2.666,-2.6797,-2.6445,-2.624,-2.6377,-2.5996,-2.5742,-2.5742,-2.5742,-2.5742,-2.5742,-2.5742,-2.5742,-2.5742,-2.5742,-2.5742,-2.5742,-2.5742,-2.5742,-2.5742,-2.5742,-2.5742,-2.5742,-2.5742,-2.5742,0.0,-2.3874,-2.3518,-2.328,-2.1976,-2.0576,-1.9609,0.0,-1.8594,-1.8104,-1.8008,-1.7842,-1.7314,-1.7366,-1.7492,-1.7629,-1.7755,0.0,0.0,0.0,0.0,-2.2339,0.0,0.0,0.0,-2.4583,-2.4721,-2.4986,-2.5518,-2.583,-2.583,-2.616,-2.6114,-2.561,-2.5592,-2.5518,-2.5372,-2.4721,-2.4445,-2.4537,-2.428,-2.4152,-2.4152,-2.4152,-2.4152,-2.4152,-2.4152,-2.4152,0.0,-2.4152,-2.4152,-2.4251,-2.4242,-2.4341,-2.435,-2.4449,-2.4449,-2.4449,-2.4449,-2.4449,-2.4467,-2.4824,-2.5073,-2.5296,-2.5605,-2.5605,-2.5729,-2.6413,-2.6975,-2.7282,-2.7282,-2.7591,-2.7832,-2.7559,-2.7705,-2.791,-2.791,-2.7568,-2.7344,-2.7617,-2.7314,-2.7012,-2.7012,-2.7012,-2.7012,-2.7012,-2.6875,-2.6894,-2.7217,-2.6748,-2.6455,-2.6611,-2.624,-2.5918,-2.5752,-2.5742,-2.5742,-2.5742,-2.5742,-2.5742,-2.5742,-2.5742,-2.5742,-2.5742,-2.5742,-2.5742,-2.5742,-2.5742,-2.5742,-2.5742,-2.5742,-2.5742,0.0,0.0,0.0,0.0,-2.0794,-1.9684,-1.9135,0.0,0.0,0.0,0.0,-1.8134,-1.7969,-1.8056,-1.8534,-1.9603,0.0,0.0,0.0,-2.1105,0.0,0.0,-2.3527,0.0,-2.4115,-2.496,-2.5439,-2.5476,-2.6148,-2.658,-2.6608,-2.624,-2.6028,-2.6125,-2.6019,-2.5844,-2.5372,-2.495,-2.4556,-2.4198,-2.427,-2.4251,-2.4251,-2.4251,-2.4251,-2.4251,-2.4251,-2.4251,-2.4251,-2.4251,-2.4251,-2.4251,-2.444,-2.4538,-2.4529,-2.4833,-2.4932,-2.4932,-2.4932,-2.4951,-2.5045,-2.5471,-2.6072,-2.6705,-2.6948,-2.6856,-2.6908,-2.7912,-2.8271,-2.8291,-2.8291,-2.8291,-2.8291,-2.8291,-2.8291,-2.8291,-2.8291,-2.7988,-2.7715,-2.7715,-2.7383,-2.7109,-2.7109,-2.7109,-2.7109,-2.7109,-2.6768,-2.6816,-2.7607,-2.6963,-2.6582,-2.6973,-2.6611,-2.6172,-2.5771,-2.5742,-2.5742,-2.5742,-2.5742,-2.5742,-2.5742,-2.5742,-2.5742,-2.5742,-2.5742,-2.5742,-2.5742,-2.5742,-2.5742,-2.5742,-2.5742,-2.5742,-1.9636,0.0,-2.0855,-2.0855,-2.0641,-2.0342,0.0,0.0,0.0,0.0,0.0,0.0,0.0,0.0,0.0,0.0,0.0,0.0,-2.1546,0.0,0.0,-2.3299,-2.4115,-2.4572,-2.427,-2.5386,-2.6025,-2.5768,-2.6263,-2.6832,-2.7153,-2.6277,-2.6229,-2.7017,-2.622,-2.5672,-2.5372,-2.4666,-2.4418,-2.4629,-2.4498,-2.444,-2.444,-2.444,-2.444,-2.444,-2.4251,-2.4251,-2.444,-2.444,-2.4538,-2.4735,-2.4833,-2.4833,-2.4833,-2.4833,-2.4932,-2.4932,-2.4932,-2.5149,-2.5591,-2.6203,-2.6618,-2.6968,-2.7412,-2.751,-2.7549,-2.7754,-2.8047,-2.8291,-2.8291,-2.8291,-2.8291,-2.8291,-2.8291,-2.8291,-2.8291,-2.8213,-2.8144,-2.8144,-2.8066,-2.7988,-2.7988,-2.7988,-2.7988,-2.7988,-2.791,-2.792,-2.8125,-2.7393,-2.6904,-2.7002,-2.6338,-2.585,-2.5742,-2.5742,-2.5742,-2.5742,-2.5742,-2.5742,-2.5742,-2.5742,-2.5742,-2.5742,-2.5742,-2.5742,-2.5742,-2.5742,-2.5742,-2.5742,-2.5742,-2.5742,-1.8987,-1.96,-2.0237,-2.0237,-2.043,-2.0568,0.0,0.0,0.0,0.0,0.0,0.0,0.0,0.0,0.0,0.0,-2.0917,0.0,0.0,0.0,-2.4405,-2.5425,-2.5962,-2.6271,0.0,-2.7242,-2.7512,-2.7258,-2.7734,-2.8025,-2.8145,-2.7462,-2.7242,-2.7829,-2.7152,-2.6374,-2.5489,-2.5041,-2.4846,-2.4892,-2.5214,-2.5382,-2.5382,-2.5848,-2.5858,-2.5382,-2.5294,-2.5294,-2.5401,-2.5595,-2.5654,-2.5606,-2.5996,-2.5683,-2.5128,-2.5781,-2.5693,-2.5362,-2.6026,-2.6416,-2.6686,-2.7515,-2.8031,-2.8448,-2.9301,-2.9477,-2.928,-2.8256,-2.8115,-2.8291,-2.8291,-2.8291,-2.8291,-2.8291,-2.8291,-2.8291,-2.8291,-2.8291,-2.8291,-2.8291,-2.8291,-2.8291,-2.8291,-2.8291,-2.8291,-2.8291,-2.8125,-2.8076,-2.8271,-2.7725,-2.7314,-2.7314,-2.6894,-2.6465,-2.6074,-2.6035,-2.5947,-2.5752,-2.5742,-2.5742,-2.5742,-2.5742,-2.5742,-2.5742,-2.5937,-2.6035,-2.6035,-2.6035,-2.6035,-2.6035,-2.583,-2.5742,-1.9083,-1.9492,-1.9877,-1.9805,-2.0201,-2.0568,0.0,0.0,0.0,0.0,0.0,0.0,0.0,0.0,0.0,0.0,0.0,0.0,-2.4713,-2.513,-2.6076,-2.8183,-2.8168,0.0,-2.8961,-2.9337,-2.9352,-2.9042,-2.9363,-2.9473,-2.9341,-2.8764,-2.8498,-2.8689,-2.822,-2.7355,-2.6013,-2.5923,-2.565,-2.5401,-2.6244,-2.6713,-2.6713,-2.7547,-2.7453,-2.6713,-2.6617,-2.6617,-2.6744,-2.7217,-2.7145,-2.6839,-2.7517,-2.6972,-2.5984,-2.6999,-2.6965,-2.6473,-2.7847,-2.8227,-2.8374,-2.9342,-2.9921,-3.0338,-3.1268,-3.1575,-3.1165,-2.9323,-2.8708,-2.8495,-2.8495,-2.8398,-2.8291,-2.8291,-2.8291,-2.8291,-2.8291,-2.8291,-2.8291,-2.8291,-2.8291,-2.8291,-2.8291,-2.8291,-2.8291,-2.8291,-2.7988,-2.7891,-2.8252,-2.793,-2.7666,-2.7666,-2.7607,-2.7246,-2.6455,-2.6387,-2.6201,-2.5762,-2.5742,-2.5742,-2.5742,-2.5801,-2.584,-2.584,-2.626,-2.6484,-2.6484,-2.6484,-2.6484,-2.6475,-2.6103,-2.5937,-1.954,-2.0045,-2.0402,-1.9889,-2.0201,-2.0696,0.0,0.0,0.0,0.0,0.0,0.0,0.0,0.0,-2.281,0.0,0.0,-2.6532,0.0,0.0,-2.8386,-2.9048,0.0,-2.9741,-2.8989,-2.9936,-3.0285,-2.9622,-2.9719,-2.9922,-3.027,-2.9063,-2.8696,-2.9541,-2.8724,-2.8247,-2.8218,-2.7747,-2.7515,-2.7453,-2.784,-2.8038,-2.8038,-2.8132,-2.8132,-2.8038,-2.7735,-2.784,-2.8038,-2.8113,-2.8196,-2.8402,-2.8477,-2.8373,-2.8215,-2.8402,-2.8672,-2.9074,-3.0133,-3.0435,-3.0518,-3.103,-3.1316,-3.137,-3.1575,-3.1575,-3.1575,-3.1165,-3.0442,-2.9618,-2.9618,-2.9006,-2.8291,-2.8291,-2.8291,-2.8291,-2.8291,-2.8291,-2.8291,-2.8291,-2.8291,-2.8291,-2.8291,-2.8291,-2.8291,-2.8291,-2.8232,-2.8223,-2.8281,-2.793,-2.7666,-2.7666,-2.7334,-2.6914,-2.6426,-2.6387,-2.6201,-2.5762,-2.5742,-2.5742,-2.5742,-2.6094,-2.6289,-2.6289,-2.6709,-2.6914,-2.6914,-2.6914,-2.6914,-2.6914,-2.6855,-2.6816,-1.9708,-2.0382,-2.0959,-2.0718,-2.1067,-2.1536,-2.1777,0.0,0.0,0.0,0.0,0.0,0.0,0.0,-2.4493,-2.5338,0.0,-2.7847,-2.8483,-2.8914,-2.9772,0.0,0.0,-3.1684,-3.149,-3.1888,-3.1796,-3.1024,-3.1044,-3.104,-3.1096,-3.0489,-3.0362,-3.0824,-3.0362,-3.017,-3.0351,-3.0068,-2.9418,-2.8297,-2.905,-2.9338,-2.9338,-2.9897,-2.9795,-2.9338,-2.9235,-2.9235,-2.936,-2.9639,-2.9676,-2.9543,-2.9824,-2.9387,-2.8713,-2.8986,-2.9781,-3.0684,-3.08,-3.1018,-3.1381,-3.2208,-3.2488,-3.2588,-3.3201,-3.33,-3.33,-3.33,-3.1666,-2.9922,-2.9922,-2.9112,-2.8504,-2.9006,-2.8698,-2.8495,-2.9006,-2.8698,-2.8291,-2.8291,-2.8291,-2.8291,-2.8291,-2.8291,-2.8291,-2.8291,-2.8291,-2.8291,-2.8291,-2.8125,-2.7998,-2.7998,-2.7822,-2.7539,-2.7119,-2.708,-2.6689,-2.5791,-2.5957,-2.6084,-2.6084,-2.6494,-2.6728,-2.6728,-2.7148,-2.7363,-2.7363,-2.7363,-2.7363,-2.7363,-2.7129,-2.7012,-2.0129,-2.0767,-2.144,-2.156,0.0,-2.2221,-2.2354,0.0,0.0,0.0,0.0,0.0,0.0,-2.4903,0.0,-2.73,-2.8149,-2.9071,-3.0085,-3.033,-3.1172,-3.3203,-3.3277,-3.3291,-3.3577,-3.3304,-3.2889,-3.2253,-3.2063,-3.1902,-3.1685,-3.1661,-3.1661,-3.1661,-3.1661,-3.1661,-3.1661,-3.1541,-3.0796,-2.9418,-3.017,-3.0543,-3.0543,-3.1383,-3.1282,-3.0543,-3.0543,-3.0543,-3.0578,-3.0984,-3.0914,-3.0578,-3.0996,-3.0434,-2.9497,-3.0146,-3.1092,-3.1991,-3.1811,-3.2073,-3.2488,-3.3312,-3.361,-3.3709,-3.4519,-3.4823,-3.4823,-3.4823,-3.2778,-3.0639,-3.0639,-2.9932,-2.9323,-3.013,-2.9618,-2.9217,-2.9817,-2.9207,-2.8601,-2.8398,-2.8291,-2.8291,-2.8291,-2.8291,-2.8398,-2.8601,-2.8698,-2.8698,-2.8698,-2.891,-2.9016,-2.8698,-2.891,-2.8941,-2.8498,-2.8377,-2.7874,-2.6858,-2.6824,-2.7013,-2.7311,-2.7723,-2.7752,-2.7558,-2.7984,-2.8117,-2.7812,-2.8117,-2.8117,-2.7803,-2.7772,-2.7511,-2.1151,-2.1344,-2.1524,-2.2017,-2.2161,0.0,-2.2811,-2.334,0.0,0.0,0.0,0.0,0.0,-2.5757,-2.7112,-2.8239,-2.969,-3.1045,-3.2136,0.0,-3.3239,-3.3921,-3.3887,-3.3719,-3.3392,-3.2899,-3.2484,-3.2503,-3.201,-3.1709,-3.1661,-3.1661,-3.1661,-3.1661,-3.1661,-3.1661,-3.1661,-3.118,-3.1168,-3.1472,-3.1572,-3.1572,-3.1572,-3.1661,-3.1661,-3.1572,-3.1572,-3.1572,-3.1572,-3.1608,-3.1608,-3.1572,-3.1608,-3.1608,-3.1603,-3.2655,-3.3062,-3.3335,-3.4222,-3.4495,-3.4628,-3.4628,-3.4726,-3.4726,-3.4738,-3.4823,-3.4823,-3.4823,-3.3918,-3.3001,-3.3001,-3.2185,-3.137,-3.1472,-3.137,-3.1062,-3.013,-2.9817,-2.9513,-2.8495,-2.8291,-2.8291,-2.8291,-2.8291,-2.8601,-2.9618,-2.9817,-2.9817,-2.9817,-3.0753,-3.0959,-2.9922,-3.0753,-3.1175,-3.0687,-3.0351,-3.0057,-2.9959,-2.9,-2.8922,-3.0003,-3.0449,-3.0098,-2.9116,-2.9549,-2.9262,-2.8252,-2.9262,-2.9262,-2.8242,-2.9232,-2.9116,-2.1344,-2.1644,-2.1945,-2.2149,0.0,0.0,0.0,0.0,0.0,0.0,0.0,0.0,0.0,0.0,-2.8258,-2.9316,-3.0266,-3.1252,-3.2346,-3.2671,-3.2996,-3.3513,-3.3573,-3.3368,-3.2851,-3.2623,-3.2226,-3.1541,-3.1601,-3.1384,-3.0723,-3.0999,-3.1023,-3.0699,-3.0999,-3.1011,-3.0687,-3.0807,-3.0807,-3.0687,-3.1011,-3.1348,-3.1661,-3.1324,-3.1348,-3.1649,-3.1312,-3.136,-3.1661,-3.1661,-3.1661,-3.1661,-3.1661,-3.1661,-3.1757,-3.2515,-3.2803,-3.2947,-3.3982,-3.4138,-3.3921,-3.4234,-3.4342,-3.4342,-3.4342,-3.4571,-3.4823,-3.4823,-3.4519,-3.4017,-3.34,-3.2387,-3.1779,-3.2488,-3.2083,-3.1472,-3.1062,-3.0442,-2.9817,-2.9418,-2.9313,-2.9523,-3.0245,-3.0349,-3.0453,-3.0856,-3.0959,-3.0959,-3.0959,-3.137,-3.1472,-3.0959,-3.137,-3.1509,-3.1323,-3.1238,-3.144,-3.2036,-3.0844,-3.0184,-3.0691,-3.1151,-3.1099,-3.0691,-3.0863,-3.0753,-3.0349,-3.0753,-3.0753,-3.0349,-3.0753,-3.0753,-2.1765,-2.197,-2.2283,0.0,0.0,0.0,0.0,0.0,0.0,0.0,0.0,0.0,0.0,0.0,0.0,0.0,-3.053,-3.1252,-3.2346,-3.2503,-3.2635,-3.2996,-3.3044,-3.2827,-3.2286,-3.2082,-3.1685,-3.0927,-3.106,-3.0855,-3.0122,-3.0434,-3.0458,-3.0098,-3.0446,-3.0446,-3.0086,-3.029,-3.0278,-3.0086,-3.029,-3.0651,-3.1156,-3.0963,-3.0975,-3.1144,-3.0783,-3.0927,-3.1408,-3.1408,-3.1517,-3.1661,-3.1661,-3.1661,-3.1733,-3.2298,-3.2503,-3.2623,-3.3501,-3.3573,-3.3344,-3.3693,-3.3801,-3.3801,-3.3801,-3.4162,-3.4583,-3.4583,-3.4703,-3.4628,-3.3918,-3.3201,-3.2801,-3.3511,-3.3101,-3.2488,-3.2185,-3.1462,-3.0845,-3.0546,-3.0442,-3.0639,-3.1472,-3.1575,-3.1677,-3.2083,-3.2083,-3.2083,-3.2083,-3.2387,-3.26,-3.26,-3.26,-3.26,-3.26,-3.26,-3.2901,-3.3709,-3.267,-3.218,-3.218,-3.2408,-3.2488,-3.2083,-3.2083,-3.1982,-3.1575,-3.1982,-3.188,-3.1575,-3.1982,-3.188,-2.2482,-2.242,-2.2492,0.0,0.0,0.0,0.0,0.0,0.0,0.0,0.0,-2.8366,-2.7825,-2.8162,0.0,-2.9917,-3.053,-3.1252,-3.2334,-3.2491,-3.2491,-3.2491,-3.2491,-3.2274,-3.1709,-3.118,-3.0867,-3.0867,-3.0386,-3.0086,-3.0074,-3.0074,-3.0074,-3.0074,-3.0074,-3.0074,-3.0074,-2.9556,-2.9556,-3.0062,-2.9544,-2.9581,-3.011,-3.0627,-3.0579,-3.0086,-3.0074,-3.0386,-3.0867,-3.0879,-3.118,-3.1661,-3.1661,-3.1661,-3.1733,-3.2286,-3.2491,-3.2575,-3.3104,-3.3284,-3.3272,-3.3284,-3.3284,-3.3284,-3.3284,-3.3633,-3.4042,-3.4042,-3.4414,-3.4823,-3.4823,-3.4823,-3.4823,-3.4823,-3.4823,-3.4519,-3.34,-3.3201,-3.2901,-3.1779,-3.1575,-3.1575,-3.1677,-3.1677,-3.1982,-3.3101,-3.3201,-3.3201,-3.3201,-3.4115,-3.4823,-3.4823,-3.4823,-3.4823,-3.4823,-3.4823,-3.4823,-3.4823,-3.4823,-3.4823,-3.4823,-3.4823,-3.4323,-3.3201,-3.3201,-3.2689,-3.1677,-3.27,-3.2689,-3.1677,-3.2689,-3.27,-2.2678,-2.2898,0.0,0.0,0.0,0.0,0.0,0.0,0.0,0.0,0.0,-2.9352,-2.8438,-2.9015,0.0,-3.0037,-3.053,-3.112,-3.1817,-3.1913,-3.1913,-3.1913,-3.1913,-3.1709,-3.1156,-3.0963,-3.0567,-2.9821,-2.9965,-2.9761,-2.9015,-2.9328,-2.9364,-2.8991,-2.934,-2.9352,-2.8979,-2.9184,-2.9184,-2.8979,-2.9196,-2.9581,-3.0074,-2.9869,-2.9881,-3.0062,-2.9689,-2.9833,-3.035,-3.0723,-3.0963,-3.1144,-3.1517,-3.1661,-3.1685,-3.1853,-3.1913,-3.1985,-3.2539,-3.2478,-3.2214,-3.2611,-3.2743,-3.2743,-3.2743,-3.3344,-3.4042,-3.4042,-3.4414,-3.4823,-3.4823,-3.4823,-3.4823,-3.4823,-3.4823,-3.4519,-3.34,-3.3201,-3.3101,-3.2789,-3.27,-3.3001,-3.3709,-3.3808,-3.3918,-3.4323,-3.4323,-3.4323,-3.4323,-3.4628,-3.4823,-3.4823,-3.4823,-3.4823,-3.4823,-3.4823,-3.4823,-3.4823,-3.4823,-3.4823,-3.4823,-3.4823,-3.4628,-3.4323,-3.4323,-3.4213,-3.3808,-3.4213,-3.4115,-3.3819,-3.4213,-3.4115,-2.3182,0.0,0.0,0.0,0.0,0.0,0.0,0.0,0.0,0.0,0.0,-2.9508,-2.8667,-2.9027,0.0,-2.9737,-3.0037,-3.0506,-3.1252,-3.1168,-3.1108,-3.1324,-3.1168,-3.0915,-3.0591,-3.0374,-2.9989,-2.9352,-2.94,-2.9184,-2.8546,-2.8811,-2.8835,-2.8522,-2.8823,-2.8835,-2.851,-2.8823,-2.8823,-2.851,-2.8835,-2.9148,-2.946,-2.9352,-2.9364,-2.946,-2.9352,-2.9484,-2.9809,-3.035,-3.0555,-3.0615,-3.1144,-3.1348,-3.1384,-3.1589,-3.1661,-3.1709,-3.2058,-3.1949,-3.1721,-3.2058,-3.2166,-3.2166,-3.2166,-3.2755,-3.3477,-3.3681,-3.4114,-3.4559,-3.4775,-3.4823,-3.4823,-3.4823,-3.4823,-3.4628,-3.4017,-3.3808,-3.3808,-3.3808,-3.3808,-3.4017,-3.4726,-3.4823,-3.4823,-3.4823,-3.4823,-3.4823,-3.4823,-3.4823,-3.4823,-3.4823,-3.4823,-3.4823,-3.4823,-3.4823,-3.4823,-3.4823,-3.4823,-3.4823,-3.4823,-3.4823,-3.4823,-3.4823,-3.4823,-3.4823,-3.4823,-3.4823,-3.4823,-3.4823,-3.4823,-3.4823,0.0,0.0,0.0,0.0,0.0,0.0,0.0,0.0,-2.9169,-2.8607,0.0,-2.9196,-2.8619,-2.8595,-2.8799,-2.9232,-2.934,-2.9701,-3.0675,-3.0386,-3.0266,-3.0747,-3.0386,-3.0074,-3.0013,-2.9581,-2.928,-2.9232,-2.8787,-2.851,-2.851,-2.851,-2.851,-2.851,-2.851,-2.851,-2.851,-2.851,-2.851,-2.851,-2.851,-2.851,-2.8522,-2.9003,-2.8967,-2.8534,-2.9015,-2.9232,-2.9268,-2.9797,-3.0013,-3.0074,-3.0603,-3.0807,-3.0867,-3.1396,-3.1589,-3.1601,-3.1649,-3.1661,-3.1661,-3.1661,-3.1661,-3.1661,-3.1661,-3.2058,-3.2599,-3.308,-3.3585,-3.409,-3.4619,-3.4727,-3.4715,-3.4811,-3.4823,-3.4823,-3.4823,-3.4823,-3.4823,-3.4823,-3.4823,-3.4823,-3.4823,-3.4823,-3.4823,-3.4823,-3.4823,-3.4823,-3.4823,-3.4823,-3.4823,-3.4823,-3.4823,-3.4823,-3.4823,-3.4823,-3.4823,-3.4823,-3.4823,-3.4823,-3.4823,-3.4823,-3.4823,-3.4823,-3.4823,-3.4823,-3.4823,-3.4823,-3.4823,-3.4823,-3.4823,-3.4823,0.0,-2.4594,0.0,0.0,0.0,0.0,0.0,0.0,-2.9041,-2.8614,-2.9256,-2.9629,-2.8691,-2.9184,-2.9653,-2.9352,-2.9641,-3.0001,-3.0218,-3.0158,-3.0122,-3.0242,-3.0158,-2.9917,-2.9508,-2.9364,-2.9124,-2.8703,-2.857,-2.851,-2.851,-2.851,-2.851,-2.851,-2.851,-2.851,-2.851,-2.851,-2.851,-2.851,-2.851,-2.851,-2.851,-2.8631,-2.8619,-2.8522,-2.8631,-2.8679,-2.8727,-2.9256,-2.9472,-2.952,-3.005,-3.0254,-3.0326,-3.0855,-3.1048,-3.1108,-3.1517,-3.1661,-3.1661,-3.1661,-3.1661,-3.1661,-3.1661,-3.2058,-3.2527,-3.2635,-3.3044,-3.3573,-3.4078,-3.3909,-3.3825,-3.4631,-3.4823,-3.4823,-3.4823,-3.4823,-3.4823,-3.4823,-3.4823,-3.4823,-3.4823,-3.4823,-3.4823,-3.4823,-3.4823,-3.4823,-3.4823,-3.4823,-3.4823,-3.4823,-3.4823,-3.4823,-3.4823,-3.4823,-3.4823,-3.4823,-3.4823,-3.4823,-3.4823,-3.4823,-3.4823,-3.4823,-3.4823,-3.4823,-3.4823,-3.4823,-3.4823,-3.4823,-3.4823,-3.4823,0.0,0.0,0.0,0.0,0.0,0.0,0.0,0.0,-2.9052,-2.8816,-2.9185,-2.931,-2.8766,-2.9036,-2.9244,-2.8967,-2.9148,-2.9412,-2.9677,-2.9496,-2.9424,-2.9677,-2.9484,-2.922,-2.8943,-2.8919,-2.8811,-2.8534,-2.851,-2.851,-2.851,-2.851,-2.851,-2.851,-2.851,-2.851,-2.851,-2.851,-2.851,-2.851,-2.851,-2.851,-2.851,-2.851,-2.851,-2.851,-2.851,-2.851,-2.8534,-2.8811,-2.8919,-2.8979,-2.9508,-2.9713,-2.9797,-3.0591,-3.0879,-3.0951,-3.148,-3.1661,-3.1661,-3.1661,-3.1661,-3.1661,-3.1661,-3.1865,-3.2154,-3.243,-3.2695,-3.3032,-3.3549,-3.3669,-3.3777,-3.433,-3.4451,-3.4523,-3.4775,-3.4823,-3.4823,-3.4823,-3.4823,-3.4823,-3.4823,-3.4823,-3.4823,-3.4823,-3.4823,-3.4823,-3.4823,-3.4823,-3.4823,-3.4823,-3.4823,-3.4823,-3.4823,-3.4823,-3.4823,-3.4823,-3.4823,-3.4823,-3.4823,-3.4823,-3.4823,-3.4823,-3.4823,-3.4823,-3.4823,-3.4823,-3.4823,-3.4823,-3.4823,-3.4823,0.0,0.0,0.0,0.0,0.0,0.0,0.0,0.0,-2.9353,-2.9221,-2.904,-2.8882,-2.8882,-2.8657,-2.859,-2.859,-2.851,-2.8655,-2.91,-2.8787,-2.8679,-2.9112,-2.8775,-2.851,-2.851,-2.851,-2.851,-2.851,-2.851,-2.851,-2.851,-2.851,-2.851,-2.851,-2.851,-2.851,-2.851,-2.851,-2.851,-2.851,-2.851,-2.851,-2.851,-2.851,-2.851,-2.851,-2.851,-2.851,-2.851,-2.851,-2.851,-2.8558,-2.8991,-2.916,-2.928,-3.0242,-3.0603,-3.0687,-3.1312,-3.1529,-3.1541,-3.1637,-3.1661,-3.1661,-3.1661,-3.1661,-3.1757,-3.2226,-3.2358,-3.2478,-3.3008,-3.3392,-3.3681,-3.3873,-3.3909,-3.4078,-3.4691,-3.4823,-3.4823,-3.4823,-3.4823,-3.4823,-3.4823,-3.4823,-3.4823,-3.4823,-3.4823,-3.4835,-3.4823,-3.4835,-3.492,-3.492,-3.4932,-3.4835,-3.4835,-3.4835,-3.4835,-3.4835,-3.4835,-3.492,-3.4932,-3.4932,-3.4932,-3.4835,-3.4823,-3.4823,-3.4823,-3.4823,-3.4823,-3.4823,-3.4823,-3.4823,0.0,0.0,0.0,0.0,0.0,0.0,0.0,0.0,-3.0456,0.0,-2.9378,-2.9052,-2.9052,-2.8882,-2.8724,-2.8724,-2.8578,-2.8534,-2.8607,-2.8558,-2.8534,-2.8607,-2.8546,-2.851,-2.851,-2.851,-2.851,-2.851,-2.851,-2.851,-2.851,-2.851,-2.851,-2.851,-2.851,-2.851,-2.851,-2.8657,-2.8657,-2.851,-2.851,-2.851,-2.851,-2.851,-2.851,-2.851,-2.851,-2.851,-2.851,-2.851,-2.851,-2.8522,-2.8595,-2.8619,-2.8691,-2.9292,-2.9508,-2.9653,-3.0639,-3.0975,-3.106,-3.1517,-3.1661,-3.1661,-3.1661,-3.1661,-3.1673,-3.1757,-3.1781,-3.1901,-3.2454,-3.2298,-3.2214,-3.3164,-3.3566,-3.382,-3.4619,-3.4823,-3.4823,-3.4823,-3.4823,-3.4823,-3.4823,-3.4823,-3.4823,-3.4823,-3.4823,-3.4932,-3.5126,-3.5126,-3.5223,-3.5428,-3.532,-3.5126,-3.5126,-3.492,-3.4932,-3.5126,-3.5126,-3.5223,-3.5524,-3.5512,-3.5416,-3.5126,-3.4932,-3.4823,-3.4823,-3.4823,-3.4823,-3.4823,-3.4823,-3.4823,-2.7412,0.0,0.0,0.0,0.0,0.0,0.0,0.0,-3.1489,-3.1158,-3.0921,-3.0607,-3.0012,-2.9419,-2.9118,-2.9561,-2.9197,-2.8973,-2.9275,-2.9052,-2.8973,-2.9275,-2.9052,-2.8973,-2.9275,-2.904,-2.8961,-2.9328,-2.904,-2.8961,-2.9316,-2.904,-2.8961,-2.9328,-2.904,-2.8828,-2.8828,-2.8882,-2.8882,-2.8828,-2.8828,-2.8828,-2.8828,-2.8828,-2.8736,-2.851,-2.851,-2.851,-2.851,-2.851,-2.851,-2.851,-2.851,-2.851,-2.857,-2.91,-2.9304,-2.9448,-3.0664,-3.1027,-3.121,-3.1855,-3.2113,-3.2025,-3.1937,-3.1849,-3.1849,-3.1749,-3.1661,-3.1721,-3.1973,-3.2159,-3.2418,-3.2901,-3.3411,-3.4022,-3.4615,-3.492,-3.503,-3.503,-3.503,-3.503,-3.5223,-3.5223,-3.5223,-3.5223,-3.5223,-3.532,-3.5416,-3.5416,-3.5428,-3.562,-3.5512,-3.5416,-3.5416,-3.532,-3.532,-3.5428,-3.5416,-3.5524,-3.562,-3.562,-3.5512,-3.5428,-3.5126,-3.4932,-3.4823,-3.4823,-3.4823,-3.4823,-3.4823,-3.4823,0.0,0.0,0.0,0.0,0.0,0.0,0.0,0.0,-3.2072,0.0,-3.1979,-3.1928,-3.1328,-3.0456,-2.9947,-3.0607,-3.0165,-2.9871,-3.0317,-3.0012,-2.9871,-3.0317,-3.0012,-2.9871,-3.0317,-2.9935,-2.9935,-3.0355,-2.9922,-2.9935,-3.0355,-2.9922,-2.9858,-3.0075,-2.9858,-2.9639,-2.9431,-2.9431,-2.9353,-2.9197,-2.9353,-2.9275,-2.9131,-2.9275,-2.9118,-2.8669,-2.8669,-2.8578,-2.8578,-2.8578,-2.8578,-2.8578,-2.8578,-2.8578,-2.8718,-2.9105,-2.9262,-2.9407,-3.0627,-3.1089,-3.1199,-3.208,-3.24,-3.2388,-3.2125,-3.2125,-3.2038,-3.1937,-3.1849,-3.1849,-3.1849,-3.2329,-3.2723,-3.2723,-3.3306,-3.4065,-3.4674,-3.5037,-3.532,-3.532,-3.532,-3.5332,-3.5524,-3.562,-3.562,-3.562,-3.562,-3.562,-3.5716,-3.5716,-3.5716,-3.5812,-3.5716,-3.5716,-3.5716,-3.562,-3.562,-3.5716,-3.5716,-3.5716,-3.58,-3.58,-3.58,-3.5716,-3.5524,-3.5223,-3.492,-3.492,-3.4835,-3.4823,-3.4823,-3.4823,0.0,0.0,0.0,0.0,0.0,0.0,0.0,0.0,-3.2068,-3.1303,-3.1694,-3.229,-3.2932,-3.229,-3.1649,-3.1723,-3.1549,-3.1389,-3.1389,-3.1389,-3.1389,-3.1389,-3.1389,-3.1389,-3.1389,-3.1389,-3.1389,-3.1389,-3.1389,-3.1389,-3.1389,-3.1389,-3.1031,-3.0317,-3.0957,-3.1031,-3.0254,-3.0254,-2.9947,-2.9419,-2.9947,-2.9871,-2.9131,-2.9871,-2.9806,-2.9052,-2.9052,-2.8973,-2.8803,-2.8803,-2.8803,-2.8803,-2.8803,-2.8882,-2.9052,-2.9089,-2.9101,-2.9248,-3.0433,-3.0815,-3.0999,-3.2056,-3.24,-3.24,-3.2388,-3.24,-3.24,-3.2388,-3.2388,-3.2388,-3.2388,-3.2412,-3.2437,-3.2437,-3.3019,-3.3776,-3.4588,-3.5239,-3.562,-3.562,-3.562,-3.562,-3.562,-3.562,-3.562,-3.562,-3.562,-3.5716,-3.592,-3.6015,-3.6098,-3.6358,-3.6098,-3.6015,-3.6015,-3.5716,-3.5716,-3.592,-3.6015,-3.6098,-3.637,-3.6358,-3.6275,-3.6015,-3.6015,-3.5716,-3.5223,-3.5223,-3.503,-3.4823,-3.4823,-3.4823,0.0,0.0,0.0,0.0,0.0,0.0,-3.1077,-3.176,-3.2362,-3.2085,-3.2514,-3.309,-3.336,-3.2611,-3.2146,-3.2648,-3.2218,-3.2001,-3.2376,-3.2146,-3.2001,-3.2448,-3.2146,-3.2074,-3.2448,-3.2074,-3.2074,-3.2448,-3.2074,-3.2074,-3.2448,-3.2074,-3.1928,-3.2028,-3.1928,-3.1783,-3.1502,-3.1502,-3.1341,-3.1119,-3.1341,-3.1267,-3.1044,-3.0833,-3.0532,-3.0241,-2.9741,-2.9378,-2.8961,-2.8961,-2.8961,-2.8961,-2.8961,-2.9052,-2.9131,-2.9131,-2.9131,-2.929,-3.0548,-3.1013,-3.1199,-3.2461,-3.2822,-3.2822,-3.2636,-3.255,-3.255,-3.2475,-3.24,-3.24,-3.24,-3.2475,-3.2636,-3.2822,-3.3595,-3.4357,-3.4653,-3.5169,-3.562,-3.5812,-3.5824,-3.5908,-3.6086,-3.6086,-3.6086,-3.6086,-3.6086,-3.6181,-3.6275,-3.6275,-3.6275,-3.6358,-3.6275,-3.6275,-3.6275,-3.6181,-3.6181,-3.6275,-3.6275,-3.6275,-3.6358,-3.6358,-3.637,-3.6275,-3.6275,-3.5991,-3.5428,-3.532,-3.5126,-3.503,-3.4932,-3.4823,-2.794,0.0,0.0,0.0,0.0,-3.1206,-3.1206,0.0,-3.2179,-3.2179,-3.2701,-3.3151,-3.3151,-3.2642,-3.2542,-3.3449,-3.3171,-3.303,-3.3409,-3.3101,-3.303,-3.3409,-3.3101,-3.303,-3.3409,-3.3101,-3.303,-3.3409,-3.3101,-3.303,-3.3479,-3.3101,-3.2947,-3.3182,-3.2305,-3.183,-3.183,-3.2036,-3.2061,-3.1789,-3.2266,-3.2362,-3.2074,-3.1769,-3.1402,-3.0895,-3.0419,-2.9819,-2.9197,-2.9197,-2.9197,-2.9197,-2.9197,-2.9287,-2.93,-2.93,-2.93,-2.9502,-3.058,-3.1016,-3.1397,-3.2491,-3.2918,-3.3068,-3.2896,-3.281,-3.281,-3.2649,-3.2649,-3.2649,-3.2649,-3.2723,-3.2896,-3.3081,-3.3771,-3.45,-3.4675,-3.5313,-3.5895,-3.6098,-3.6098,-3.6193,-3.6358,-3.6358,-3.6358,-3.6358,-3.6358,-3.6358,-3.6358,-3.6358,-3.6358,-3.6358,-3.6358,-3.6358,-3.6358,-3.6358,-3.6358,-3.6358,-3.6358,-3.6358,-3.6358,-3.6358,-3.6358,-3.6358,-3.6358,-3.6263,-3.5895,-3.5608,-3.5428,-3.5223,-3.503,-3.4932,0.0,0.0,0.0,0.0,0.0,0.0,-3.0568,0.0,-3.1482,-3.1482,-3.2019,-3.2483,-3.2483,-3.2513,-3.2919,-3.4153,-3.437,-3.4385,-3.4414,-3.4385,-3.4385,-3.4385,-3.437,-3.4356,-3.4356,-3.4356,-3.4356,-3.4356,-3.4356,-3.4356,-3.4356,-3.4356,-3.408,-3.3456,-3.2056,-3.1321,-3.1321,-3.2005,-3.1958,-3.1205,-3.2569,-3.2861,-3.2218,-3.2861,-3.2349,-3.097,-3.0895,-3.038,-2.9419,-2.9419,-2.9419,-2.9419,-2.9419,-2.9599,-2.9792,-2.9792,-2.9792,-2.988,-3.0419,-3.0959,-3.1486,-3.2039,-3.2604,-3.3081,-3.3081,-3.3081,-3.3081,-3.3081,-3.3081,-3.3081,-3.3081,-3.3081,-3.3081,-3.3081,-3.3495,-3.4048,-3.4575,-3.5554,-3.6345,-3.6358,-3.6358,-3.6358,-3.6358,-3.6358,-3.6358,-3.6358,-3.6358,-3.6358,-3.6358,-3.6358,-3.6358,-3.6358,-3.6358,-3.6358,-3.6358,-3.6358,-3.6358,-3.6358,-3.6358,-3.6358,-3.6358,-3.6358,-3.6358,-3.6358,-3.6358,-3.6358,-3.6358,-3.6098,-3.5716,-3.5223,-3.5223,-3.503,-2.8681,0.0,0.0,0.0,0.0,0.0,-3.0568,0.0,-3.0843,-3.0843,-3.1351,-3.1801,-3.1801,-3.2193,-3.2629,-3.2991,-3.3427,-3.3891,-3.4356,-3.4008,-3.3732,-3.3732,-3.3325,-3.305,-3.305,-3.305,-3.305,-3.305,-3.305,-3.305,-3.305,-3.305,-3.2962,-3.2788,-3.2392,-3.2163,-3.2163,-3.2861,-3.3044,-3.283,-3.3661,-3.3962,-3.3756,-3.3367,-3.3003,-3.2492,-3.1402,-3.0745,-3.0456,-2.9908,-2.9702,-2.9702,-2.9702,-2.9702,-2.9792,-2.9792,-2.9792,-2.988,-3.0419,-3.0959,-3.1486,-3.2039,-3.2604,-3.3081,-3.3081,-3.3081,-3.3081,-3.3081,-3.3081,-3.3081,-3.3081,-3.3081,-3.3081,-3.3081,-3.3495,-3.3935,-3.4098,-3.5002,-3.5893,-3.6282,-3.6358,-3.6358,-3.6358,-3.6358,-3.6358,-3.6358,-3.6358,-3.6358,-3.6358,-3.6358,-3.6358,-3.6358,-3.6358,-3.6358,-3.6358,-3.6358,-3.6358,-3.6358,-3.6358,-3.6358,-3.6358,-3.6358,-3.6358,-3.6358,-3.6358,-3.6358,-3.6358,-3.6098,-3.592,-3.5812,-3.5416,-3.503,-2.9464,-2.974,-3.0016,-3.0016,0.0,0.0,-3.0568,-3.0568,-3.0568,-3.0568,-3.0872,-3.1119,-3.1119,-3.1438,-3.1787,-3.2063,-3.2411,-3.289,-3.3529,-3.3296,-3.3079,-3.3079,-3.2745,-3.2513,-3.2513,-3.2513,-3.2513,-3.2513,-3.2513,-3.2513,-3.2513,-3.2251,-3.2092,-3.2092,-3.1845,-3.1714,-3.1714,-3.2614,-3.3079,-3.3079,-3.3978,-3.4414,-3.4414,-3.3894,-3.352,-3.3143,-3.2277,-3.1476,-3.0895,-3.0419,-3.0075,-2.9792,-2.9792,-2.9792,-2.9792,-2.9792,-2.9792,-2.988,-3.0419,-3.0959,-3.1486,-3.2039,-3.2604,-3.3081,-3.3081,-3.3081,-3.3081,-3.3081,-3.3081,-3.3081,-3.3081,-3.3081,-3.3081,-3.3081,-3.3319,-3.3621,-3.3847,-3.4399,-3.509,-3.5868,-3.6207,-3.6358,-3.6358,-3.6358,-3.6358,-3.6358,-3.6358,-3.6358,-3.6358,-3.6358,-3.6358,-3.6358,-3.6358,-3.6358,-3.6358,-3.6358,-3.6358,-3.6358,-3.6358,-3.6358,-3.6358,-3.6358,-3.6358,-3.6358,-3.6358,-3.6358,-3.6358,-3.6275,-3.6098,-3.6015,-3.5416,-3.5126,-3.0568,-3.0568,-3.0568,-3.0568,-3.0568,0.0,-3.0568,-3.0568,-3.0568,-3.0568,-3.0568,-3.0568,-3.0568,-3.0568,-3.0756,-3.1322,-3.1409,-3.1671,-3.2425,-3.2454,-3.2411,-3.2411,-3.2338,-3.2309,-3.2309,-3.2309,-3.2309,-3.2309,-3.2309,-3.2309,-3.2309,-3.1729,-3.1409,-3.1409,-3.0872,-3.0568,-3.0568,-3.1787,-3.244,-3.2527,-3.3732,-3.4356,-3.4414,-3.4414,-3.4045,-3.3297,-3.3213,-3.242,-3.1106,-3.0957,-3.0482,-2.9792,-2.9792,-2.9792,-2.9792,-2.9792,-2.9792,-2.988,-3.0419,-3.0959,-3.1486,-3.2039,-3.2604,-3.3081,-3.3081,-3.3081,-3.3081,-3.3081,-3.3081,-3.3081,-3.3081,-3.3081,-3.3081,-3.3081,-3.3081,-3.3206,-3.3709,-3.3859,-3.4186,-3.5177,-3.5855,-3.6282,-3.6358,-3.6358,-3.6358,-3.6358,-3.6358,-3.6358,-3.6358,-3.6358,-3.6358,-3.6358,-3.6358,-3.6358,-3.6358,-3.6358,-3.6358,-3.6358,-3.6358,-3.6358,-3.6358,-3.6358,-3.6358,-3.6358,-3.6358,-3.6358,-3.6358,-3.6358,-3.6275,-3.6015,-3.5524,-3.5223,-3.0642,-3.0568,-3.0568,-3.0568,-3.0568,0.0,-3.0568,-3.0568,-3.0568,-3.0568,-3.0568,-3.0568,-3.0568,-3.0568,-3.0611,-3.0742,-3.0756,-3.1177,-3.2353,-3.2063,-3.1714,-3.1714,-3.1264,-3.0959,-3.0959,-3.0959,-3.0959,-3.0959,-3.0959,-3.0959,-3.0959,-3.0829,-3.0756,-3.0756,-3.064,-3.0568,-3.0568,-3.1337,-3.199,-3.2527,-3.3282,-3.392,-3.4414,-3.4414,-3.4332,-3.4113,-3.352,-3.3003,-3.2635,-3.1402,-3.0482,-2.9792,-2.9792,-2.9792,-2.9792,-2.9792,-2.9792,-2.988,-3.0419,-3.0959,-3.1486,-3.2039,-3.2604,-3.3081,-3.3081,-3.3081,-3.3081,-3.3081,-3.3081,-3.3081,-3.3081,-3.3081,-3.3081,-3.3081,-3.3081,-3.3106,-3.3219,-3.3583,-3.396,-3.4173,-3.5027,-3.5843,-3.6282,-3.6358,-3.6358,-3.6358,-3.6358,-3.6358,-3.6358,-3.6358,-3.6358,-3.6358,-3.6358,-3.6358,-3.6358,-3.6358,-3.6358,-3.6358,-3.6358,-3.6358,-3.6358,-3.6358,-3.6358,-3.6358,-3.6358,-3.6358,-3.6358,-3.6358,-3.6275,-3.6015,-3.5908,-3.562,-3.0702,-3.0642,-3.0568,-3.0568,-3.0568,0.0,0.0,-3.0568,-3.0568,-3.0568,-3.0568,-3.0568,-3.0568,-3.0568,-3.0568,-3.0568,-3.0568,-3.08,-3.1453,-3.125,-3.1047,-3.1047,-3.0756,-3.0568,-3.0568,-3.0568,-3.0568,-3.0568,-3.0568,-3.0568,-3.0568,-3.0568,-3.0568,-3.0568,-3.0568,-3.0568,-3.0568,-3.1206,-3.1685,-3.2034,-3.3006,-3.363,-3.3949,-3.4269,-3.4414,-3.4414,-3.3962,-3.3589,-3.3143,-3.2349,-3.1636,-3.0872,-3.0075,-2.9792,-2.9792,-2.9792,-2.9792,-2.988,-3.0419,-3.0783,-3.1097,-3.1625,-3.219,-3.2641,-3.2641,-3.2842,-3.3081,-3.3081,-3.3081,-3.3081,-3.3081,-3.3081,-3.3081,-3.3081,-3.3081,-3.3081,-3.3081,-3.3294,-3.3571,-3.3847,-3.4562,-3.5303,-3.5855,-3.6182,-3.6358,-3.6358,-3.6358,-3.6358,-3.6358,-3.6358,-3.6358,-3.6358,-3.6358,-3.6358,-3.6358,-3.6358,-3.6358,-3.6358,-3.6358,-3.6358,-3.6358,-3.6358,-3.6358,-3.6358,-3.6358,-3.6358,-3.6358,-3.6358,-3.637,-3.6193,-3.6098,-3.5824,-3.0881,-3.0762,-3.0642,-3.0642,-3.0642,-3.0568,0.0,0.0,0.0,-3.0568,-3.0568,-3.0568,-3.0568,-3.0568,-3.0539,-3.0408,-3.0495,-3.0524,-3.0408,-3.0495,-3.0568,-3.0568,-3.0568,-3.0568,-3.0568,-3.0568,-3.0568,-3.0568,-3.0568,-3.0568,-3.0568,-3.0568,-3.0568,-3.0568,-3.0568,-3.0568,-3.0568,-3.1076,-3.1409,-3.1526,-3.2716,-3.3354,-3.3485,-3.4124,-3.4414,-3.4414,-3.4414,-3.4045,-3.3437,-3.3297,-3.2861,-3.2146,-3.0646,-2.9998,-2.9998,-2.9856,-2.9792,-2.988,-3.0419,-3.062,-3.0708,-3.1223,-3.1763,-3.2227,-3.234,-3.2704,-3.3081,-3.3081,-3.3081,-3.3081,-3.3081,-3.3081,-3.3081,-3.3081,-3.3081,-3.3081,-3.3081,-3.3081,-3.3206,-3.3658,-3.4186,-3.4776,-3.5429,-3.5994,-3.6358,-3.6358,-3.6358,-3.6358,-3.6358,-3.6358,-3.6358,-3.6358,-3.6358,-3.6358,-3.6358,-3.6358,-3.6358,-3.6358,-3.6358,-3.6358,-3.6358,-3.6358,-3.6358,-3.6358,-3.6358,-3.6358,-3.6358,-3.6358,-3.6358,-3.6358,-3.6193,-3.6015,-3.1234,-3.0895,-3.0762,-3.0762,-3.0702,-3.0568,-3.0568,0.0,-3.0568,-3.0568,0.0,-3.0568,-3.0568,0.0,0.0,-2.9827,-3.0205,-3.0379,-2.9813,-3.0219,-3.0568,-3.0568,-3.0568,-3.0568,-3.0568,-3.0568,-3.0568,-3.0568,-3.0568,-3.0568,-3.0568,-3.0568,-3.0568,-3.0568,-3.0568,-3.0568,-3.0568,-3.064,-3.0959,-3.1526,-3.2266,-3.2919,-3.3485,-3.4124,-3.4414,-3.4414,-3.4414,-3.4346,-3.4196,-3.352,-3.3143,-3.2932,-3.1415,-3.0758,-3.0683,-3.0075,-2.9792,-2.988,-3.0419,-3.062,-3.0708,-3.1223,-3.1763,-3.2303,-3.283,-3.3031,-3.3081,-3.3081,-3.3081,-3.3081,-3.3081,-3.3081,-3.3081,-3.3081,-3.3081,-3.3081,-3.3081,-3.3081,-3.3093,-3.3156,-3.3608,-3.4324,-3.5366,-3.5994,-3.6358,-3.6358,-3.6358,-3.6358,-3.6358,-3.6358,-3.6358,-3.6358,-3.6358,-3.6358,-3.6358,-3.6358,-3.6358,-3.6358,-3.6358,-3.6358,-3.6358,-3.6358,-3.6358,-3.6358,-3.6358,-3.6358,-3.6358,-3.6358,-3.6358,-3.6358,-3.6358,-3.6181,-3.1292,-3.1321,-3.1364,-3.0925,-3.1029,-3.1131,-3.0687,-3.0568,-3.0568,-3.0568,0.0,0.0,0.0,0.0,0.0,0.0,-3.0393,-3.048,-3.0219,-3.0408,-3.0568,-3.0568,-3.0568,-3.0568,-3.0568,-3.0568,-3.0568,-3.0568,-3.0568,-3.0568,-3.0568,-3.0568,-3.0568,-3.0568,-3.0568,-3.0568,-3.0568,-3.0568,-3.0713,-3.0988,-3.1627,-3.228,-3.2933,-3.3572,-3.4066,-3.4414,-3.4414,-3.4414,-3.4332,-3.4045,-3.3894,-3.3825,-3.2635,-3.1696,-3.0895,-3.0545,-3.0139,-2.9829,-3.0055,-3.0143,-3.0231,-3.0771,-3.1298,-3.1838,-3.2403,-3.2805,-3.3081,-3.3081,-3.3081,-3.3081,-3.3081,-3.3081,-3.3081,-3.3081,-3.3081,-3.3081,-3.3081,-3.3081,-3.3081,-3.3081,-3.352,-3.4048,-3.4512,-3.5316,-3.5994,-3.632,-3.6358,-3.6358,-3.6358,-3.6358,-3.6358,-3.6358,-3.6358,-3.6358,-3.6358,-3.6358,-3.6358,-3.6358,-3.6358,-3.6358,-3.6358,-3.6358,-3.6358,-3.6358,-3.6358,-3.6358,-3.6358,-3.6358,-3.6358,-3.6358,-3.6358,-3.637,-3.1667,-3.1751,-3.1792,-3.1102,-3.1204,-3.1306,-3.0807,-3.0642,-3.0568,-3.0568,-3.0568,0.0,0.0,0.0,-3.051,-3.0335,0.0,-3.051,-3.0335,-3.0466,-3.0568,-3.0568,-3.0568,-3.0568,-3.0568,-3.0568,-3.0568,-3.0568,-3.0568,-3.0568,-3.0568,-3.0568,-3.0568,-3.0568,-3.0568,-3.0568,-3.0568,-3.0568,-3.0568,-3.0582,-3.1221,-3.1772,-3.2266,-3.3093,-3.3717,-3.4167,-3.4341,-3.4414,-3.4414,-3.4414,-3.4414,-3.4332,-3.3742,-3.272,-3.1476,-3.1044,-3.0406,-2.9792,-2.9792,-2.9792,-2.988,-3.0432,-3.0871,-3.1311,-3.2001,-3.2503,-3.2867,-3.3031,-3.3081,-3.3081,-3.3081,-3.3081,-3.3081,-3.3081,-3.3081,-3.3081,-3.3081,-3.3081,-3.3081,-3.3081,-3.3395,-3.3721,-3.3872,-3.4813,-3.568,-3.6081,-3.6257,-3.6358,-3.6358,-3.6358,-3.6358,-3.6358,-3.6358,-3.6358,-3.6358,-3.6358,-3.6358,-3.6358,-3.6358,-3.6358,-3.6358,-3.6358,-3.6358,-3.6358,-3.6358,-3.6358,-3.6358,-3.6358,-3.6358,-3.6358,-3.6358,-3.6358,-3.2656,-3.2201,-3.1977,-3.1437,-3.1043,-3.0821,-3.0821,-3.0702,-3.0568,-3.0568,-3.0568,-3.0568,-3.0568,-3.0568,-3.0379,-2.9755,-3.0176,0.0,0.0,-3.019,-3.0568,-3.0568,-3.0568,-3.0568,-3.0568,-3.0568,-3.0568,-3.0568,-3.0568,-3.0568,-3.0568,-3.0568,-3.0568,-3.0568,-3.0568,-3.0568,-3.0568,-3.0568,-3.0568,-3.0582,-3.1221,-3.1526,-3.1598,-3.289,-3.3485,-3.3529,-3.4153,-3.4414,-3.4414,-3.4414,-3.4414,-3.4414,-3.4346,-3.3894,-3.2932,-3.1476,-3.0406,-2.9792,-2.9792,-2.9792,-2.988,-3.0432,-3.062,-3.0834,-3.1888,-3.2227,-3.2353,-3.2918,-3.3081,-3.3081,-3.3081,-3.3081,-3.3081,-3.3081,-3.3081,-3.3081,-3.3081,-3.3081,-3.3081,-3.3081,-3.3093,-3.3269,-3.3809,-3.4813,-3.5554,-3.5567,-3.6031,-3.6358,-3.6358,-3.6358,-3.6358,-3.6358,-3.6358,-3.6358,-3.6358,-3.6358,-3.6358,-3.6358,-3.6358,-3.6358,-3.6358,-3.6358,-3.6358,-3.6358,-3.6358,-3.6358,-3.6358,-3.6358,-3.6358,-3.6358,-3.6358,-3.6358,-3.3039,-3.3161,-3.3177,-3.2089,-3.2018,-3.2018,-3.1043,-3.0762,-3.0702,-3.0642,-3.0568,-3.0568,-3.0568,-3.0568,-3.051,-3.0292,-3.0437,-3.0495,0.0,-3.0437,-3.0568,-3.0568,-3.0568,-3.0568,-3.0568,-3.0568,-3.0568,-3.0568,-3.0568,-3.0568,-3.0568,-3.0568,-3.0568,-3.0568,-3.0568,-3.0568,-3.0568,-3.0568,-3.0568,-3.0568,-3.08,-3.1105,-3.1555,-3.244,-3.3064,-3.3499,-3.4138,-3.4414,-3.4414,-3.4414,-3.4414,-3.4414,-3.4414,-3.3894,-3.3143,-3.2635,-3.1928,-3.122,-3.0696,-3.0558,-3.052,-3.0148,-3.0319,-3.0746,-3.1449,-3.1926,-3.234,-3.2918,-3.3081,-3.3081,-3.3081,-3.3081,-3.3081,-3.3081,-3.3081,-3.3081,-3.3081,-3.3081,-3.3081,-3.3081,-3.3081,-3.3131,-3.3319,-3.3972,-3.47,-3.5349,-3.6006,-3.6358,-3.6358,-3.6358,-3.6358,-3.6358,-3.6358,-3.6358,-3.6358,-3.6358,-3.6358,-3.6358,-3.6358,-3.6358,-3.6358,-3.6358,-3.6358,-3.6358,-3.6358,-3.6358,-3.6358,-3.6358,-3.6358,-3.6358,-3.6358,-3.6358,-3.3578,-3.3815,-3.3815,-3.2772,-3.2772,-3.2718,-3.1537,-3.1263,-3.1131,-3.1029,-3.0866,-3.0881,-3.1204,-3.0925,-3.0762,-3.0911,-3.0747,-3.0568,0.0,-3.0568,-3.0568,-3.0568,-3.0568,-3.0568,-3.0568,-3.0568,-3.0568,-3.0568,-3.0568,-3.0568,-3.0568,-3.0568,-3.0568,-3.0568,-3.0568,-3.0568,-3.0568,-3.0568,-3.0568,-3.0568,-3.0568,-3.0916,-3.154,-3.2208,-3.2861,-3.3499,-3.4138,-3.4414,-3.4414,-3.4414,-3.4414,-3.4414,-3.4414,-3.4113,-3.3589,-3.3297,-3.2563,-3.1636,-3.1119,-3.0758,-3.0406,-2.9921,-3.003,-3.0457,-3.1173,-3.1637,-3.2039,-3.2616,-3.2918,-3.3031,-3.283,-3.2918,-3.3081,-3.3081,-3.3081,-3.3081,-3.3081,-3.3081,-3.3081,-3.3081,-3.3081,-3.3144,-3.3332,-3.3822,-3.4437,-3.514,-3.5717,-3.6144,-3.6332,-3.6358,-3.6358,-3.6358,-3.6358,-3.6358,-3.6358,-3.6358,-3.6358,-3.6358,-3.6358,-3.6358,-3.6358,-3.6358,-3.6358,-3.6358,-3.6358,-3.6358,-3.6358,-3.6358,-3.6358,-3.6358,-3.6358,-3.6358]},{"header":{"parameterUnit":"m.s-1","parameterCategory":1,"la1":30.6,"la2":29.2853,"lo1":-89.7004,"lo2":-87.6739,"dy":0.0162,"dx":0.0183,"nx":112,"ny":82,"refTime":"2023-06-10T18:00:00:Z","depth":0,"parameterNumber":3,"parameterNumberName":"V-component_of_WINDS"},"data":[0.0,0.0,0.0,0.0,0.0,0.0,0.0,0.0,0.0,0.0,0.0,0.0,0.0,0.0,0.0,0.0,0.0,0.0,0.0,0.0,0.0,0.0,0.0,0.0,0.0,0.0,0.0,0.0,0.0,0.0,0.0,0.0,0.0,0.0,0.0,0.0,0.0,0.0,0.0,0.0,0.0,0.0,0.0,0.0,0.0,0.0,0.0,0.0,0.0,0.0,0.0,0.0,0.0,0.0,0.0,0.0,0.0,0.0,0.0,0.0,0.0,0.0,0.0,0.0,0.0,0.0,0.0,0.0,0.0,0.0,0.0,0.0,0.0,0.0,0.0,0.0,0.0,0.0,0.0,0.0,0.0,0.0,0.0,0.0,0.0,0.0,0.0,0.0,0.0,0.0,-2.5888,-2.7666,-2.9739,-3.0751,-3.0132,-2.9849,-2.8789,-2.6654,0.0,0.0,0.0,0.0,0.0,0.0,0.0,0.0,0.0,0.0,0.0,0.0,0.0,0.0,0.0,0.0,0.0,0.0,0.0,0.0,0.0,0.0,0.0,0.0,0.0,0.0,0.0,0.0,0.0,0.0,0.0,0.0,0.0,0.0,0.0,0.0,0.0,0.0,0.0,0.0,0.0,0.0,0.0,0.0,0.0,0.0,0.0,0.0,0.0,0.0,0.0,0.0,0.0,0.0,0.0,0.0,0.0,0.0,0.0,0.0,0.0,0.0,0.0,0.0,0.0,0.0,0.0,0.0,0.0,0.0,0.0,0.0,0.0,0.0,0.0,0.0,0.0,0.0,0.0,0.0,0.0,0.0,0.0,0.0,0.0,0.0,0.0,0.0,0.0,0.0,0.0,0.0,0.0,0.0,0.0,0.0,0.0,0.0,0.0,0.0,0.0,0.0,0.0,0.0,-2.6963,-2.9217,-3.039,-3.1204,-3.177,-3.0527,-2.9211,-2.8051,0.0,0.0,0.0,0.0,0.0,0.0,0.0,0.0,0.0,0.0,0.0,0.0,0.0,0.0,0.0,0.0,0.0,0.0,0.0,0.0,0.0,0.0,0.0,0.0,0.0,0.0,0.0,0.0,0.0,0.0,0.0,0.0,0.0,0.0,0.0,0.0,0.0,0.0,0.0,0.0,0.0,0.0,0.0,0.0,0.0,0.0,0.0,0.0,0.0,0.0,0.0,0.0,0.0,0.0,0.0,0.0,0.0,0.0,0.0,0.0,0.0,0.0,0.0,0.0,0.0,0.0,0.0,0.0,0.0,0.0,0.0,0.0,0.0,0.0,0.0,0.0,0.0,0.0,0.0,0.0,0.0,0.0,0.0,0.0,0.0,0.0,0.0,0.0,0.0,0.0,0.0,0.0,0.0,0.0,0.0,0.0,0.0,0.0,0.0,0.0,0.0,0.0,0.0,-2.6048,-2.7179,-2.8091,-2.9326,-3.0203,-3.0555,-2.9431,-2.8574,-2.8259,-2.7065,0.0,0.0,0.0,0.0,0.0,0.0,0.0,0.0,0.0,0.0,0.0,0.0,0.0,0.0,0.0,0.0,0.0,0.0,0.0,0.0,0.0,0.0,0.0,0.0,0.0,0.0,0.0,0.0,0.0,0.0,0.0,0.0,0.0,0.0,0.0,0.0,0.0,0.0,0.0,0.0,0.0,0.0,0.0,0.0,0.0,0.0,0.0,0.0,0.0,0.0,0.0,0.0,0.0,0.0,0.0,0.0,0.0,0.0,0.0,0.0,0.0,0.0,0.0,0.0,0.0,0.0,0.0,0.0,0.0,0.0,0.0,0.0,0.0,0.0,0.0,0.0,0.0,0.0,0.0,0.0,0.0,0.0,0.0,0.0,0.0,0.0,0.0,0.0,0.0,0.0,0.0,0.0,0.0,0.0,0.0,0.0,0.0,0.0,0.0,0.0,0.0,0.0,-2.6453,-2.7264,-2.7377,-2.8542,-2.928,-2.9178,-2.8559,-2.8181,-2.8143,-2.7431,0.0,0.0,0.0,0.0,0.0,0.0,0.0,0.0,0.0,0.0,0.0,0.0,0.0,0.0,0.0,0.0,0.0,0.0,0.0,0.0,0.0,0.0,0.0,0.0,0.0,0.0,0.0,0.0,0.0,0.0,0.0,0.0,0.0,0.0,0.0,0.0,0.0,0.0,0.0,0.0,0.0,0.0,0.0,0.0,0.0,0.0,0.0,0.0,0.0,0.0,0.0,0.0,0.0,0.0,0.0,0.0,0.0,0.0,0.0,0.0,0.0,0.0,0.0,0.0,0.0,0.0,0.0,0.0,0.0,0.0,0.0,0.0,0.0,0.0,0.0,0.0,0.0,0.0,0.0,0.0,0.0,0.0,0.0,0.0,0.0,0.0,0.0,0.0,0.0,0.0,0.0,0.0,0.0,0.0,0.0,0.0,0.0,0.0,0.0,0.0,0.0,0.0,-2.7003,-2.7492,-2.8968,-2.9228,-2.9259,-2.913,-2.9052,-2.8725,-2.8052,-2.7959,0.0,0.0,0.0,0.0,0.0,0.0,0.0,0.0,0.0,0.0,0.0,0.0,0.0,0.0,0.0,0.0,0.0,0.0,0.0,0.0,0.0,0.0,0.0,0.0,0.0,0.0,0.0,0.0,0.0,0.0,0.0,0.0,0.0,0.0,0.0,0.0,0.0,0.0,0.0,0.0,0.0,0.0,0.0,0.0,0.0,0.0,0.0,0.0,0.0,0.0,0.0,0.0,0.0,0.0,0.0,0.0,0.0,0.0,0.0,0.0,0.0,0.0,0.0,0.0,0.0,0.0,0.0,0.0,0.0,0.0,0.0,0.0,0.0,0.0,0.0,0.0,0.0,0.0,0.0,0.0,0.0,0.0,0.0,0.0,0.0,0.0,0.0,0.0,0.0,0.0,0.0,0.0,0.0,0.0,0.0,0.0,0.0,0.0,0.0,0.0,0.0,0.0,-2.7546,-2.7997,-2.8452,-2.8947,-2.9197,-2.9108,-2.9044,-2.8956,-2.8772,0.0,0.0,0.0,0.0,0.0,0.0,0.0,0.0,0.0,0.0,0.0,0.0,0.0,0.0,0.0,0.0,0.0,0.0,0.0,0.0,0.0,0.0,0.0,0.0,0.0,0.0,0.0,0.0,0.0,0.0,0.0,0.0,0.0,0.0,0.0,0.0,0.0,0.0,0.0,0.0,0.0,0.0,0.0,0.0,0.0,0.0,0.0,0.0,0.0,0.0,0.0,0.0,0.0,0.0,0.0,0.0,0.0,0.0,0.0,0.0,0.0,0.0,0.0,0.0,0.0,0.0,0.0,0.0,0.0,0.0,0.0,0.0,0.0,0.0,0.0,0.0,0.0,0.0,0.0,0.0,0.0,0.0,0.0,0.0,0.0,0.0,0.0,0.0,0.0,0.0,0.0,0.0,0.0,0.0,0.0,0.0,0.0,0.0,0.0,0.0,0.0,0.0,-2.7495,-2.8014,-2.8333,-2.8394,-2.8867,-2.9156,-2.9085,-2.904,-2.9062,-2.9178,0.0,0.0,0.0,0.0,0.0,0.0,0.0,0.0,0.0,0.0,0.0,0.0,0.0,0.0,0.0,0.0,0.0,0.0,0.0,0.0,0.0,0.0,0.0,0.0,0.0,0.0,0.0,0.0,0.0,0.0,0.0,0.0,0.0,0.0,0.0,0.0,0.0,0.0,0.0,0.0,0.0,0.0,0.0,0.0,0.0,0.0,0.0,0.0,0.0,0.0,0.0,0.0,0.0,0.0,0.0,0.0,0.0,0.0,0.0,0.0,0.0,0.0,0.0,0.0,0.0,0.0,0.0,0.0,0.0,0.0,0.0,0.0,0.0,0.0,0.0,0.0,0.0,0.0,0.0,0.0,0.0,0.0,0.0,0.0,0.0,0.0,0.0,0.0,0.0,0.0,0.0,0.0,0.0,0.0,0.0,0.0,0.0,0.0,0.0,0.0,0.0,0.0,-2.8506,-2.8315,-2.838,-2.9107,-2.92,-2.9134,-2.9017,-2.8994,-2.9062,0.0,0.0,0.0,0.0,0.0,0.0,0.0,0.0,0.0,0.0,0.0,0.0,0.0,0.0,0.0,0.0,0.0,0.0,0.0,0.0,0.0,0.0,0.0,0.0,0.0,0.0,0.0,0.0,0.0,0.0,0.0,0.0,0.0,0.0,0.0,0.0,0.0,0.0,0.0,0.0,0.0,0.0,0.0,0.0,0.0,0.0,0.0,0.0,0.0,0.0,0.0,0.0,0.0,0.0,0.0,0.0,0.0,0.0,0.0,0.0,0.0,0.0,0.0,0.0,0.0,0.0,0.0,0.0,0.0,0.0,0.0,0.0,0.0,0.0,0.0,0.0,0.0,0.0,0.0,0.0,0.0,0.0,0.0,0.0,0.0,0.0,0.0,0.0,0.0,0.0,0.0,0.0,0.0,0.0,0.0,0.0,0.0,0.0,0.0,0.0,0.0,0.0,0.0,-2.9007,-2.8977,-2.8944,-2.9115,-2.9112,-2.9089,-2.9017,-2.8994,-2.904,-2.9112,0.0,0.0,0.0,0.0,0.0,0.0,0.0,0.0,0.0,0.0,0.0,0.0,0.0,0.0,0.0,0.0,0.0,0.0,0.0,0.0,0.0,0.0,0.0,0.0,0.0,0.0,0.0,0.0,0.0,0.0,0.0,0.0,0.0,0.0,0.0,0.0,0.0,0.0,0.0,0.0,0.0,0.0,0.0,0.0,0.0,0.0,0.0,0.0,0.0,0.0,0.0,0.0,0.0,0.0,0.0,0.0,0.0,0.0,0.0,0.0,0.0,0.0,0.0,0.0,0.0,0.0,0.0,0.0,0.0,0.0,0.0,0.0,0.0,0.0,0.0,0.0,0.0,0.0,0.0,0.0,0.0,0.0,0.0,0.0,0.0,0.0,0.0,0.0,0.0,0.0,0.0,0.0,0.0,0.0,0.0,0.0,0.0,0.0,0.0,0.0,0.0,0.0,-2.9338,-2.9542,-2.9654,-2.9609,-2.9568,-2.9674,-2.9934,-2.9659,-2.9646,-3.0047,0.0,0.0,0.0,0.0,0.0,0.0,0.0,0.0,0.0,0.0,0.0,0.0,0.0,0.0,0.0,0.0,0.0,0.0,0.0,0.0,0.0,0.0,0.0,0.0,0.0,0.0,0.0,0.0,0.0,0.0,0.0,0.0,0.0,0.0,0.0,0.0,0.0,0.0,0.0,0.0,0.0,0.0,0.0,0.0,0.0,0.0,0.0,0.0,0.0,0.0,0.0,0.0,0.0,0.0,0.0,0.0,0.0,0.0,0.0,0.0,0.0,0.0,0.0,0.0,0.0,0.0,0.0,0.0,0.0,0.0,0.0,0.0,0.0,0.0,0.0,0.0,0.0,0.0,0.0,0.0,0.0,0.0,0.0,0.0,0.0,0.0,0.0,0.0,0.0,0.0,0.0,0.0,0.0,0.0,0.0,0.0,0.0,0.0,0.0,0.0,0.0,0.0,-2.9589,-3.0052,-3.0388,-3.0396,-3.0396,-3.0667,-3.1354,-3.0723,-3.0656,-3.144,0.0,0.0,0.0,0.0,0.0,0.0,0.0,0.0,0.0,0.0,0.0,0.0,0.0,0.0,0.0,0.0,0.0,0.0,0.0,0.0,0.0,0.0,0.0,0.0,0.0,0.0,0.0,0.0,0.0,0.0,0.0,0.0,0.0,0.0,0.0,0.0,0.0,0.0,0.0,0.0,0.0,0.0,0.0,0.0,0.0,0.0,0.0,0.0,0.0,0.0,0.0,0.0,0.0,0.0,0.0,0.0,0.0,0.0,0.0,0.0,-2.9352,-2.8467,0.0,0.0,0.0,0.0,0.0,0.0,0.0,0.0,0.0,0.0,0.0,0.0,0.0,0.0,0.0,0.0,0.0,0.0,0.0,0.0,0.0,0.0,0.0,0.0,0.0,0.0,0.0,0.0,0.0,0.0,0.0,0.0,0.0,0.0,0.0,0.0,0.0,0.0,0.0,0.0,-3.0297,-3.0298,-3.0472,-3.1097,-3.117,-3.1225,-3.1384,-3.1237,-3.1201,-3.1409,-3.19,0.0,0.0,0.0,0.0,0.0,0.0,0.0,0.0,0.0,0.0,0.0,0.0,0.0,0.0,0.0,0.0,0.0,0.0,0.0,0.0,0.0,0.0,0.0,0.0,0.0,0.0,0.0,0.0,0.0,0.0,0.0,0.0,0.0,0.0,0.0,0.0,0.0,0.0,0.0,0.0,0.0,0.0,0.0,0.0,0.0,0.0,0.0,0.0,0.0,0.0,0.0,0.0,0.0,0.0,0.0,0.0,0.0,0.0,0.0,-3.1181,-3.0102,0.0,0.0,0.0,0.0,0.0,0.0,0.0,0.0,0.0,0.0,0.0,0.0,0.0,0.0,0.0,0.0,0.0,0.0,0.0,0.0,0.0,0.0,0.0,0.0,0.0,0.0,0.0,0.0,0.0,0.0,0.0,0.0,0.0,0.0,0.0,0.0,0.0,0.0,0.0,0.0,-3.0984,-3.1236,-3.1513,-3.1935,-3.1971,-3.2137,-3.2522,-3.2192,-3.2137,-3.2522,-3.2621,0.0,0.0,0.0,0.0,0.0,0.0,0.0,0.0,0.0,0.0,0.0,0.0,0.0,0.0,0.0,0.0,0.0,0.0,0.0,0.0,0.0,0.0,0.0,0.0,0.0,0.0,0.0,0.0,0.0,0.0,0.0,0.0,0.0,0.0,0.0,0.0,0.0,0.0,0.0,0.0,0.0,0.0,0.0,0.0,0.0,0.0,0.0,0.0,0.0,0.0,0.0,0.0,0.0,-3.3166,-3.3942,-3.4036,-3.485,-3.5228,-3.5134,-3.3261,-3.2313,-3.2026,-3.1186,0.0,0.0,0.0,0.0,0.0,0.0,0.0,0.0,0.0,0.0,0.0,0.0,0.0,0.0,0.0,0.0,0.0,0.0,0.0,0.0,0.0,0.0,-3.1808,-3.2316,-3.3034,-3.3487,-3.3006,0.0,0.0,0.0,0.0,0.0,0.0,0.0,0.0,0.0,0.0,0.0,-3.1755,-3.2293,-3.2669,-3.2797,-3.2816,-3.3091,-3.3733,-3.3201,-3.3091,-3.3752,-3.3183,-3.3136,0.0,0.0,0.0,0.0,0.0,0.0,0.0,0.0,0.0,0.0,0.0,0.0,0.0,0.0,0.0,0.0,0.0,0.0,0.0,0.0,0.0,0.0,0.0,0.0,0.0,0.0,0.0,0.0,0.0,0.0,0.0,0.0,-2.8106,-2.8979,0.0,0.0,0.0,0.0,0.0,0.0,0.0,0.0,0.0,0.0,0.0,0.0,0.0,-3.0866,-3.1636,-3.2536,-3.3185,-3.3554,-3.4866,-3.568,-3.6039,-3.6691,-3.6969,-3.6914,-3.5874,0.0,-3.3563,-3.2864,0.0,0.0,0.0,0.0,0.0,0.0,0.0,0.0,0.0,0.0,0.0,0.0,0.0,0.0,0.0,0.0,0.0,0.0,0.0,0.0,0.0,0.0,-3.3242,-3.3318,-3.3901,-3.4365,-3.4127,-3.4254,-3.4205,-3.3449,-3.3961,-3.3999,0.0,0.0,0.0,0.0,0.0,0.0,-3.2734,-3.2674,-3.2871,-3.3568,-3.3642,-3.3678,-3.3788,-3.3697,-3.3697,-3.3788,-3.3697,-3.3678,-3.3815,-3.3697,0.0,0.0,0.0,0.0,0.0,0.0,0.0,0.0,0.0,0.0,0.0,0.0,0.0,0.0,0.0,0.0,0.0,0.0,0.0,0.0,0.0,0.0,0.0,0.0,0.0,0.0,0.0,0.0,0.0,-2.7381,-2.8402,-2.9314,-2.9114,-2.8911,0.0,0.0,0.0,0.0,0.0,0.0,0.0,0.0,0.0,-3.2088,-3.2496,-3.3127,-3.3985,-3.4806,-3.5539,-3.6152,-3.7673,-3.8478,-3.8672,-3.9396,-3.972,-3.9664,-3.8944,-3.829,-3.7494,-3.4467,-3.3236,-3.3198,0.0,0.0,0.0,0.0,-3.3114,-3.3699,-3.4199,-3.4661,-3.5045,-3.5045,0.0,0.0,0.0,0.0,0.0,0.0,0.0,-3.2778,-3.4056,-3.4182,-3.4164,-3.4979,-3.4989,-3.4797,-3.4722,-3.4427,-3.4144,-3.3926,-3.422,-3.4304,-3.3588,-3.3383,0.0,0.0,0.0,-3.2636,-3.3401,-3.3379,-3.3421,-3.3752,-3.3807,-3.3807,-3.3807,-3.3807,-3.3807,-3.3807,-3.3807,-3.4009,-3.4468,-3.4486,-3.4871,0.0,0.0,0.0,0.0,0.0,0.0,0.0,0.0,0.0,0.0,0.0,0.0,0.0,0.0,0.0,0.0,0.0,0.0,0.0,0.0,0.0,0.0,0.0,0.0,0.0,0.0,0.0,0.0,-2.792,-2.8682,-2.9332,-2.9407,-2.9407,0.0,0.0,0.0,0.0,0.0,0.0,-3.131,-3.2244,-3.3194,-3.4132,-3.4814,-3.5553,-3.6408,-3.7225,-3.7984,-3.8633,-4.0049,-4.0737,-4.0794,-4.1341,-4.159,-4.1553,-4.112,-4.0921,-4.0611,-3.6484,-3.4793,-3.4699,-3.3904,-3.3673,-3.3794,-3.3794,-3.4312,-3.5128,-3.5975,-3.6511,-3.6891,-3.7086,-3.6607,-3.5956,-3.5889,0.0,0.0,0.0,0.0,-3.398,-3.5678,-3.5539,-3.5181,-3.625,-3.592,-3.5349,-3.5349,-3.4871,-3.4383,-3.4216,-3.4184,-3.426,-3.4398,-3.3803,0.0,-3.4418,-3.3845,-3.3611,-3.4402,-3.4458,-3.4431,-3.4431,-3.4431,-3.4431,-3.4431,-3.4431,-3.4431,-3.4431,-3.4431,-3.4706,-3.533,-3.5349,-3.5734,-3.6578,0.0,0.0,0.0,0.0,0.0,0.0,0.0,0.0,0.0,0.0,0.0,0.0,0.0,0.0,0.0,0.0,0.0,0.0,0.0,0.0,0.0,0.0,0.0,0.0,0.0,0.0,0.0,0.0,0.0,-2.9388,-2.9407,0.0,0.0,0.0,0.0,-3.0485,-3.1244,-3.2046,-3.2846,-3.4444,-3.5708,-3.6508,-3.7281,-3.8098,-3.8915,-3.977,-4.0318,-4.0565,-4.1232,-4.1642,-4.1815,-4.1651,-4.159,-4.159,-4.1582,-4.1564,-4.137,-3.9147,-3.8256,-3.818,-3.7348,-3.7046,-3.7046,-3.7046,-3.7105,-3.7256,-3.8069,-3.7881,-3.7389,-3.8165,-3.7881,-3.7179,-3.6983,-3.7012,0.0,0.0,-3.7084,-3.7022,-3.6975,-3.6812,-3.6646,-3.6527,-3.6362,-3.6229,-3.6229,-3.6193,-3.5697,-3.4127,-3.3868,-3.3921,-3.3947,0.0,-3.4238,-3.5026,-3.511,-3.534,-3.6093,-3.6174,-3.6156,-3.6156,-3.6156,-3.6156,-3.6156,-3.6156,-3.6156,-3.6156,-3.6156,-3.6193,-3.6229,-3.6229,-3.6597,-3.7434,-3.6688,0.0,0.0,0.0,0.0,0.0,0.0,0.0,0.0,0.0,0.0,0.0,0.0,0.0,0.0,0.0,0.0,0.0,0.0,0.0,0.0,0.0,0.0,0.0,0.0,0.0,0.0,0.0,0.0,-3.0894,-3.1857,0.0,-3.2488,-3.2488,-3.2823,-3.3677,-3.4011,-3.4754,-3.6073,-3.7206,-3.8209,-3.9045,-3.9863,-4.0661,-4.146,-4.1794,-4.2244,-4.2816,-4.3044,-4.3193,-4.3245,-4.3193,-4.3132,-4.3132,-4.3132,-4.3132,-4.3069,-4.1792,-4.0678,-3.9631,-3.8789,-3.8533,-3.8653,-3.8653,-3.909,-3.9712,-4.0015,-4.028,-4.0397,-3.9602,-3.9148,-3.8764,-3.8009,-3.746,-3.7186,-3.7566,-3.7268,-3.6957,-3.7396,-3.7802,-3.8052,-3.7985,-3.7916,-3.7698,-3.7165,-3.667,-3.6119,-3.5514,-3.5432,-3.5432,-3.5432,-3.5459,-3.5598,-3.5854,-3.5891,-3.6001,-3.6266,-3.6303,-3.6303,-3.6303,-3.6303,-3.6303,-3.6303,-3.6303,-3.6303,-3.6303,-3.6303,-3.6523,-3.7037,-3.7055,-3.7441,-3.8267,-3.7991,-3.7734,0.0,0.0,0.0,0.0,0.0,0.0,0.0,0.0,0.0,0.0,0.0,0.0,0.0,0.0,0.0,0.0,0.0,0.0,0.0,0.0,0.0,0.0,0.0,0.0,0.0,0.0,-3.1778,-3.2892,-3.4234,-3.5033,-3.5033,-3.5033,-3.5386,-3.624,-3.6556,-3.7299,-3.8674,-3.9751,-4.0606,-4.1181,-4.198,-4.2667,-4.3206,-4.3206,-4.3466,-4.4005,-4.4005,-4.4005,-4.4005,-4.4005,-4.4005,-4.4005,-4.4005,-4.4005,-4.3968,-4.3429,-4.2575,-4.1497,-4.0383,-4.003,-4.0147,-4.0147,-4.0589,-4.1193,-4.1193,-4.1763,-4.2234,-4.086,-4.022,-3.9852,-3.9177,-3.8583,-3.8215,-3.859,-3.8461,-3.8368,-3.8839,-3.9305,-3.962,-3.9602,-3.9357,-3.8964,-3.8414,-3.7679,-3.711,-3.711,-3.667,-3.6303,-3.6303,-3.6303,-3.6376,-3.6652,-3.6688,-3.6798,-3.7074,-3.711,-3.711,-3.711,-3.711,-3.711,-3.711,-3.711,-3.711,-3.711,-3.711,-3.7349,-3.7863,-3.79,-3.8157,-3.8689,-3.8564,-3.8177,-3.7485,0.0,0.0,0.0,0.0,0.0,0.0,0.0,0.0,0.0,0.0,0.0,0.0,0.0,0.0,0.0,0.0,0.0,0.0,0.0,0.0,0.0,0.0,0.0,-3.1782,-3.2458,-3.3673,-3.5314,-3.63,-3.6853,-3.6835,-3.6835,-3.7188,-3.7986,-3.8785,-3.9602,-4.0457,-4.198,-4.2835,-4.2835,-4.3596,-4.4005,-4.4005,-4.4005,-4.4005,-4.4005,-4.4005,-4.4005,-4.4005,-4.4005,-4.4005,-4.4005,-4.4005,-4.4005,-4.4005,-4.4005,-4.4005,-4.3856,-4.2277,-4.1664,-4.1664,-4.1664,-4.1664,-4.1664,-4.1664,-4.2184,-4.2705,-4.1887,-4.1107,-4.0457,-4.0457,-4.0457,-4.0391,-4.0304,-4.0878,-4.1459,-4.1329,-4.1254,-4.124,-4.1204,-4.057,-3.9955,-3.99,-3.9294,-3.8726,-3.8707,-3.7441,-3.6376,-3.6376,-3.6376,-3.6633,-3.7404,-3.7533,0.0,-3.8597,-3.8726,-3.8744,-3.8744,-3.8762,-3.8762,-3.8744,-3.8744,-3.8726,-3.8707,-3.8707,-3.8707,-3.8707,-3.8676,-3.8676,-3.8713,-3.8322,-3.7933,-3.7577,0.0,0.0,0.0,0.0,0.0,0.0,0.0,0.0,0.0,0.0,0.0,0.0,0.0,0.0,0.0,0.0,0.0,0.0,0.0,0.0,0.0,0.0,-3.3552,-3.3363,-3.5088,-3.6804,-3.7868,-3.9285,-4.0195,-4.0253,-4.0253,-4.0587,-4.1386,-4.1664,-4.2147,-4.2965,-4.3429,-4.367,-4.367,-4.3875,-4.4005,-4.4005,-4.4005,-4.4005,-4.4005,-4.4005,-4.4005,-4.4005,-4.4005,-4.4005,-4.4005,-4.4005,-4.4005,-4.4005,-4.4005,-4.4005,-4.3968,-4.3503,-4.3336,-4.3336,-4.3336,-4.3336,-4.3336,-4.3336,-4.3485,-4.354,-4.2723,-4.2314,-4.2129,-4.2129,-4.1709,-4.1315,-4.186,-4.1656,-4.1267,-4.1235,-4.1613,-4.1842,-4.1273,-4.1368,-4.1313,-4.0139,-3.9717,-3.9405,-3.8817,-3.834,-3.8046,-3.8046,-3.8046,-3.812,-3.834,-3.8377,-3.845,-3.867,-3.9203,-3.957,-3.957,-4.0102,-4.0212,-3.9625,-3.957,-3.9313,-3.8744,-3.8707,-3.8707,-3.8707,-3.8401,-3.8373,-3.8618,-3.8528,-3.8704,0.0,0.0,0.0,0.0,0.0,0.0,0.0,0.0,0.0,0.0,0.0,0.0,0.0,0.0,0.0,0.0,0.0,0.0,0.0,0.0,0.0,0.0,-3.4522,-3.6158,-3.6867,-3.7937,-3.9102,-4.0277,-4.1619,-4.2495,-4.2508,-4.2539,-4.2724,-4.3219,-4.3256,-4.3491,-4.3968,-4.4005,-4.4005,-4.4005,-4.4005,-4.4005,-4.4005,-4.4005,-4.4005,-4.4005,-4.4005,-4.4005,-4.4005,-4.4005,-4.4005,-4.4005,-4.4005,-4.4005,-4.4005,-4.4005,-4.4005,-4.4005,0.0,0.0,0.0,0.0,-4.4005,-4.4005,-4.4005,-4.4005,-4.3912,-4.3448,-4.3045,-4.2755,-4.2755,-4.236,-4.202,-4.2469,-4.2392,-4.2184,-4.2184,-4.2466,-4.2671,-4.2213,-4.2213,-4.2047,-4.1111,-4.0634,-4.0267,-3.9808,-3.9441,0.0,-3.9662,-3.9148,-3.8707,-3.8707,-3.9001,-3.9203,-3.9203,-3.9918,-4.0396,-4.0396,-4.0836,-4.0928,-4.0451,-4.0229,0.0,0.0,0.0,-3.915,-3.915,-3.8923,0.0,0.0,0.0,-3.9005,-3.9317,-3.9592,0.0,0.0,-3.9118,-3.9153,0.0,0.0,0.0,0.0,0.0,0.0,0.0,0.0,0.0,0.0,0.0,0.0,0.0,0.0,0.0,0.0,-3.7496,-3.968,-4.1295,-4.1011,-4.113,-4.2382,-4.3277,-4.3771,-4.3804,-4.3804,-4.3818,-4.3865,-4.3883,-4.3929,-4.3974,-4.3974,0.0,0.0,0.0,-4.4098,-4.4283,-4.4098,-4.4061,-4.4153,-4.4042,-4.4005,-4.4005,-4.4005,-4.4005,-4.4005,-4.4005,-4.4005,-4.4005,-4.4005,-4.4005,-4.4005,-4.4005,-4.4005,-4.4005,-4.4005,-4.4005,-4.4005,-4.4005,0.0,0.0,-4.3974,-4.3478,-4.281,-4.281,-4.2728,-4.2595,-4.2548,-4.303,-4.3582,-4.3532,-4.3497,-4.3497,-4.3497,-4.2947,-4.2415,-4.2323,-4.1754,-4.1222,-4.113,-4.0524,-4.0267,-4.0983,-3.9845,-3.8872,-3.8964,-3.957,-4.0029,-4.0029,-4.0744,-4.1258,-4.1258,-4.1332,0.0,-4.1258,-4.083,-4.0492,-4.0402,-4.0034,-3.9783,-3.9743,-3.9743,-3.9598,-3.9273,-3.9273,-3.9129,-3.8853,-3.9508,-3.9836,-3.9865,-3.9898,-3.954,0.0,0.0,0.0,0.0,0.0,0.0,0.0,0.0,0.0,0.0,0.0,0.0,0.0,0.0,0.0,-3.7624,-4.0029,-4.2176,-4.3791,-4.4433,-4.4395,-4.3471,-4.3523,-4.3667,-4.3804,-4.3804,-4.3804,-4.3837,-4.3837,-4.3851,-4.3929,-4.3929,-4.4276,-4.5026,-4.4376,-4.4655,-4.5992,-4.4674,-4.4358,-4.5026,-4.4339,0.0,-4.4005,-4.4005,-4.4005,-4.4005,-4.4005,-4.4005,-4.4005,-4.4005,-4.4005,-4.4005,-4.4005,-4.4005,-4.4005,-4.4005,-4.4005,-4.4005,-4.4005,-4.3974,-4.3929,-4.3929,-4.3772,-4.3597,-4.3597,-4.3513,0.0,-4.3395,-4.3437,-4.3532,-4.3479,-4.3497,-4.3497,-4.3497,-4.3369,-4.3075,-4.2433,-4.2176,-4.1882,-4.124,-4.0983,-4.0928,-4.1075,-4.0304,-3.9882,-4.0543,-4.0781,-4.0873,-4.0873,-4.157,-4.2066,-4.2066,-4.2653,-4.2763,-4.2121,-4.1649,-4.1089,-4.0438,-4.0034,-3.9665,-3.9317,-3.9317,-3.9406,-3.9593,-3.961,-3.9876,-4.044,-4.0578,-4.0647,-4.0647,-4.0678,-4.0608,0.0,0.0,0.0,0.0,0.0,0.0,0.0,0.0,0.0,0.0,0.0,-3.2396,0.0,0.0,-3.7867,-4.0125,-4.2194,-4.392,-4.5131,-4.5645,-4.559,-4.4853,-4.4412,-4.4173,-4.426,-4.3892,-4.3652,-4.3719,-4.3719,-4.3753,-4.3851,-4.4239,-4.4679,-4.5138,-4.5138,-4.5508,-4.639,-4.5574,-4.5403,-4.5881,-4.5045,-4.4655,-4.4636,-4.4191,-4.4005,-4.4005,-4.4005,-4.4005,-4.4005,-4.4005,-4.4005,-4.4005,-4.4005,-4.4005,-4.4005,-4.4005,-4.3974,-4.3961,-4.3961,-4.3915,-4.3851,-4.3851,-4.3786,-4.3719,-4.3719,-4.3634,-4.3548,-4.3548,-4.3532,-4.3497,-4.3497,-4.3497,-4.3497,-4.3497,-4.3497,-4.3387,-4.2983,-4.2892,-4.2782,-4.2378,-4.1992,-4.1827,-4.2231,-4.1625,-4.1093,-4.1111,-4.1442,-4.1699,-4.1699,-4.2396,-4.2892,-4.2892,-4.3066,-4.3032,-4.2631,-4.1965,-4.1291,-4.0671,-4.0461,-4.0281,-4.006,-4.006,-4.0117,-4.0284,-4.0284,-4.0491,-4.0888,-4.0888,-4.0888,-4.0888,-4.0888,-4.0888,0.0,0.0,0.0,0.0,0.0,0.0,0.0,0.0,-3.0803,-3.2274,-3.3495,-3.4854,-3.6653,-3.8583,-4.0563,-4.2658,-4.4232,-4.5461,-4.625,-4.6232,-4.614,-4.614,-4.5278,-4.4654,-4.4488,-4.3883,-4.3513,-4.3582,-4.3747,-4.38,-4.3771,-4.4675,-4.521,-4.5226,-4.5838,-4.6387,-4.6734,-4.6437,-4.6416,-4.6684,-4.5718,-4.5254,-4.5217,-4.4363,-4.3974,-4.3942,-4.3942,-4.3942,-4.3942,-4.3942,-4.3942,-4.3942,-4.3942,-4.3942,-4.3942,-4.3974,-4.3961,-4.3915,-4.3883,-4.3818,-4.3753,-4.3753,-4.3667,-4.3582,-4.3582,-4.3548,-4.3497,-4.3497,-4.3497,-4.3497,-4.3497,-4.3497,-4.3497,-4.3497,-4.3497,-4.3497,-4.3497,-4.3497,-4.3497,-4.3497,-4.2983,-4.2745,-4.3387,-4.2947,-4.2304,-4.1662,-4.2121,-4.2525,-4.2525,-4.3094,-4.3479,-4.3375,-4.3142,-4.2957,-4.2768,-4.199,-4.1328,-4.0918,-4.0888,-4.0888,-4.0888,-4.0888,-4.0888,-4.0888,-4.0888,-4.0888,-4.0888,-4.0888,-4.0888,-4.0888,-4.0888,-4.0888,-2.6137,-2.6725,-2.7405,-2.8109,-2.8765,-2.9817,0.0,0.0,-3.4012,-3.5492,-3.6708,-3.7893,-3.9258,-4.1085,-4.3066,-4.515,-4.625,-4.7131,-4.7921,-4.7425,-4.6985,-4.6985,-4.5626,-4.4415,-4.3699,-4.3534,-4.3479,-4.3532,-4.4158,-4.4285,-4.3671,-4.5107,-4.6006,-4.6057,-4.6133,-4.6906,-4.8346,-4.6925,-4.6627,-4.7469,-4.586,-4.5101,-4.5082,-4.4267,-4.3883,-4.3837,-4.3837,-4.3837,-4.3837,-4.3837,-4.3837,-4.3837,-4.3837,-4.3837,-4.3837,-4.3883,-4.3897,-4.3897,-4.3818,-4.3719,-4.3615,-4.3615,-4.3548,-4.3532,-4.3532,-4.3532,-4.3497,-4.3497,-4.3497,-4.3497,-4.3497,-4.3497,-4.3497,-4.3497,-4.3497,-4.3497,-4.3497,-4.3497,-4.3497,-4.3497,-4.3424,-4.3387,-4.3461,-4.3424,-4.3332,-4.324,-4.3296,-4.3369,-4.3369,-4.3424,-4.3375,-4.3013,-4.3268,-4.3124,-4.232,-4.1778,-4.1328,-4.0918,-4.0888,-4.0888,-4.0888,-4.0888,-4.0888,-4.0888,-4.0888,-4.0888,-4.0888,-4.0888,-4.0888,-4.0888,-4.0888,-4.0888,-2.6208,-2.7334,-2.8562,0.0,-3.0627,-3.2076,-3.4352,-3.549,-3.6558,-3.8285,-3.9529,-4.0665,-4.1695,-4.3322,-4.4885,0.0,-4.7108,-4.7755,-4.7627,-4.7333,-4.6599,-4.5168,-4.4819,-4.458,-4.4232,-4.3754,-4.3497,-4.3497,-4.3809,-4.4048,-4.423,-4.4891,-4.5496,-4.5992,-4.6488,-4.7095,-4.7831,-4.7629,-4.7775,-4.8179,-4.7013,-4.6459,-4.6422,-4.5592,-4.5208,-4.5192,-4.5192,-4.4949,-4.4506,-4.4506,-4.4229,-4.3804,-4.3804,-4.3804,-4.3804,-4.3818,-4.3767,-4.3734,-4.3701,-4.3634,-4.3548,-4.3548,-4.3513,-4.3497,-4.3497,-4.3497,-4.3497,-4.3497,-4.3497,-4.3497,-4.3497,-4.3497,-4.3497,-4.3497,-4.3497,-4.3497,-4.3497,-4.3497,-4.3497,-4.3497,-4.3497,-4.3497,-4.3497,-4.3497,-4.3497,-4.3497,-4.3497,-4.3497,-4.3497,-4.3304,-4.2864,-4.2157,-4.2239,-4.2098,-4.1507,-4.1237,-4.1088,-4.0935,-4.0888,-4.0888,-4.0888,-4.0888,-4.0888,-4.0888,-4.0888,-4.0888,-4.0888,-4.0888,-4.0888,-4.0888,-4.0888,-4.0888,-2.6726,0.0,0.0,-3.1539,-3.3059,-3.4766,-3.7042,-3.8163,-3.9116,-4.0488,-4.1608,-4.2523,-4.3059,-4.4333,-4.5505,-4.5822,-4.6797,-4.7234,-4.6515,-4.6154,-4.5297,-4.3541,-4.3467,-4.3667,-4.403,-4.3699,-4.3497,-4.3497,-4.3901,-4.4323,-4.469,-4.5333,-4.5865,-4.6214,-4.7021,-4.7481,-4.7574,-4.8162,-4.8476,-4.855,-4.7757,-4.7369,-4.7332,-4.6504,-4.6118,-4.6118,-4.6118,-4.5768,-4.525,-4.5029,-4.4518,-4.3862,-4.3624,-4.3532,-4.3532,-4.3532,-4.3566,-4.3582,-4.3582,-4.3548,-4.3497,-4.3497,-4.3644,-4.3791,-4.3552,-4.3644,-4.3773,-4.3552,-4.3497,-4.3497,-4.3497,-4.3497,-4.3497,-4.3497,-4.3497,-4.3497,-4.3497,-4.3497,-4.3497,-4.3497,-4.3497,-4.3444,-4.3339,-4.3339,-4.3304,-4.316,-4.3124,-4.3178,-4.3339,-4.2864,-4.2279,-4.1735,-4.149,-4.1237,-4.1088,-4.0965,-4.0888,-4.0888,-4.0888,-4.0888,-4.0888,-4.0871,-4.084,-4.084,-4.0823,-4.0776,-4.0776,-4.0776,-4.0776,-4.0776,-4.0776,-4.0776,0.0,0.0,-3.1369,-3.4318,-3.6215,-3.7939,-4.0215,-4.1319,-4.1871,-4.1954,-4.261,-4.3068,-4.2752,-4.3722,-4.4578,-4.4657,-4.5088,-4.5228,-4.476,-4.3696,-4.301,-4.2938,-4.156,-4.1086,0.0,-4.3057,-4.3497,-4.3497,-4.4947,-4.5498,-4.4745,-4.6929,-4.7847,-4.7113,-4.7847,-4.8269,-4.8269,-4.8288,-4.8363,-4.8494,-4.7703,-4.7298,-4.7261,-4.636,-4.5902,-4.5902,-4.5902,-4.5883,-4.5792,-4.5021,-4.4455,-4.4025,-4.3228,-4.292,-4.292,-4.292,-4.3214,-4.3582,-4.3532,-4.3479,-4.3497,-4.3497,-4.403,-4.4525,-4.3736,-4.4048,-4.4507,-4.3718,-4.3497,-4.3497,-4.3497,-4.3497,-4.3497,-4.3497,-4.3497,-4.3497,-4.3497,-4.3497,-4.3497,-4.3497,-4.3497,-4.3375,-4.3013,-4.292,-4.275,-4.2338,-4.2239,-4.2418,-4.2844,-4.2115,-4.1692,-4.2115,-4.1418,-4.1088,-4.1445,-4.1117,-4.0888,-4.0888,-4.0888,-4.0888,-4.0888,-4.0793,-4.0697,-4.0697,-4.0583,-4.0534,-4.0534,-4.0534,-4.0534,-4.0534,-4.0534,-4.0534,-2.9665,0.0,-3.5559,-3.7077,-3.8974,-4.094,-4.2733,-4.294,-4.2973,-4.3406,-4.2526,-4.1657,-4.1504,-4.1665,-4.1998,-4.2528,-4.3429,-4.4037,-4.3835,-4.3471,-4.2835,-4.1755,-4.1611,0.0,0.0,0.0,0.0,-4.3442,-4.42,-4.4892,-4.548,-4.5988,-4.6497,-4.7075,-4.737,-4.7517,-4.7517,-4.8031,-4.8306,-4.8344,-4.8087,-4.7958,-4.794,-4.7627,-4.7327,-4.7015,-4.7015,-4.6545,-4.5773,-4.5824,-4.5446,-4.4838,-4.4874,-4.4894,-4.4839,-4.4291,-4.418,-4.4248,-4.3681,-4.3497,-4.3589,-4.4121,-4.4488,-4.4764,-4.5002,-4.4711,-4.4233,-4.396,-4.3281,-4.2693,-4.3032,-4.3105,-4.316,-4.3444,-4.3497,-4.3497,-4.3497,-4.3304,-4.3105,-4.3105,-4.2864,-4.2598,-4.2458,-4.2418,-4.2297,-4.1821,-4.199,-4.2157,-4.199,-4.1692,-4.1445,-4.1328,-4.1088,-4.0965,-4.1088,-4.0965,-4.0888,-4.0888,-4.084,-4.0745,-4.0745,-4.0631,-4.0583,-4.0583,-4.0534,-4.0485,-4.0485,-4.0485,-4.0485,-4.0485,-4.0485,-4.0485,-3.2043,-3.5138,-3.8249,-3.9836,-4.1526,-4.3061,-4.4044,-4.3749,-4.3128,-4.2716,-4.1267,-3.9888,-3.9353,-3.9242,-3.9452,-4.0053,-4.0923,-4.1689,-4.2008,-4.1977,-4.1618,-4.0849,-4.0973,-4.1189,0.0,0.0,0.0,-4.3195,-4.3842,-4.4538,-4.5358,-4.5639,-4.6199,-4.7011,-4.703,-4.703,-4.703,-4.752,-4.7856,-4.8035,-4.8035,-4.8035,-4.8035,-4.7875,-4.7487,-4.6927,-4.6927,-4.6485,-4.5659,-4.545,-4.5173,-4.4921,-4.4505,-4.4569,-4.4885,-4.4222,-4.4279,-4.454,-4.3889,-4.3688,-4.378,-4.4414,-4.4831,-4.5103,-4.534,-4.5052,-4.4615,-4.4327,-4.3778,-4.323,-4.308,-4.3183,-4.3282,-4.3086,-4.305,-4.305,-4.305,-4.2826,-4.2634,-4.2634,-4.2418,-4.2157,-4.199,-4.1821,-4.1622,-4.1328,-4.149,-4.1578,-4.1328,-4.1283,-4.1209,-4.0918,-4.084,-4.084,-4.084,-4.0776,-4.0776,-4.0776,-4.0697,-4.0648,-4.0648,-4.0485,-4.0436,-4.0436,-4.037,-4.0387,-4.0387,-4.0387,-4.0387,-4.0387,-4.0387,-4.0387,-3.5023,-3.7381,-3.9577,-4.2558,-4.3751,-4.4268,-4.4234,-4.3578,-4.2354,-4.0095,-3.8957,-3.7905,0.0,0.0,-3.6996,-3.737,-3.7847,-3.8513,-3.9634,-3.9469,-3.9553,0.0,0.0,0.0,0.0,0.0,0.0,-4.2822,-4.3888,-4.4474,-4.4553,-4.6007,-4.6863,-4.6908,-4.6908,-4.6908,-4.6908,-4.6908,-4.7115,-4.7548,-4.7548,-4.7548,-4.7548,-4.7115,-4.648,-4.5749,-4.5749,-4.5704,-4.5579,-4.4143,-4.3946,-4.4324,-4.2485,-4.2432,-4.338,-4.2996,-4.3562,-4.4517,-4.4183,-4.4053,-4.4065,-4.4407,-4.5044,-4.5544,-4.4848,-4.5134,-4.5526,-4.4751,-4.4803,-4.4813,-4.365,-4.3696,-4.3794,-4.2583,-4.2305,-4.2269,-4.2269,-4.2228,-4.2228,-4.2228,-4.2228,-4.2044,-4.1587,-4.1198,-4.0888,-4.0888,-4.0793,-4.0745,-4.0871,-4.0871,-4.0888,-4.0888,-4.0793,-4.0697,-4.0697,-4.0583,-4.0485,-4.0485,-4.0468,-4.0485,-4.0485,-4.0337,-4.0305,-4.0305,-4.0188,-4.007,-4.007,-4.007,-4.007,-4.007,-4.0121,-4.0121,-3.7584,-4.0449,-4.3009,-4.3802,-4.413,-4.413,-4.3629,-4.1957,-4.0267,-3.9112,-3.6939,-3.5111,0.0,0.0,0.0,-3.6429,-3.7672,0.0,-4.04,-4.0498,0.0,-4.1492,0.0,-4.1766,-4.2977,-4.2713,0.0,0.0,-4.3835,-4.4403,-4.533,-4.6006,-4.6554,-4.6908,-4.6908,-4.6908,-4.6908,-4.6908,-4.6954,-4.7071,-4.7071,-4.7071,-4.7071,-4.6954,-4.6618,-4.6063,-4.6063,-4.587,-4.5455,-4.5497,-4.5217,-4.4929,-4.5354,-4.5356,-4.5088,-4.4992,-4.5116,-4.5303,-4.482,-4.4556,-4.4389,-4.4464,-4.5053,-4.5784,-4.615,-4.5762,-4.5129,-4.4935,-4.429,-4.3693,-4.3698,-4.3764,-4.3864,-4.3932,-4.3458,-4.3012,-4.3012,-4.2774,-4.2591,-4.2591,-4.2275,-4.1997,-4.1873,-4.1328,-4.0888,-4.0745,-4.0697,-4.0697,-4.0745,-4.068,-4.0583,-4.0583,-4.0583,-4.0534,-4.0534,-4.0534,-4.0485,-4.0485,-4.0387,-4.0337,-4.0337,-4.0238,-4.0138,-4.0138,-4.0138,-4.007,-4.007,-4.007,-4.007,-4.0087,-4.0646,-4.0612,-4.0118,-4.2415,-4.4234,-4.4285,-4.4044,-4.3423,-4.1974,-4.0129,-3.8318,-3.6904,-3.4731,0.0,-3.3076,-3.3076,0.0,0.0,0.0,0.0,-4.0095,-4.0664,-4.1147,0.0,-4.2302,0.0,-4.3471,-4.3346,-4.3435,0.0,-4.3993,-4.4314,-4.507,-4.5568,-4.5988,-4.6217,-4.6266,-4.6266,-4.6266,-4.6507,-4.6584,-4.6584,-4.6584,-4.6584,-4.6584,-4.6363,-4.5944,-4.5349,-4.5349,-4.5215,-4.4889,-4.49,-4.4921,-4.4992,-4.5211,-4.5317,-4.5333,-4.5164,-4.5299,-4.5466,-4.4823,-4.4764,-4.4917,-4.4882,-4.5181,-4.5638,-4.6125,-4.5754,-4.5192,-4.5192,-4.4846,-4.4446,-4.4098,-4.417,-4.4273,-4.3986,-4.3564,-4.3248,-4.3248,-4.308,-4.2927,-4.2927,-4.2705,-4.2509,-4.2509,-4.2098,-4.1756,-4.1675,-4.1285,-4.103,-4.103,-4.069,-4.0485,-4.0485,-4.0436,-4.0387,-4.0387,-4.0387,-4.032,-4.032,-4.0238,-4.0341,-4.0663,-4.0629,-4.0713,-4.1052,-4.1052,-4.1052,-4.1052,-4.1052,-4.1052,-4.1068,-4.1491,-4.1457,-4.2313,-4.37,-4.4388,-4.4268,-4.3561,-4.2285,-4.0043,-3.8249,-3.6439,-3.4352,0.0,-3.18,-3.18,-3.1869,-3.2662,-3.4835,0.0,-3.7215,-3.9388,-4.0388,-4.1198,-4.2043,-4.275,-4.3301,-4.344,-4.3475,-4.3733,-4.4389,-4.4423,-4.4423,-4.4423,-4.5061,-4.5423,-4.5423,-4.5527,-4.5527,-4.5423,-4.5854,-4.6087,-4.6087,-4.6087,-4.6087,-4.6087,-4.5615,-4.5061,-4.4423,-4.4423,-4.4423,-4.4389,-4.3733,-4.4002,-4.4747,-4.3865,-4.4019,-4.4817,-4.4525,-4.4854,-4.5337,-4.4665,-4.4872,-4.5406,-4.5303,-4.5337,-4.5423,-4.5423,-4.5423,-4.5423,-4.5423,-4.577,-4.5848,-4.475,-4.4744,-4.4799,-4.3764,-4.3439,-4.337,-4.337,-4.337,-4.3337,-4.344,-4.3388,-4.332,-4.332,-4.3048,-4.286,-4.286,-4.2108,-4.1546,-4.1529,-4.0898,-4.0436,-4.0436,-4.0337,-4.0288,-4.0288,-4.0188,-4.007,-4.007,-4.0172,-4.0527,-4.117,-4.1288,-4.1644,-4.2286,-4.2286,-4.2286,-4.2286,-4.2286,-4.2286,-4.2286,-4.2388,-4.2388,-4.3311,-4.4724,-4.564,-4.4439,-4.2718,-4.0836,-3.9163,-3.6646,0.0,0.0,-3.2403,-3.18,-3.18,-3.23,-3.3266,-3.4921,0.0,0.0,0.0,0.0,-4.1405,0.0,0.0,-4.3664,-4.4906,-4.5027,0.0,0.0,-4.5234,-4.5234,-4.5234,-4.5354,-4.5423,-4.5423,-4.6061,-4.6096,-4.5441,-4.5459,-4.5511,-4.5511,-4.5511,-4.5511,-4.5511,-4.5423,-4.5354,-4.5234,-4.5234,-4.5234,-4.5216,-4.5079,-4.4785,-4.4456,-4.4837,-4.4768,-4.449,-4.4992,-4.5303,-4.5406,-4.5268,-4.5303,-4.532,-4.4682,-4.4906,-4.5423,-4.5423,-4.5423,-4.5423,-4.5423,-4.5476,-4.5494,-4.5268,-4.5269,-4.5286,-4.5061,-4.4544,-4.4096,-4.4096,-4.4096,-4.4268,-4.4906,-4.4423,-4.3941,-4.3941,-4.3289,-4.2723,-4.2567,-4.2413,-4.2275,-4.2153,-4.0968,-4.0171,-4.0171,-4.0138,-4.0121,-4.0121,-4.0121,-4.007,-4.007,-4.0663,-4.1068,-4.1204,-4.1779,-4.2168,-4.2286,-4.2286,-4.2286,-4.2286,-4.2286,-4.2286,-4.2303,-4.2929,-4.2878,-4.3965,-4.5175,-4.5661,-4.3889,-4.181,-3.9674,-3.7836,0.0,0.0,0.0,-3.1731,-3.1334,-3.1731,0.0,0.0,0.0,0.0,0.0,0.0,0.0,0.0,0.0,0.0,-4.4182,0.0,-4.5423,-4.5423,-4.5423,-4.5423,-4.5423,-4.5423,-4.5423,-4.5786,-4.6596,-4.6217,-4.601,-4.6044,-4.563,-4.5423,-4.5423,-4.5423,-4.5423,-4.5423,-4.5423,-4.5423,-4.5423,-4.5423,-4.5423,-4.5423,-4.5423,-4.5199,-4.4906,-4.5285,-4.5199,-4.4923,-4.5285,-4.5423,-4.5423,-4.5423,-4.5423,-4.5354,-4.4992,-4.513,-4.5423,-4.5423,-4.5423,-4.5423,-4.5423,-4.5423,-4.5423,-4.5423,-4.5423,-4.5423,-4.5423,-4.5147,-4.4872,-4.4872,-4.4819,-4.487,-4.5232,-4.4902,-4.4555,-4.4555,-4.4141,-4.3741,-4.3705,-4.3311,-4.2949,-4.2878,-4.1914,-4.1221,-4.1221,-4.1221,-4.1221,-4.1221,-4.1221,-4.1221,-4.1221,-4.1576,-4.1948,-4.2337,-4.2692,-4.3064,-4.347,-4.3487,-4.3487,-4.3487,-4.3487,-4.3487,-4.3487,-4.3859,-4.3826,-4.3979,-4.5089,-4.5354,-4.3148,-4.0927,-3.8694,-3.6698,-3.4341,0.0,0.0,-3.1298,-3.1057,-3.1642,0.0,-3.2248,0.0,0.0,0.0,0.0,0.0,0.0,0.0,0.0,0.0,-4.5354,-4.5423,0.0,-4.5423,-4.5423,-4.551,-4.5665,-4.5682,-4.6234,-4.7441,-4.6303,-4.5906,-4.6355,-4.5734,-4.5423,-4.5423,-4.5423,-4.5423,-4.5423,-4.5423,-4.5423,-4.5423,-4.5423,-4.5423,-4.5423,-4.5423,-4.5423,-4.5423,-4.5423,-4.5423,-4.5423,-4.5423,-4.5423,-4.5423,-4.5423,-4.5423,-4.5423,-4.5423,-4.5423,-4.5423,-4.5423,-4.5423,-4.5423,-4.5423,-4.5423,-4.5423,-4.5423,-4.5423,-4.5371,-4.5353,-4.5318,-4.5318,-4.5318,-4.5247,-4.514,-4.514,-4.5032,-4.494,-4.494,-4.4831,-4.4737,-4.4737,-4.4101,-4.3673,-4.3673,-4.3149,-4.2777,-4.2777,-4.2489,-4.2286,-4.2286,-4.2286,-4.2286,-4.2286,-4.2439,-4.2811,-4.3403,-4.3589,-4.3944,-4.457,-4.4587,-4.4587,-4.4587,-4.4587,-4.4587,-4.4587,-4.4587,-4.4587,-4.2642,-4.4196,-4.5241,-4.2356,-3.9952,-3.7906,-3.6368,0.0,0.0,-3.1534,-3.1507,-3.1548,-3.1617,-3.1709,-3.2059,0.0,0.0,-3.4731,0.0,0.0,0.0,0.0,0.0,0.0,-4.5354,-4.5423,-4.5423,-4.5423,-4.5423,-4.5734,-4.6458,-4.6493,-4.6562,-4.67,-4.6562,-4.6182,-4.5544,-4.5458,-4.5423,-4.5423,-4.5423,-4.5423,-4.5423,-4.5423,-4.5423,-4.5423,-4.5423,-4.5423,-4.5423,-4.5423,-4.5423,-4.5423,-4.5423,-4.5423,-4.5423,-4.5423,-4.5423,-4.5423,-4.5423,-4.5423,-4.5423,-4.5423,-4.5423,-4.5423,-4.5423,-4.5423,-4.5423,-4.5423,-4.5423,-4.5423,-4.5423,-4.5423,-4.5371,-4.5247,-4.514,-4.5049,-4.5049,-4.5032,-4.5032,-4.5032,-4.494,-4.4831,-4.4831,-4.4682,-4.4626,-4.4626,-4.4575,-4.4468,-4.4468,-4.4418,-4.4367,-4.4367,-4.3132,-4.2286,-4.2286,-4.2286,-4.2286,-4.2286,-4.2929,-4.3352,-4.342,-4.4096,-4.4502,-4.4587,-4.4587,-4.4587,-4.4587,-4.4587,-4.4587,-4.4587,-4.4587,-4.4587,-4.1548,-4.3122,-4.3855,-4.1466,-3.9127,-3.7064,-3.5668,0.0,-3.1517,-3.1517,-3.15,-3.1384,-3.0976,-3.0964,-3.1087,0.0,0.0,0.0,0.0,0.0,0.0,0.0,0.0,0.0,0.0,0.0,-4.5423,-4.5423,-4.5872,-4.6475,-4.7234,-4.6855,-4.6803,-4.7269,-4.6837,-4.6458,-4.6148,-4.5665,-4.5423,-4.5423,-4.5423,-4.5423,-4.5423,-4.5423,-4.5423,-4.5423,-4.5423,-4.5423,-4.5423,-4.5423,-4.5423,-4.5423,-4.5423,-4.5423,-4.5423,-4.5423,-4.5423,-4.5423,-4.5423,-4.5423,-4.5423,-4.5423,-4.5423,-4.5423,-4.5423,-4.5423,-4.5423,-4.5423,-4.5423,-4.5371,-4.53,-4.5537,-4.5723,-4.5189,-4.5391,-4.5661,-4.5661,-4.5265,-4.5022,-4.5482,-4.5099,-4.4682,-4.4682,-4.4626,-4.4587,-4.4587,-4.4587,-4.4587,-4.4587,-4.4587,-4.4587,-4.4587,-4.4028,-4.3656,-4.3656,-4.3656,-4.3656,-4.3656,-4.3944,-4.4113,-4.4113,-4.4418,-4.4587,-4.4587,-4.4587,-4.4587,-4.4587,-4.4587,-4.4587,-4.4587,-4.4587,-4.4587,-3.9537,-4.1243,-4.2137,-4.0199,-3.8288,-3.6486,0.0,0.0,-3.1402,-3.1402,-3.1423,-3.1291,-3.0762,-3.0751,-3.0825,0.0,0.0,-3.1866,0.0,0.0,0.0,0.0,0.0,-4.3061,0.0,-4.551,-4.5768,-4.5768,-4.6493,-4.7165,-4.7683,-4.7424,-4.751,-4.8027,-4.7113,-4.6613,-4.6613,-4.582,-4.5423,-4.5423,-4.5423,-4.5423,-4.5423,-4.5423,-4.5423,-4.5423,-4.5423,-4.5423,-4.5423,-4.5423,-4.5423,-4.5423,-4.5423,-4.5423,-4.5423,-4.5423,-4.5423,-4.5423,-4.5423,-4.5423,-4.5423,-4.5423,-4.5371,-4.5371,-4.5371,-4.5472,-4.5662,-4.5662,-4.5799,-4.5917,-4.5809,-4.6093,-4.6254,-4.5725,-4.5959,-4.6277,-4.6277,-4.5643,-4.523,-4.5756,-4.5151,-4.4587,-4.4587,-4.4587,-4.4587,-4.4587,-4.4587,-4.4654,-4.4891,-4.4722,-4.4654,-4.4891,-4.4705,-4.4587,-4.4587,-4.4587,-4.4587,-4.4587,-4.4587,-4.4587,-4.4587,-4.4587,-4.4587,-4.4587,-4.4587,-4.4587,-4.4587,-4.4587,-4.4587,-4.4587,-4.4587,-4.4587,-3.6083,-3.8383,-4.0078,-3.8618,-3.7514,-3.6383,0.0,0.0,-3.119,-3.119,-3.1252,-3.1295,-3.1278,-3.1406,-3.15,-3.15,0.0,0.0,-3.3694,0.0,0.0,0.0,0.0,-4.3457,-4.4216,-4.5682,-4.6596,-4.6596,-4.7286,-4.77,-4.7717,-4.8407,-4.8803,-4.8803,-4.7389,-4.6613,-4.6613,-4.582,-4.5423,-4.5423,-4.5423,-4.5423,-4.5423,-4.5423,-4.5423,-4.5423,-4.5423,-4.5423,-4.5423,-4.5423,-4.5423,-4.5423,-4.5423,-4.5423,-4.5423,-4.5423,-4.5423,-4.5423,-4.5423,-4.5423,-4.5423,-4.5423,-4.53,-4.5177,-4.5177,-4.5709,-4.6309,-4.6309,-4.673,-4.7199,-4.7199,-4.7101,-4.6986,-4.6986,-4.6886,-4.6786,-4.6786,-4.621,-4.5703,-4.5703,-4.5094,-4.4587,-4.4587,-4.4587,-4.4587,-4.4587,-4.4587,-4.484,-4.5602,-4.5043,-4.4874,-4.5618,-4.5026,-4.4587,-4.4587,-4.4587,-4.4587,-4.4587,-4.4587,-4.4587,-4.4587,-4.4587,-4.4587,-4.4587,-4.4587,-4.4587,-4.4587,-4.4587,-4.4587,-4.4587,-4.4587,-4.4587,-3.3317,-3.4928,-3.5985,-3.501,-3.4133,-3.335,-3.2657,-3.1608,-3.0821,-3.1134,-3.123,-3.0908,-2.9929,-3.0224,-3.0449,-2.9958,-3.0779,0.0,0.0,0.0,0.0,-4.004,-4.2942,-4.501,0.0,0.0,-4.6027,-4.6562,-4.7286,-4.7717,-4.7717,-4.8924,-4.9148,-4.8096,-4.7614,-4.7372,-4.7372,-4.6079,-4.5699,-4.6234,-4.5682,-4.5423,-4.5423,-4.5423,-4.5423,-4.5423,-4.5423,-4.5423,-4.5423,-4.5423,-4.5423,-4.5423,-4.5423,-4.5423,-4.5423,-4.5423,-4.5423,-4.5423,-4.5423,-4.5423,-4.5371,-4.53,-4.523,-4.5177,-4.5086,-4.5203,-4.5494,-4.6024,-4.6595,-4.7043,-4.7043,-4.7335,-4.7488,-4.6963,-4.7251,-4.7564,-4.7564,-4.6972,-4.6599,-4.7124,-4.6616,-4.6092,-4.6092,-4.6092,-4.6092,-4.6092,-4.6092,-4.6177,-4.6413,-4.5805,-4.5449,-4.5686,-4.5026,-4.4587,-4.4587,-4.4587,-4.4587,-4.4587,-4.4587,-4.4587,-4.4587,-4.4587,-4.4587,-4.4587,-4.4587,-4.4587,-4.4587,-4.4587,-4.4587,-4.4587,-4.4587,-4.4587,0.0,-3.1826,-3.2669,-3.219,-3.1678,-3.1234,-3.1229,0.0,-3.0342,-3.1044,-3.119,-3.0903,-2.9989,-3.023,-3.0451,-3.0078,-3.1065,0.0,0.0,0.0,0.0,-4.1143,0.0,0.0,0.0,-4.6234,-4.6493,-4.6993,-4.7993,-4.8579,-4.8579,-4.92,-4.9114,-4.8165,-4.8131,-4.7993,-4.7717,-4.6493,-4.5975,-4.6148,-4.5665,-4.5423,-4.5423,-4.5423,-4.5423,-4.5423,-4.5423,-4.5423,0.0,-4.5423,-4.5423,-4.5371,-4.5353,-4.53,-4.5318,-4.5264,-4.5264,-4.5264,-4.5264,-4.5264,-4.5299,-4.5483,-4.5703,-4.587,-4.5721,-4.5721,-4.5942,-4.6924,-4.7437,-4.7734,-4.7734,-4.803,-4.8206,-4.7733,-4.7986,-4.8342,-4.8342,-4.775,-4.7361,-4.7834,-4.731,-4.6786,-4.6786,-4.6786,-4.6786,-4.6786,-4.6549,-4.6583,-4.7141,-4.6329,-4.5821,-4.6092,-4.5449,-4.4891,-4.4604,-4.4587,-4.4587,-4.4587,-4.4587,-4.4587,-4.4587,-4.4587,-4.4587,-4.4587,-4.4587,-4.4587,-4.4587,-4.4587,-4.4587,-4.4587,-4.4587,-4.4587,0.0,0.0,0.0,0.0,-2.9836,-2.988,-3.0327,0.0,0.0,0.0,0.0,-3.1095,-3.1123,-3.1117,-3.1153,-3.1371,0.0,0.0,0.0,-3.6371,0.0,0.0,-4.3786,0.0,-4.5354,-4.6697,-4.7593,-4.7662,-4.8919,-4.9729,-4.978,-4.9091,-4.8695,-4.8621,-4.8678,-4.8351,-4.7717,-4.6924,-4.6182,-4.551,-4.5405,-4.5371,-4.5371,-4.5371,-4.5371,-4.5371,-4.5371,-4.5371,-4.5371,-4.5371,-4.5371,-4.5371,-4.5247,-4.5194,-4.5177,-4.5032,-4.4978,-4.4978,-4.4978,-4.5012,-4.5183,-4.5952,-4.6556,-4.6961,-4.6912,-4.6988,-4.7318,-4.8589,-4.8968,-4.9001,-4.9001,-4.9001,-4.9001,-4.9001,-4.9001,-4.9001,-4.9001,-4.8477,-4.8003,-4.8003,-4.7428,-4.6955,-4.6955,-4.6955,-4.6955,-4.6955,-4.6363,-4.6447,-4.7817,-4.6701,-4.6041,-4.6718,-4.6092,-4.5331,-4.4637,-4.4587,-4.4587,-4.4587,-4.4587,-4.4587,-4.4587,-4.4587,-4.4587,-4.4587,-4.4587,-4.4587,-4.4587,-4.4587,-4.4587,-4.4587,-4.4587,-4.4587,-2.5133,0.0,-2.7302,-2.7302,-2.7268,-2.7491,0.0,0.0,0.0,0.0,0.0,0.0,0.0,0.0,0.0,0.0,0.0,0.0,-3.4648,0.0,0.0,-4.2689,-4.4646,-4.5731,-4.5405,-4.5798,-4.6471,-4.7459,-4.6897,-4.6709,-4.7268,-4.7649,-4.7563,-4.7031,-4.7546,-4.7778,-4.7717,-4.6389,-4.5924,-4.632,-4.5593,-4.5247,-4.5247,-4.5247,-4.5247,-4.5247,-4.5371,-4.5371,-4.5247,-4.5247,-4.5194,-4.5086,-4.5032,-4.5032,-4.5032,-4.5032,-4.4978,-4.4978,-4.4978,-4.5371,-4.593,-4.655,-4.6809,-4.6946,-4.7479,-4.7648,-4.7716,-4.8071,-4.8578,-4.9001,-4.9001,-4.9001,-4.9001,-4.9001,-4.9001,-4.9001,-4.9001,-4.8866,-4.8748,-4.8748,-4.8612,-4.8477,-4.8477,-4.8477,-4.8477,-4.8477,-4.8342,-4.8359,-4.8714,-4.7445,-4.6599,-4.6769,-4.5618,-4.4773,-4.4587,-4.4587,-4.4587,-4.4587,-4.4587,-4.4587,-4.4587,-4.4587,-4.4587,-4.4587,-4.4587,-4.4587,-4.4587,-4.4587,-4.4587,-4.4587,-4.4587,-4.4587,-2.4302,-2.5087,-2.5903,-2.5903,-2.6149,-2.6684,0.0,0.0,0.0,0.0,0.0,0.0,0.0,0.0,0.0,0.0,-3.2364,0.0,0.0,0.0,-4.1432,-4.2735,-4.4074,-4.5048,0.0,-4.579,-4.6243,-4.6507,-4.6156,-4.5957,-4.5929,-4.5932,-4.579,-4.5413,-4.5412,-4.5913,-4.6945,-4.6121,-4.576,-4.5846,-4.5022,-4.4635,-4.4635,-4.4322,-4.4339,-4.4635,-4.4708,-4.4708,-4.4669,-4.5009,-4.4885,-4.4575,-4.4801,-4.4936,-4.4869,-4.4429,-4.4502,-4.4827,-4.4851,-4.5754,-4.6927,-4.6945,-4.7116,-4.7345,-4.7351,-4.7403,-4.7547,-4.8209,-4.8697,-4.9001,-4.9001,-4.9001,-4.9001,-4.9001,-4.9001,-4.9001,-4.9001,-4.9001,-4.9001,-4.9001,-4.9001,-4.9001,-4.9001,-4.9001,-4.9001,-4.9001,-4.8714,-4.8629,-4.8968,-4.802,-4.731,-4.731,-4.6583,-4.5838,-4.5162,-4.5094,-4.4942,-4.4604,-4.4587,-4.4587,-4.4587,-4.4587,-4.4587,-4.4587,-4.4925,-4.5094,-4.5094,-4.5094,-4.5094,-4.5094,-4.4739,-4.4587,-2.4425,-2.4948,-2.5441,-2.5349,-2.5857,-2.6684,0.0,0.0,0.0,0.0,0.0,0.0,0.0,0.0,0.0,0.0,0.0,0.0,-3.8978,-4.0216,-4.1328,-4.2782,-4.3375,0.0,-4.5025,-4.5828,-4.6073,-4.5368,-4.5649,-4.5601,-4.4965,-4.4292,-4.3883,-4.3758,-4.3248,-4.3777,-4.5513,-4.5586,-4.5337,-4.4669,-4.4112,-4.3806,-4.3806,-4.324,-4.33,-4.3806,-4.3864,-4.3864,-4.3856,-4.4414,-4.4297,-4.3798,-4.4251,-4.4449,-4.4333,-4.363,-4.3789,-4.4498,-4.4782,-4.6062,-4.7457,-4.6957,-4.7193,-4.7622,-4.7017,-4.6811,-4.7085,-4.8322,-4.8736,-4.8861,-4.8861,-4.894,-4.9001,-4.9001,-4.9001,-4.9001,-4.9001,-4.9001,-4.9001,-4.9001,-4.9001,-4.9001,-4.9001,-4.9001,-4.9001,-4.9001,-4.8477,-4.8308,-4.8934,-4.8376,-4.7919,-4.7919,-4.7817,-4.7192,-4.5821,-4.5703,-4.5382,-4.4621,-4.4587,-4.4587,-4.4587,-4.4688,-4.4756,-4.4756,-4.5483,-4.5872,-4.5872,-4.5872,-4.5872,-4.5855,-4.5213,-4.4925,-2.501,-2.5656,-2.5997,-2.5456,-2.5857,-2.661,0.0,0.0,0.0,0.0,0.0,0.0,0.0,0.0,-3.0133,0.0,0.0,-3.7716,0.0,0.0,-4.2483,-4.3473,0.0,-4.5147,-4.4215,-4.4383,-4.4689,-4.4967,-4.3444,-4.2733,-4.3229,-4.3087,-4.2745,-4.2189,-4.2585,-4.288,-4.3039,-4.3344,-4.3399,-4.33,-4.3075,-4.297,-4.297,-4.2909,-4.2909,-4.297,-4.312,-4.3075,-4.297,-4.3084,-4.3007,-4.2707,-4.2821,-4.2867,-4.2831,-4.2707,-4.3114,-4.3925,-4.5097,-4.5765,-4.6108,-4.6659,-4.6867,-4.6949,-4.6811,-4.6811,-4.6811,-4.7085,-4.7556,-4.8096,-4.8096,-4.8513,-4.9001,-4.9001,-4.9001,-4.9001,-4.9001,-4.9001,-4.9001,-4.9001,-4.9001,-4.9001,-4.9001,-4.9001,-4.9001,-4.9001,-4.89,-4.8883,-4.8984,-4.8376,-4.7919,-4.7919,-4.7344,-4.6616,-4.5771,-4.5703,-4.5382,-4.4621,-4.4587,-4.4587,-4.4587,-4.5196,-4.5534,-4.5534,-4.6261,-4.6616,-4.6616,-4.6616,-4.6616,-4.6616,-4.6515,-4.6447,-2.5226,-2.6087,-2.6826,-2.6518,-2.6965,-2.7565,-2.7873,0.0,0.0,0.0,0.0,0.0,0.0,0.0,-3.192,-3.4557,0.0,-3.8505,-4.0116,-4.0912,-4.1739,0.0,0.0,-4.4214,-4.3944,-4.4091,-4.3965,-4.3294,-4.2338,-4.1758,-4.1643,-4.1582,-4.1409,-4.1091,-4.1409,-4.1525,-4.1393,-4.1575,-4.2013,-4.2753,-4.2269,-4.2094,-4.2094,-4.1722,-4.1771,-4.2094,-4.2141,-4.2141,-4.2126,-4.2526,-4.2381,-4.1997,-4.2396,-4.2559,-4.2569,-4.2974,-4.3331,-4.3821,-4.5236,-4.5986,-4.6306,-4.6212,-4.6182,-4.6111,-4.5697,-4.5624,-4.5624,-4.5624,-4.6726,-4.7885,-4.7885,-4.845,-4.8877,-4.8513,-4.8719,-4.8861,-4.8513,-4.8719,-4.9001,-4.9001,-4.9001,-4.9001,-4.9001,-4.9001,-4.9001,-4.9001,-4.9001,-4.9001,-4.9001,-4.8714,-4.8494,-4.8494,-4.8189,-4.7699,-4.6972,-4.6904,-4.6227,-4.4671,-4.4959,-4.5179,-4.5179,-4.5889,-4.6295,-4.6295,-4.7022,-4.7394,-4.7394,-4.7394,-4.7394,-4.7394,-4.6989,-4.6786,-2.5764,-2.658,-2.7442,-2.7596,0.0,-2.8442,-2.8611,0.0,0.0,0.0,0.0,0.0,0.0,-3.1874,0.0,-3.6726,-3.8042,-3.9109,-4.0473,-4.0802,-4.1367,-4.269,-4.2978,-4.319,-4.3561,-4.3599,-4.3055,-4.1844,-4.1597,-4.1202,-4.0555,-4.0524,-4.0524,-4.0524,-4.0524,-4.0524,-4.0524,-4.037,-4.0868,-4.2013,-4.1525,-4.1276,-4.1276,-4.0715,-4.0768,-4.1276,-4.1276,-4.1276,-4.1323,-4.1873,-4.1778,-4.1323,-4.1888,-4.2082,-4.2125,-4.3053,-4.3389,-4.363,-4.5011,-4.5805,-4.6182,-4.564,-4.5421,-4.5348,-4.4783,-4.4572,-4.4572,-4.4572,-4.5953,-4.7406,-4.7406,-4.7901,-4.8322,-4.7754,-4.8096,-4.8386,-4.795,-4.837,-4.8798,-4.894,-4.9001,-4.9001,-4.9001,-4.9001,-4.894,-4.8798,-4.8719,-4.8719,-4.8719,-4.8593,-4.853,-4.8719,-4.8593,-4.8165,-4.7429,-4.7228,-4.6391,-4.47,-4.5312,-4.5631,-4.5453,-4.614,-4.6646,-4.6784,-4.7507,-4.7973,-4.8173,-4.7973,-4.7973,-4.8156,-4.7383,-4.7173,-2.7072,-2.7319,-2.755,-2.8181,-2.8365,0.0,-2.9196,-2.9874,0.0,0.0,0.0,0.0,0.0,-3.2967,-3.4858,-3.6307,-3.8172,-3.9915,-4.1318,0.0,-4.2736,-4.3417,-4.3568,-4.3353,-4.274,-4.2109,-4.1765,-4.1601,-4.097,-4.0586,-4.0524,-4.0524,-4.0524,-4.0524,-4.0524,-4.0524,-4.0524,-3.9908,-3.9893,-4.0646,-4.0593,-4.0593,-4.0593,-4.0524,-4.0524,-4.0593,-4.0593,-4.0593,-4.0593,-4.0639,-4.0639,-4.0593,-4.0639,-4.0639,-4.0816,-4.2175,-4.27,-4.2859,-4.4198,-4.4752,-4.4723,-4.4723,-4.4648,-4.4648,-4.4663,-4.4572,-4.4572,-4.4572,-4.5216,-4.5841,-4.5841,-4.6394,-4.6949,-4.688,-4.6949,-4.7153,-4.7754,-4.795,-4.8161,-4.8861,-4.9001,-4.9001,-4.9001,-4.9001,-4.8798,-4.8096,-4.795,-4.795,-4.795,-4.7355,-4.7221,-4.7885,-4.7355,-4.6656,-4.5926,-4.521,-4.4772,-4.4626,-4.5302,-4.5398,-4.4691,-4.5356,-4.6127,-4.6822,-4.7519,-4.8222,-4.8934,-4.8222,-4.8222,-4.8917,-4.8172,-4.8219,-2.7319,-2.7703,-2.8088,-2.835,0.0,0.0,0.0,0.0,0.0,0.0,0.0,0.0,0.0,0.0,-3.6168,-3.7523,-3.8739,-4.0001,-4.1401,-4.1817,-4.2232,-4.2894,-4.2971,-4.2709,-4.2048,-4.1755,-4.1247,-4.037,-4.0447,-4.017,-3.9323,-3.9677,-3.9708,-3.9293,-3.9677,-3.9693,-3.9277,-3.9431,-3.9431,-3.9277,-3.9693,-4.0124,-4.0524,-4.0093,-4.0124,-4.0509,-4.0078,-4.0139,-4.0524,-4.0524,-4.0524,-4.0524,-4.0524,-4.0524,-4.0647,-4.1617,-4.1986,-4.2171,-4.3494,-4.3694,-4.3417,-4.3818,-4.3956,-4.3956,-4.3956,-4.4249,-4.4572,-4.4572,-4.4783,-4.5142,-4.5551,-4.6253,-4.6673,-4.6182,-4.6464,-4.688,-4.7153,-4.7556,-4.795,-4.8242,-4.8306,-4.8177,-4.7704,-4.7638,-4.7572,-4.7288,-4.7221,-4.7221,-4.7221,-4.6949,-4.688,-4.7221,-4.6949,-4.6714,-4.6439,-4.6096,-4.5745,-4.533,-4.5514,-4.5603,-4.5287,-4.5966,-4.6543,-4.6812,-4.7074,-4.7355,-4.7638,-4.7355,-4.7355,-4.7638,-4.7355,-4.7355,-2.7609,-2.7994,-2.8394,0.0,0.0,0.0,0.0,0.0,0.0,0.0,0.0,0.0,0.0,0.0,0.0,0.0,-3.9077,-4.0001,-4.1401,-4.1601,-4.1771,-4.2232,-4.2294,-4.2017,-4.1324,-4.1063,-4.0555,-3.9585,-3.9754,-3.9493,-3.8554,-3.8954,-3.8985,-3.8523,-3.897,-3.897,-3.8508,-3.8769,-3.8754,-3.8508,-3.8769,-3.9231,-3.9878,-3.9631,-3.9647,-3.9862,-3.94,-3.9585,-4.0201,-4.0201,-4.0339,-4.0524,-4.0524,-4.0524,-4.0616,-4.134,-4.1601,-4.1755,-4.2879,-4.2971,-4.2679,-4.3125,-4.3264,-4.3264,-4.3264,-4.3725,-4.4264,-4.4264,-4.4418,-4.4723,-4.5216,-4.5697,-4.5985,-4.5494,-4.5769,-4.6182,-4.6394,-4.6864,-4.7272,-4.7489,-4.7556,-4.7406,-4.688,-4.6811,-4.6742,-4.6464,-4.6464,-4.6464,-4.6464,-4.6253,-4.6127,-4.6127,-4.6127,-4.6127,-4.6127,-4.6127,-4.5913,-4.5348,-4.5381,-4.5324,-4.5324,-4.5856,-4.6182,-4.6464,-4.6464,-4.6534,-4.6811,-4.6534,-4.6604,-4.6811,-4.6534,-4.6604,-2.8137,-2.8186,-2.8403,0.0,0.0,0.0,0.0,0.0,0.0,0.0,0.0,-3.6307,-3.5614,-3.6045,0.0,-3.8292,-3.9077,-4.0001,-4.1386,-4.1586,-4.1586,-4.1586,-4.1586,-4.1309,-4.0586,-3.9908,-3.9508,-3.9508,-3.8893,-3.8508,-3.8492,-3.8492,-3.8492,-3.8492,-3.8492,-3.8492,-3.8492,-3.7831,-3.7831,-3.8477,-3.7815,-3.7861,-3.8539,-3.92,-3.9139,-3.8508,-3.8492,-3.8893,-3.9508,-3.9524,-3.9908,-4.0524,-4.0524,-4.0524,-4.0616,-4.1324,-4.1586,-4.1694,-4.2371,-4.2602,-4.2586,-4.2602,-4.2602,-4.2602,-4.2602,-4.3048,-4.3571,-4.3571,-4.4048,-4.4572,-4.4572,-4.4572,-4.4572,-4.4572,-4.4572,-4.4783,-4.5551,-4.5697,-4.5913,-4.6673,-4.6811,-4.6811,-4.6742,-4.6742,-4.6534,-4.5769,-4.5697,-4.5697,-4.5697,-4.5067,-4.4572,-4.4572,-4.4572,-4.4572,-4.4572,-4.4572,-4.4572,-4.4572,-4.4572,-4.4572,-4.4572,-4.4572,-4.4933,-4.5697,-4.5697,-4.604,-4.6742,-4.6056,-4.604,-4.6742,-4.604,-4.6056,-2.8005,-2.8404,0.0,0.0,0.0,0.0,0.0,0.0,0.0,0.0,0.0,-3.7569,-3.6399,-3.7138,0.0,-3.8446,-3.9077,-3.9831,-4.0724,-4.0847,-4.0847,-4.0847,-4.0847,-4.0586,-3.9878,-3.9631,-3.9123,-3.8169,-3.8354,-3.8092,-3.7138,-3.7538,-3.7584,-3.7107,-3.7554,-3.7569,-3.7092,-3.7353,-3.7353,-3.7092,-3.7369,-3.7861,-3.8492,-3.8231,-3.8246,-3.8477,-3.8,-3.8185,-3.8846,-3.9323,-3.9631,-3.9862,-4.0339,-4.0524,-4.0555,-4.077,-4.0847,-4.094,-4.1648,-4.1571,-4.1232,-4.174,-4.1909,-4.1909,-4.1909,-4.2679,-4.3571,-4.3571,-4.4048,-4.4572,-4.4572,-4.4572,-4.4572,-4.4572,-4.4572,-4.4783,-4.5551,-4.5697,-4.5769,-4.5969,-4.6056,-4.5841,-4.5348,-4.5274,-4.5216,-4.4933,-4.4933,-4.4933,-4.4933,-4.4723,-4.4572,-4.4572,-4.4572,-4.4572,-4.4572,-4.4572,-4.4572,-4.4572,-4.4572,-4.4572,-4.4572,-4.4572,-4.4723,-4.4933,-4.4933,-4.4993,-4.5274,-4.4993,-4.5067,-4.529,-4.4993,-4.5067,-2.8122,0.0,0.0,0.0,0.0,0.0,0.0,0.0,0.0,0.0,0.0,-3.7769,-3.6692,-3.7153,0.0,-3.8061,-3.8446,-3.9046,-4.0001,-3.9893,-3.9816,-4.0093,-3.9893,-3.957,-3.9154,-3.8877,-3.8385,-3.7569,-3.7631,-3.7353,-3.6538,-3.6876,-3.6907,-3.6507,-3.6892,-3.6907,-3.6492,-3.6892,-3.6892,-3.6492,-3.6907,-3.7307,-3.7707,-3.7569,-3.7584,-3.7707,-3.7569,-3.7738,-3.8154,-3.8846,-3.9108,-3.9185,-3.9862,-4.0124,-4.017,-4.0432,-4.0524,-4.0586,-4.1032,-4.0893,-4.0601,-4.1032,-4.117,-4.117,-4.117,-4.1925,-4.2848,-4.311,-4.3664,-4.4233,-4.451,-4.4572,-4.4572,-4.4572,-4.4572,-4.4723,-4.5142,-4.5274,-4.5274,-4.5274,-4.5274,-4.5142,-4.4648,-4.4572,-4.4572,-4.4572,-4.4572,-4.4572,-4.4572,-4.4572,-4.4572,-4.4572,-4.4572,-4.4572,-4.4572,-4.4572,-4.4572,-4.4572,-4.4572,-4.4572,-4.4572,-4.4572,-4.4572,-4.4572,-4.4572,-4.4572,-4.4572,-4.4572,-4.4572,-4.4572,-4.4572,-4.4572,0.0,0.0,0.0,0.0,0.0,0.0,0.0,0.0,-3.7167,-3.6615,0.0,-3.7369,-3.663,-3.6599,-3.6861,-3.7415,-3.7554,-3.8015,-3.9262,-3.8893,-3.8739,-3.9354,-3.8893,-3.8492,-3.8415,-3.7861,-3.7477,-3.7415,-3.6846,-3.6492,-3.6492,-3.6492,-3.6492,-3.6492,-3.6492,-3.6492,-3.6492,-3.6492,-3.6492,-3.6492,-3.6492,-3.6492,-3.6507,-3.7123,-3.7076,-3.6522,-3.7138,-3.7415,-3.7461,-3.8138,-3.8415,-3.8492,-3.917,-3.9431,-3.9508,-4.0185,-4.0432,-4.0447,-4.0509,-4.0524,-4.0524,-4.0524,-4.0524,-4.0524,-4.0524,-4.1032,-4.1724,-4.234,-4.2987,-4.3633,-4.431,-4.4449,-4.4433,-4.4556,-4.4572,-4.4572,-4.4572,-4.4572,-4.4572,-4.4572,-4.4572,-4.4572,-4.4572,-4.4572,-4.4572,-4.4572,-4.4572,-4.4572,-4.4572,-4.4572,-4.4572,-4.4572,-4.4572,-4.4572,-4.4572,-4.4572,-4.4572,-4.4572,-4.4572,-4.4572,-4.4572,-4.4572,-4.4572,-4.4572,-4.4572,-4.4572,-4.4572,-4.4572,-4.4572,-4.4572,-4.4572,-4.4572,0.0,-2.8669,0.0,0.0,0.0,0.0,0.0,0.0,-3.6346,-3.646,-3.7446,-3.7923,-3.6722,-3.7353,-3.7954,-3.7569,-3.7938,-3.84,-3.8677,-3.86,-3.8554,-3.8708,-3.86,-3.8292,-3.7769,-3.7584,-3.7277,-3.6738,-3.6569,-3.6492,-3.6492,-3.6492,-3.6492,-3.6492,-3.6492,-3.6492,-3.6492,-3.6492,-3.6492,-3.6492,-3.6492,-3.6492,-3.6492,-3.6645,-3.663,-3.6507,-3.6645,-3.6707,-3.6769,-3.7446,-3.7723,-3.7784,-3.8462,-3.8723,-3.8816,-3.9493,-3.9739,-3.9816,-4.0339,-4.0524,-4.0524,-4.0524,-4.0524,-4.0524,-4.0524,-4.1032,-4.1632,-4.1771,-4.2294,-4.2971,-4.3618,-4.3402,-4.3294,-4.4326,-4.4572,-4.4572,-4.4572,-4.4572,-4.4572,-4.4572,-4.4572,-4.4572,-4.4572,-4.4572,-4.4572,-4.4572,-4.4572,-4.4572,-4.4572,-4.4572,-4.4572,-4.4572,-4.4572,-4.4572,-4.4572,-4.4572,-4.4572,-4.4572,-4.4572,-4.4572,-4.4572,-4.4572,-4.4572,-4.4572,-4.4572,-4.4572,-4.4572,-4.4572,-4.4572,-4.4572,-4.4572,-4.4572,0.0,0.0,0.0,0.0,0.0,0.0,0.0,0.0,-3.6037,-3.6226,-3.6855,-3.718,-3.649,-3.6998,-3.743,-3.7076,-3.7307,-3.7646,-3.7984,-3.7754,-3.7661,-3.7984,-3.7738,-3.74,-3.7046,-3.7015,-3.6876,-3.6522,-3.6492,-3.6492,-3.6492,-3.6492,-3.6492,-3.6492,-3.6492,-3.6492,-3.6492,-3.6492,-3.6492,-3.6492,-3.6492,-3.6492,-3.6492,-3.6492,-3.6492,-3.6492,-3.6492,-3.6492,-3.6522,-3.6876,-3.7015,-3.7092,-3.7769,-3.8031,-3.8138,-3.9154,-3.9524,-3.9616,-4.0293,-4.0524,-4.0524,-4.0524,-4.0524,-4.0524,-4.0524,-4.0786,-4.1155,-4.1509,-4.1848,-4.2279,-4.294,-4.3094,-4.3233,-4.3941,-4.4095,-4.4187,-4.451,-4.4572,-4.4572,-4.4572,-4.4572,-4.4572,-4.4572,-4.4572,-4.4572,-4.4572,-4.4572,-4.4572,-4.4572,-4.4572,-4.4572,-4.4572,-4.4572,-4.4572,-4.4572,-4.4572,-4.4572,-4.4572,-4.4572,-4.4572,-4.4572,-4.4572,-4.4572,-4.4572,-4.4572,-4.4572,-4.4572,-4.4572,-4.4572,-4.4572,-4.4572,-4.4572,0.0,0.0,0.0,0.0,0.0,0.0,0.0,0.0,-3.5767,-3.5925,-3.6022,-3.6148,-3.6148,-3.6352,-3.6429,-3.6429,-3.6492,-3.6676,-3.7246,-3.6846,-3.6707,-3.7261,-3.683,-3.6492,-3.6492,-3.6492,-3.6492,-3.6492,-3.6492,-3.6492,-3.6492,-3.6492,-3.6492,-3.6492,-3.6492,-3.6492,-3.6492,-3.6492,-3.6492,-3.6492,-3.6492,-3.6492,-3.6492,-3.6492,-3.6492,-3.6492,-3.6492,-3.6492,-3.6492,-3.6492,-3.6492,-3.6553,-3.7107,-3.7323,-3.7477,-3.8708,-3.917,-3.9277,-4.0078,-4.0355,-4.037,-4.0493,-4.0524,-4.0524,-4.0524,-4.0524,-4.0647,-4.1247,-4.1417,-4.1571,-4.2248,-4.274,-4.311,-4.3356,-4.3402,-4.3618,-4.4402,-4.4572,-4.4572,-4.4572,-4.4572,-4.4572,-4.4572,-4.4572,-4.4572,-4.4572,-4.4572,-4.4587,-4.4572,-4.4587,-4.4496,-4.4496,-4.4511,-4.4587,-4.4587,-4.4587,-4.4587,-4.4587,-4.4587,-4.4496,-4.4511,-4.4511,-4.4511,-4.4587,-4.4572,-4.4572,-4.4572,-4.4572,-4.4572,-4.4572,-4.4572,-4.4572,0.0,0.0,0.0,0.0,0.0,0.0,0.0,0.0,-3.4728,0.0,-3.5797,-3.6037,-3.6037,-3.6148,-3.6274,-3.6274,-3.6414,-3.6522,-3.6615,-3.6553,-3.6522,-3.6615,-3.6538,-3.6492,-3.6492,-3.6492,-3.6492,-3.6492,-3.6492,-3.6492,-3.6492,-3.6492,-3.6492,-3.6492,-3.6492,-3.6492,-3.6492,-3.6352,-3.6352,-3.6492,-3.6492,-3.6492,-3.6492,-3.6492,-3.6492,-3.6492,-3.6492,-3.6492,-3.6492,-3.6492,-3.6492,-3.6507,-3.6599,-3.663,-3.6722,-3.7492,-3.7769,-3.7954,-3.9216,-3.9647,-3.9754,-4.0339,-4.0524,-4.0524,-4.0524,-4.0524,-4.0539,-4.0647,-4.0678,-4.0832,-4.154,-4.134,-4.1232,-4.2448,-4.2579,-4.2901,-4.431,-4.4572,-4.4572,-4.4572,-4.4572,-4.4572,-4.4572,-4.4572,-4.4572,-4.4572,-4.4572,-4.4511,-4.4358,-4.4358,-4.4281,-4.4143,-4.4205,-4.4358,-4.4358,-4.4496,-4.4511,-4.4358,-4.4358,-4.4281,-4.4065,-4.405,-4.4127,-4.4358,-4.4511,-4.4572,-4.4572,-4.4572,-4.4572,-4.4572,-4.4572,-4.4572,-2.6356,0.0,0.0,0.0,0.0,0.0,0.0,0.0,-3.3768,-3.4153,-3.4341,-3.4595,-3.5139,-3.5688,-3.5958,-3.5544,-3.5894,-3.61,-3.5831,-3.6037,-3.61,-3.5831,-3.6037,-3.61,-3.5831,-3.6022,-3.6085,-3.5737,-3.6022,-3.6085,-3.5721,-3.6022,-3.6085,-3.5737,-3.6022,-3.6241,-3.6241,-3.6148,-3.6148,-3.6241,-3.6241,-3.6241,-3.6241,-3.6241,-3.6289,-3.6492,-3.6492,-3.6492,-3.6492,-3.6492,-3.6492,-3.6492,-3.6492,-3.6492,-3.6569,-3.7246,-3.7507,-3.7692,-3.8898,-3.9358,-3.9412,-4.0047,-4.0191,-4.0261,-4.0331,-4.0401,-4.0401,-4.0455,-4.0524,-4.0601,-4.0924,-4.0977,-4.1122,-4.1735,-4.2004,-4.2391,-4.3517,-4.4098,-4.4435,-4.4435,-4.4435,-4.4435,-4.4281,-4.4281,-4.4281,-4.4281,-4.4281,-4.4205,-4.4127,-4.4127,-4.4143,-4.3988,-4.405,-4.4127,-4.4127,-4.4205,-4.4205,-4.4143,-4.4127,-4.4065,-4.3988,-4.3988,-4.405,-4.4143,-4.4358,-4.4511,-4.4572,-4.4572,-4.4572,-4.4572,-4.4572,-4.4572,0.0,0.0,0.0,0.0,0.0,0.0,0.0,0.0,-3.2779,0.0,-3.3115,-3.3353,-3.3891,-3.4728,-3.5219,-3.4595,-3.5008,-3.5285,-3.4876,-3.5139,-3.5285,-3.4876,-3.5139,-3.5285,-3.4876,-3.5204,-3.5204,-3.4765,-3.519,-3.5204,-3.4765,-3.519,-3.527,-3.5059,-3.527,-3.5479,-3.5703,-3.5703,-3.5767,-3.5894,-3.5767,-3.5831,-3.5973,-3.5831,-3.5958,-3.6367,-3.6367,-3.6414,-3.6414,-3.6414,-3.6414,-3.6414,-3.6414,-3.6414,-3.6428,-3.6919,-3.7118,-3.7302,-3.8504,-3.891,-3.9047,-3.9792,-4.0011,-3.9996,-4.0207,-4.0207,-4.0277,-4.0331,-4.0401,-4.0401,-4.0401,-4.0644,-4.0954,-4.0954,-4.1313,-4.1879,-4.2819,-4.3655,-4.4205,-4.4205,-4.4205,-4.422,-4.4065,-4.3988,-4.3988,-4.3988,-4.3988,-4.3988,-4.391,-4.391,-4.391,-4.3832,-4.391,-4.391,-4.391,-4.3988,-4.3988,-4.391,-4.391,-4.391,-4.3817,-4.3817,-4.3817,-4.391,-4.4065,-4.4281,-4.4496,-4.4496,-4.4587,-4.4572,-4.4572,-4.4572,0.0,0.0,0.0,0.0,0.0,0.0,0.0,0.0,-3.1513,-3.2274,-3.282,-3.3003,-3.2362,-3.3003,-3.3644,-3.3575,-3.3685,-3.3808,-3.3808,-3.3808,-3.3808,-3.3808,-3.3808,-3.3808,-3.3808,-3.3808,-3.3808,-3.3808,-3.3808,-3.3808,-3.3808,-3.3808,-3.4163,-3.4876,-3.423,-3.4163,-3.4957,-3.4957,-3.5219,-3.5688,-3.5219,-3.5285,-3.5973,-3.5285,-3.5365,-3.6037,-3.6037,-3.61,-3.6211,-3.6211,-3.6211,-3.6211,-3.6211,-3.6148,-3.6037,-3.6082,-3.6098,-3.628,-3.7582,-3.8053,-3.828,-3.9586,-4.0011,-4.0011,-3.9996,-4.0011,-4.0011,-3.9996,-3.9996,-3.9996,-3.9996,-4.0026,-4.0056,-4.0056,-4.0414,-4.1157,-4.2713,-4.3517,-4.3988,-4.3988,-4.3988,-4.3988,-4.3988,-4.3988,-4.3988,-4.3988,-4.3988,-4.391,-4.3769,-4.369,-4.3596,-4.3329,-4.3596,-4.369,-4.369,-4.391,-4.391,-4.3769,-4.369,-4.3596,-4.3344,-4.3329,-4.3423,-4.369,-4.369,-4.391,-4.4281,-4.4281,-4.4435,-4.4572,-4.4572,-4.4572,0.0,0.0,0.0,0.0,0.0,0.0,-2.9362,-2.9747,-3.0047,-3.0314,-3.0855,-3.1128,-3.0838,-3.2187,-3.3143,-3.2648,-3.3073,-3.3283,-3.2946,-3.3143,-3.3283,-3.2875,-3.3143,-3.3213,-3.2875,-3.3213,-3.3213,-3.2875,-3.3213,-3.3213,-3.2875,-3.3213,-3.3353,-3.3311,-3.3353,-3.3492,-3.3782,-3.3782,-3.3905,-3.4109,-3.3905,-3.3973,-3.4177,-3.4394,-3.4662,-3.4942,-3.5444,-3.5797,-3.6085,-3.6085,-3.6085,-3.6085,-3.6085,-3.6037,-3.5973,-3.5973,-3.5973,-3.6171,-3.7389,-3.779,-3.8016,-3.9204,-3.964,-3.964,-3.9768,-3.9839,-3.9839,-3.9925,-4.0011,-4.0011,-4.0011,-3.9925,-3.9768,-3.964,-4.0394,-4.131,-4.1851,-4.3045,-4.3988,-4.3832,-4.3847,-4.3754,-4.3581,-4.3581,-4.3581,-4.3581,-4.3581,-4.3503,-4.3423,-4.3423,-4.3423,-4.3329,-4.3423,-4.3423,-4.3423,-4.3503,-4.3503,-4.3423,-4.3423,-4.3423,-4.3329,-4.3329,-4.3344,-4.3423,-4.3423,-4.366,-4.4143,-4.4205,-4.4358,-4.4435,-4.4511,-4.4572,-2.5158,0.0,0.0,0.0,0.0,-2.8098,-2.8098,0.0,-2.8974,-2.8974,-2.9444,-2.9849,-2.9849,-3.0976,-3.184,-3.1742,-3.2173,-3.2318,-3.1982,-3.2245,-3.2318,-3.1982,-3.2245,-3.2318,-3.1982,-3.2245,-3.2318,-3.1982,-3.2245,-3.2318,-3.1909,-3.2245,-3.2236,-3.1626,-3.2024,-3.225,-3.225,-3.2458,-3.2626,-3.2918,-3.2835,-3.2932,-3.3213,-3.3478,-3.3822,-3.4312,-3.4839,-3.5379,-3.5894,-3.5894,-3.5894,-3.5894,-3.5894,-3.5846,-3.5861,-3.5861,-3.5861,-3.5948,-3.6932,-3.7459,-3.7751,-3.8721,-3.923,-3.9409,-3.9553,-3.9625,-3.9625,-3.9783,-3.9783,-3.9783,-3.9783,-3.9696,-3.9553,-3.9424,-4.0247,-4.1115,-4.1324,-4.2649,-4.3738,-4.3596,-4.3596,-4.3518,-4.3329,-4.3329,-4.3329,-4.3329,-4.3329,-4.3329,-4.3329,-4.3329,-4.3329,-4.3329,-4.3329,-4.3329,-4.3329,-4.3329,-4.3329,-4.3329,-4.3329,-4.3329,-4.3329,-4.3329,-4.3329,-4.3329,-4.3329,-4.3409,-4.3738,-4.3972,-4.4143,-4.4281,-4.4435,-4.4511,0.0,0.0,0.0,0.0,0.0,0.0,-2.7523,0.0,-2.8347,-2.8347,-2.883,-2.9248,-2.9248,-2.9274,-2.964,-3.0751,-3.0947,-3.096,-3.0986,-3.096,-3.096,-3.096,-3.0947,-3.0934,-3.0934,-3.0934,-3.0934,-3.0934,-3.0934,-3.0934,-3.0934,-3.0934,-3.0686,-3.0124,-3.0288,-3.0378,-3.0378,-3.0907,-3.1542,-3.2314,-3.2146,-3.2434,-3.3073,-3.2434,-3.2918,-3.4245,-3.4312,-3.4795,-3.5688,-3.5688,-3.5688,-3.5688,-3.5688,-3.5589,-3.5504,-3.5504,-3.5504,-3.5609,-3.6252,-3.6896,-3.7524,-3.8182,-3.8856,-3.9424,-3.9424,-3.9424,-3.9424,-3.9424,-3.9424,-3.9424,-3.9424,-3.9424,-3.9424,-3.9424,-3.9918,-4.0576,-4.1205,-4.2372,-4.3314,-4.3329,-4.3329,-4.3329,-4.3329,-4.3329,-4.3329,-4.3329,-4.3329,-4.3329,-4.3329,-4.3329,-4.3329,-4.3329,-4.3329,-4.3329,-4.3329,-4.3329,-4.3329,-4.3329,-4.3329,-4.3329,-4.3329,-4.3329,-4.3329,-4.3329,-4.3329,-4.3329,-4.3329,-4.3596,-4.391,-4.4281,-4.4281,-4.4435,-2.5824,0.0,0.0,0.0,0.0,0.0,-2.7523,0.0,-2.7771,-2.7771,-2.8229,-2.8634,-2.8634,-2.8987,-2.9379,-2.9706,-3.0098,-3.0516,-3.0934,-3.062,-3.0372,-3.0372,-3.0006,-2.9758,-2.9758,-2.9758,-2.9758,-2.9758,-2.9758,-2.9758,-2.9758,-2.9758,-2.968,-2.9523,-2.9552,-2.9601,-2.9601,-3.0111,-3.0546,-3.0748,-3.1116,-3.1394,-3.1616,-3.1942,-3.229,-3.2777,-3.3822,-3.4447,-3.4728,-3.5329,-3.5554,-3.5554,-3.5554,-3.5554,-3.5504,-3.5504,-3.5504,-3.5609,-3.6252,-3.6896,-3.7524,-3.8182,-3.8856,-3.9424,-3.9424,-3.9424,-3.9424,-3.9424,-3.9424,-3.9424,-3.9424,-3.9424,-3.9424,-3.9424,-3.9918,-4.0442,-4.0636,-4.1713,-4.2776,-4.324,-4.3329,-4.3329,-4.3329,-4.3329,-4.3329,-4.3329,-4.3329,-4.3329,-4.3329,-4.3329,-4.3329,-4.3329,-4.3329,-4.3329,-4.3329,-4.3329,-4.3329,-4.3329,-4.3329,-4.3329,-4.3329,-4.3329,-4.3329,-4.3329,-4.3329,-4.3329,-4.3329,-4.3596,-4.3769,-4.3832,-4.4127,-4.4435,-2.653,-2.6778,-2.7027,-2.7027,0.0,0.0,-2.7523,-2.7523,-2.7523,-2.7523,-2.7798,-2.802,-2.802,-2.8307,-2.8621,-2.8869,-2.9183,-2.9614,-3.0189,-2.998,-2.9784,-2.9784,-2.9483,-2.9274,-2.9274,-2.9274,-2.9274,-2.9274,-2.9274,-2.9274,-2.9274,-2.9039,-2.8895,-2.8895,-2.8673,-2.8556,-2.8556,-2.9366,-2.9784,-2.9784,-3.0594,-3.0986,-3.0986,-3.1468,-3.1809,-3.2146,-3.2989,-3.3754,-3.4312,-3.4839,-3.5213,-3.5504,-3.5504,-3.5504,-3.5504,-3.5504,-3.5504,-3.5609,-3.6252,-3.6896,-3.7524,-3.8182,-3.8856,-3.9424,-3.9424,-3.9424,-3.9424,-3.9424,-3.9424,-3.9424,-3.9424,-3.9424,-3.9424,-3.9424,-3.9709,-4.0068,-4.0337,-4.0995,-4.1818,-4.2746,-4.315,-4.3329,-4.3329,-4.3329,-4.3329,-4.3329,-4.3329,-4.3329,-4.3329,-4.3329,-4.3329,-4.3329,-4.3329,-4.3329,-4.3329,-4.3329,-4.3329,-4.3329,-4.3329,-4.3329,-4.3329,-4.3329,-4.3329,-4.3329,-4.3329,-4.3329,-4.3329,-4.3423,-4.3596,-4.369,-4.4127,-4.4358,-2.7523,-2.7523,-2.7523,-2.7523,-2.7523,0.0,-2.7523,-2.7523,-2.7523,-2.7523,-2.7523,-2.7523,-2.7523,-2.7523,-2.7693,-2.8203,-2.8281,-2.8516,-2.9196,-2.9222,-2.9183,-2.9183,-2.9118,-2.9091,-2.9091,-2.9091,-2.9091,-2.9091,-2.9091,-2.9091,-2.9091,-2.8569,-2.8281,-2.8281,-2.7798,-2.7523,-2.7523,-2.8621,-2.9209,-2.9287,-3.0372,-3.0934,-3.0986,-3.0986,-3.1334,-3.2015,-3.2074,-3.2847,-3.4095,-3.423,-3.4758,-3.5504,-3.5504,-3.5504,-3.5504,-3.5504,-3.5504,-3.5609,-3.6252,-3.6896,-3.7524,-3.8182,-3.8856,-3.9424,-3.9424,-3.9424,-3.9424,-3.9424,-3.9424,-3.9424,-3.9424,-3.9424,-3.9424,-3.9424,-3.9424,-3.9574,-4.0172,-4.0352,-4.0741,-4.1923,-4.2731,-4.324,-4.3329,-4.3329,-4.3329,-4.3329,-4.3329,-4.3329,-4.3329,-4.3329,-4.3329,-4.3329,-4.3329,-4.3329,-4.3329,-4.3329,-4.3329,-4.3329,-4.3329,-4.3329,-4.3329,-4.3329,-4.3329,-4.3329,-4.3329,-4.3329,-4.3329,-4.3329,-4.3423,-4.369,-4.4065,-4.4281,-2.7469,-2.7523,-2.7523,-2.7523,-2.7523,0.0,-2.7523,-2.7523,-2.7523,-2.7523,-2.7523,-2.7523,-2.7523,-2.7523,-2.7562,-2.768,-2.7693,-2.8072,-2.9131,-2.8869,-2.8556,-2.8556,-2.815,-2.7876,-2.7876,-2.7876,-2.7876,-2.7876,-2.7876,-2.7876,-2.7876,-2.7758,-2.7693,-2.7693,-2.7589,-2.7523,-2.7523,-2.8216,-2.8804,-2.9287,-2.9967,-3.0542,-3.0986,-3.0986,-3.1048,-3.1259,-3.1809,-3.229,-3.2635,-3.3822,-3.4758,-3.5504,-3.5504,-3.5504,-3.5504,-3.5504,-3.5504,-3.5609,-3.6252,-3.6896,-3.7524,-3.8182,-3.8856,-3.9424,-3.9424,-3.9424,-3.9424,-3.9424,-3.9424,-3.9424,-3.9424,-3.9424,-3.9424,-3.9424,-3.9424,-3.9454,-3.9589,-4.0023,-4.0472,-4.0726,-4.1743,-4.2716,-4.324,-4.3329,-4.3329,-4.3329,-4.3329,-4.3329,-4.3329,-4.3329,-4.3329,-4.3329,-4.3329,-4.3329,-4.3329,-4.3329,-4.3329,-4.3329,-4.3329,-4.3329,-4.3329,-4.3329,-4.3329,-4.3329,-4.3329,-4.3329,-4.3329,-4.3329,-4.3423,-4.369,-4.3754,-4.3988,-2.7403,-2.7469,-2.7523,-2.7523,-2.7523,0.0,0.0,-2.7523,-2.7523,-2.7523,-2.7523,-2.7523,-2.7523,-2.7523,-2.7523,-2.7523,-2.7523,-2.7732,-2.832,-2.8137,-2.7954,-2.7954,-2.7693,-2.7523,-2.7523,-2.7523,-2.7523,-2.7523,-2.7523,-2.7523,-2.7523,-2.7523,-2.7523,-2.7523,-2.7523,-2.7523,-2.7523,-2.8098,-2.8529,-2.8843,-2.9719,-3.0281,-3.0568,-3.0856,-3.0986,-3.0986,-3.1394,-3.1736,-3.2146,-3.2918,-3.363,-3.4438,-3.5213,-3.5504,-3.5504,-3.5504,-3.5504,-3.5609,-3.6252,-3.6686,-3.706,-3.7689,-3.8362,-3.8901,-3.8901,-3.914,-3.9424,-3.9424,-3.9424,-3.9424,-3.9424,-3.9424,-3.9424,-3.9424,-3.9424,-3.9424,-3.9424,-3.9679,-4.0008,-4.0337,-4.119,-4.2073,-4.2731,-4.312,-4.3329,-4.3329,-4.3329,-4.3329,-4.3329,-4.3329,-4.3329,-4.3329,-4.3329,-4.3329,-4.3329,-4.3329,-4.3329,-4.3329,-4.3329,-4.3329,-4.3329,-4.3329,-4.3329,-4.3329,-4.3329,-4.3329,-4.3329,-4.3329,-4.3344,-4.3518,-4.3596,-4.3847,-2.7201,-2.7335,-2.7469,-2.7469,-2.7469,-2.7523,0.0,0.0,0.0,-2.7523,-2.7523,-2.7523,-2.7523,-2.7523,-2.7497,-2.7379,-2.7458,-2.7484,-2.7379,-2.7458,-2.7523,-2.7523,-2.7523,-2.7523,-2.7523,-2.7523,-2.7523,-2.7523,-2.7523,-2.7523,-2.7523,-2.7523,-2.7523,-2.7523,-2.7523,-2.7523,-2.7523,-2.7981,-2.8281,-2.8386,-2.9457,-3.0032,-3.015,-3.0725,-3.0986,-3.0986,-3.0986,-3.1334,-3.1869,-3.2015,-3.2434,-3.3143,-3.4639,-3.5279,-3.5279,-3.5424,-3.5504,-3.5609,-3.6252,-3.6492,-3.6596,-3.721,-3.7853,-3.8407,-3.8542,-3.8975,-3.9424,-3.9424,-3.9424,-3.9424,-3.9424,-3.9424,-3.9424,-3.9424,-3.9424,-3.9424,-3.9424,-3.9424,-3.9574,-4.0113,-4.0741,-4.1444,-4.2222,-4.2895,-4.3329,-4.3329,-4.3329,-4.3329,-4.3329,-4.3329,-4.3329,-4.3329,-4.3329,-4.3329,-4.3329,-4.3329,-4.3329,-4.3329,-4.3329,-4.3329,-4.3329,-4.3329,-4.3329,-4.3329,-4.3329,-4.3329,-4.3329,-4.3329,-4.3329,-4.3329,-4.3518,-4.369,-2.6794,-2.7214,-2.7335,-2.7335,-2.7403,-2.7523,-2.7523,0.0,-2.7523,-2.7523,0.0,-2.7523,-2.7523,0.0,0.0,-2.6857,-2.7196,-2.7353,-2.6844,-2.721,-2.7523,-2.7523,-2.7523,-2.7523,-2.7523,-2.7523,-2.7523,-2.7523,-2.7523,-2.7523,-2.7523,-2.7523,-2.7523,-2.7523,-2.7523,-2.7523,-2.7523,-2.7589,-2.7876,-2.8386,-2.9052,-2.964,-3.015,-3.0725,-3.0986,-3.0986,-3.0986,-3.1061,-3.1198,-3.1809,-3.2146,-3.2362,-3.3837,-3.4461,-3.4528,-3.5213,-3.5504,-3.5609,-3.6252,-3.6492,-3.6596,-3.721,-3.7853,-3.8497,-3.9125,-3.9364,-3.9424,-3.9424,-3.9424,-3.9424,-3.9424,-3.9424,-3.9424,-3.9424,-3.9424,-3.9424,-3.9424,-3.9424,-3.9439,-3.9514,-4.0053,-4.0905,-4.2147,-4.2895,-4.3329,-4.3329,-4.3329,-4.3329,-4.3329,-4.3329,-4.3329,-4.3329,-4.3329,-4.3329,-4.3329,-4.3329,-4.3329,-4.3329,-4.3329,-4.3329,-4.3329,-4.3329,-4.3329,-4.3329,-4.3329,-4.3329,-4.3329,-4.3329,-4.3329,-4.3329,-4.3329,-4.3503,-2.6726,-2.6633,-2.6552,-2.7121,-2.6973,-2.6824,-2.739,-2.7523,-2.7523,-2.7523,0.0,0.0,0.0,0.0,0.0,0.0,-2.7366,-2.7445,-2.721,-2.7379,-2.7523,-2.7523,-2.7523,-2.7523,-2.7523,-2.7523,-2.7523,-2.7523,-2.7523,-2.7523,-2.7523,-2.7523,-2.7523,-2.7523,-2.7523,-2.7523,-2.7523,-2.7523,-2.7654,-2.7902,-2.8477,-2.9065,-2.9653,-3.0228,-3.0673,-3.0986,-3.0986,-3.0986,-3.1048,-3.1334,-3.1468,-3.1542,-3.2635,-3.3547,-3.4312,-3.4677,-3.5133,-3.5549,-3.5818,-3.5923,-3.6028,-3.6671,-3.73,-3.7943,-3.8616,-3.9095,-3.9424,-3.9424,-3.9424,-3.9424,-3.9424,-3.9424,-3.9424,-3.9424,-3.9424,-3.9424,-3.9424,-3.9424,-3.9424,-3.9424,-3.9948,-4.0576,-4.113,-4.2087,-4.2895,-4.3284,-4.3329,-4.3329,-4.3329,-4.3329,-4.3329,-4.3329,-4.3329,-4.3329,-4.3329,-4.3329,-4.3329,-4.3329,-4.3329,-4.3329,-4.3329,-4.3329,-4.3329,-4.3329,-4.3329,-4.3329,-4.3329,-4.3329,-4.3329,-4.3329,-4.3329,-4.3344,-2.622,-2.6057,-2.5975,-2.6918,-2.6769,-2.662,-2.7255,-2.7469,-2.7523,-2.7523,-2.7523,0.0,0.0,0.0,-2.7471,-2.7314,0.0,-2.7471,-2.7314,-2.7432,-2.7523,-2.7523,-2.7523,-2.7523,-2.7523,-2.7523,-2.7523,-2.7523,-2.7523,-2.7523,-2.7523,-2.7523,-2.7523,-2.7523,-2.7523,-2.7523,-2.7523,-2.7523,-2.7523,-2.7536,-2.8111,-2.8608,-2.9052,-2.9797,-3.0359,-3.0764,-3.0921,-3.0986,-3.0986,-3.0986,-3.0986,-3.1048,-3.1603,-3.2577,-3.3754,-3.4177,-3.4824,-3.5504,-3.5504,-3.5504,-3.5609,-3.6267,-3.6791,-3.7315,-3.8138,-3.8736,-3.917,-3.9364,-3.9424,-3.9424,-3.9424,-3.9424,-3.9424,-3.9424,-3.9424,-3.9424,-3.9424,-3.9424,-3.9424,-3.9424,-3.9798,-4.0187,-4.0367,-4.1489,-4.2521,-4.3,-4.321,-4.3329,-4.3329,-4.3329,-4.3329,-4.3329,-4.3329,-4.3329,-4.3329,-4.3329,-4.3329,-4.3329,-4.3329,-4.3329,-4.3329,-4.3329,-4.3329,-4.3329,-4.3329,-4.3329,-4.3329,-4.3329,-4.3329,-4.3329,-4.3329,-4.3329,-2.4945,-2.5499,-2.5779,-2.6496,-2.6985,-2.7268,-2.7268,-2.7403,-2.7523,-2.7523,-2.7523,-2.7523,-2.7523,-2.7523,-2.7353,-2.6791,-2.717,0.0,0.0,-2.7183,-2.7523,-2.7523,-2.7523,-2.7523,-2.7523,-2.7523,-2.7523,-2.7523,-2.7523,-2.7523,-2.7523,-2.7523,-2.7523,-2.7523,-2.7523,-2.7523,-2.7523,-2.7523,-2.7523,-2.7536,-2.8111,-2.8386,-2.8451,-2.9614,-3.015,-3.0189,-3.0751,-3.0986,-3.0986,-3.0986,-3.0986,-3.0986,-3.1061,-3.1468,-3.2362,-3.3754,-3.4824,-3.5504,-3.5504,-3.5504,-3.5609,-3.6267,-3.6492,-3.6746,-3.8003,-3.8407,-3.8556,-3.923,-3.9424,-3.9424,-3.9424,-3.9424,-3.9424,-3.9424,-3.9424,-3.9424,-3.9424,-3.9424,-3.9424,-3.9424,-3.9439,-3.9649,-4.0292,-4.1489,-4.2372,-4.2387,-4.294,-4.3329,-4.3329,-4.3329,-4.3329,-4.3329,-4.3329,-4.3329,-4.3329,-4.3329,-4.3329,-4.3329,-4.3329,-4.3329,-4.3329,-4.3329,-4.3329,-4.3329,-4.3329,-4.3329,-4.3329,-4.3329,-4.3329,-4.3329,-4.3329,-4.3329,-2.4337,-2.4204,-2.4215,-2.5639,-2.5697,-2.5697,-2.6985,-2.7335,-2.7403,-2.7469,-2.7523,-2.7523,-2.7523,-2.7523,-2.7471,-2.7275,-2.7406,-2.7458,0.0,-2.7406,-2.7523,-2.7523,-2.7523,-2.7523,-2.7523,-2.7523,-2.7523,-2.7523,-2.7523,-2.7523,-2.7523,-2.7523,-2.7523,-2.7523,-2.7523,-2.7523,-2.7523,-2.7523,-2.7523,-2.7523,-2.7732,-2.8007,-2.8412,-2.9209,-2.9771,-3.0163,-3.0738,-3.0986,-3.0986,-3.0986,-3.0986,-3.0986,-3.0986,-3.1468,-3.2146,-3.2635,-3.3353,-3.407,-3.4543,-3.4691,-3.4802,-3.5612,-3.6133,-3.6641,-3.7479,-3.8048,-3.8542,-3.923,-3.9424,-3.9424,-3.9424,-3.9424,-3.9424,-3.9424,-3.9424,-3.9424,-3.9424,-3.9424,-3.9424,-3.9424,-3.9424,-3.9484,-3.9709,-4.0487,-4.1354,-4.2314,-4.291,-4.3329,-4.3329,-4.3329,-4.3329,-4.3329,-4.3329,-4.3329,-4.3329,-4.3329,-4.3329,-4.3329,-4.3329,-4.3329,-4.3329,-4.3329,-4.3329,-4.3329,-4.3329,-4.3329,-4.3329,-4.3329,-4.3329,-4.3329,-4.3329,-4.3329,-2.3621,-2.335,-2.335,-2.4696,-2.4696,-2.4767,-2.6346,-2.6701,-2.6824,-2.6973,-2.7188,-2.7201,-2.6769,-2.7121,-2.7335,-2.7108,-2.7323,-2.7523,0.0,-2.7523,-2.7523,-2.7523,-2.7523,-2.7523,-2.7523,-2.7523,-2.7523,-2.7523,-2.7523,-2.7523,-2.7523,-2.7523,-2.7523,-2.7523,-2.7523,-2.7523,-2.7523,-2.7523,-2.7523,-2.7523,-2.7523,-2.7837,-2.8399,-2.9,-2.9588,-3.0163,-3.0738,-3.0986,-3.0986,-3.0986,-3.0986,-3.0986,-3.0986,-3.1259,-3.1736,-3.2015,-3.2706,-3.363,-3.4109,-3.4461,-3.4824,-3.5344,-3.5789,-3.6297,-3.715,-3.7704,-3.8182,-3.8871,-3.923,-3.9364,-3.9125,-3.923,-3.9424,-3.9424,-3.9424,-3.9424,-3.9424,-3.9424,-3.9424,-3.9424,-3.9424,-3.9499,-3.9723,-4.0307,-4.104,-4.1878,-4.2566,-4.3075,-4.3299,-4.3329,-4.3329,-4.3329,-4.3329,-4.3329,-4.3329,-4.3329,-4.3329,-4.3329,-4.3329,-4.3329,-4.3329,-4.3329,-4.3329,-4.3329,-4.3329,-4.3329,-4.3329,-4.3329,-4.3329,-4.3329,-4.3329,-4.3329]}]]